<?xml version="1.0" encoding="UTF-8" standalone="no" ?>
<gpx xmlns="http://www.topografix.com/GPX/1/1" xmlns:xsi="http://www.w3.org/2001/XMLSchema-instance" xsi:schemaLocation="http://www.topografix.com/GPX/1/1 http://www.topografix.com/GPX/1/1/gpx.xsd" version="1.1" creator="VisuGPX - https://www.visugpx.com">
  <metadata>
    <name>Rosans Le Fourchat Col des Pins (très délicat) Col de la Fromagère</name>
    <desc><![CDATA[Rosans Camping des Rosières Le Fourchat Col des Pins (très délicat) Col de la Fromagère.]]></desc>
  </metadata>
  <trk>
    <name><![CDATA[Rosans Le Fourchat Col des Pins (très délicat) Col de la Fromagère]]></name>
    <trkseg>
      <trkpt lat="44.38318" lon="5.45902">
        <ele>570.2</ele>
        <time>2019-05-31T07:54:22Z</time>
      </trkpt>
      <trkpt lat="44.38318" lon="5.45902">
        <ele>570.2</ele>
        <time>2019-05-31T07:54:22Z</time>
      </trkpt>
      <trkpt lat="44.38318" lon="5.45902">
        <ele>571.9</ele>
        <time>2019-05-31T07:54:23Z</time>
      </trkpt>
      <trkpt lat="44.38312" lon="5.45912">
        <ele>599.9</ele>
        <time>2019-05-31T07:58:25Z</time>
      </trkpt>
      <trkpt lat="44.38321" lon="5.45915">
        <ele>601.3</ele>
        <time>2019-05-31T08:06:42Z</time>
      </trkpt>
      <trkpt lat="44.38329" lon="5.45923">
        <ele>601.9</ele>
        <time>2019-05-31T08:07:48Z</time>
      </trkpt>
      <trkpt lat="44.3833" lon="5.45936">
        <ele>602.2</ele>
        <time>2019-05-31T08:07:57Z</time>
      </trkpt>
      <trkpt lat="44.38325" lon="5.45948">
        <ele>602.3</ele>
        <time>2019-05-31T08:08:06Z</time>
      </trkpt>
      <trkpt lat="44.38321" lon="5.45961">
        <ele>602.4</ele>
        <time>2019-05-31T08:08:14Z</time>
      </trkpt>
      <trkpt lat="44.38317" lon="5.45972">
        <ele>602.4</ele>
        <time>2019-05-31T08:08:22Z</time>
      </trkpt>
      <trkpt lat="44.38313" lon="5.45984">
        <ele>602</ele>
        <time>2019-05-31T08:08:30Z</time>
      </trkpt>
      <trkpt lat="44.3831" lon="5.45997">
        <ele>601.7</ele>
        <time>2019-05-31T08:08:38Z</time>
      </trkpt>
      <trkpt lat="44.38306" lon="5.46009">
        <ele>600.9</ele>
        <time>2019-05-31T08:08:46Z</time>
      </trkpt>
      <trkpt lat="44.38302" lon="5.46021">
        <ele>600.2</ele>
        <time>2019-05-31T08:08:55Z</time>
      </trkpt>
      <trkpt lat="44.38298" lon="5.46034">
        <ele>599.5</ele>
        <time>2019-05-31T08:09:04Z</time>
      </trkpt>
      <trkpt lat="44.38293" lon="5.46046">
        <ele>599.1</ele>
        <time>2019-05-31T08:09:13Z</time>
      </trkpt>
      <trkpt lat="44.38287" lon="5.46056">
        <ele>598.4</ele>
        <time>2019-05-31T08:09:21Z</time>
      </trkpt>
      <trkpt lat="44.38281" lon="5.46066">
        <ele>597.8</ele>
        <time>2019-05-31T08:09:28Z</time>
      </trkpt>
      <trkpt lat="44.38275" lon="5.46077">
        <ele>597.1</ele>
        <time>2019-05-31T08:09:36Z</time>
      </trkpt>
      <trkpt lat="44.38269" lon="5.46087">
        <ele>596.3</ele>
        <time>2019-05-31T08:09:43Z</time>
      </trkpt>
      <trkpt lat="44.38262" lon="5.46098">
        <ele>595.4</ele>
        <time>2019-05-31T08:09:51Z</time>
      </trkpt>
      <trkpt lat="44.38255" lon="5.46108">
        <ele>594.6</ele>
        <time>2019-05-31T08:09:59Z</time>
      </trkpt>
      <trkpt lat="44.38252" lon="5.4612">
        <ele>593.8</ele>
        <time>2019-05-31T08:10:07Z</time>
      </trkpt>
      <trkpt lat="44.38251" lon="5.46134">
        <ele>593.1</ele>
        <time>2019-05-31T08:10:15Z</time>
      </trkpt>
      <trkpt lat="44.38251" lon="5.46148">
        <ele>592.7</ele>
        <time>2019-05-31T08:10:22Z</time>
      </trkpt>
      <trkpt lat="44.38251" lon="5.46161">
        <ele>592.3</ele>
        <time>2019-05-31T08:10:29Z</time>
      </trkpt>
      <trkpt lat="44.38251" lon="5.46174">
        <ele>591.8</ele>
        <time>2019-05-31T08:10:37Z</time>
      </trkpt>
      <trkpt lat="44.3825" lon="5.46187">
        <ele>591.5</ele>
        <time>2019-05-31T08:10:44Z</time>
      </trkpt>
      <trkpt lat="44.38248" lon="5.462">
        <ele>591.3</ele>
        <time>2019-05-31T08:10:52Z</time>
      </trkpt>
      <trkpt lat="44.38244" lon="5.46213">
        <ele>591.1</ele>
        <time>2019-05-31T08:11:00Z</time>
      </trkpt>
      <trkpt lat="44.38238" lon="5.46225">
        <ele>590</ele>
        <time>2019-05-31T08:11:08Z</time>
      </trkpt>
      <trkpt lat="44.3823" lon="5.46234">
        <ele>591</ele>
        <time>2019-05-31T08:11:20Z</time>
      </trkpt>
      <trkpt lat="44.38225" lon="5.46246">
        <ele>591.2</ele>
        <time>2019-05-31T08:11:31Z</time>
      </trkpt>
      <trkpt lat="44.38217" lon="5.46254">
        <ele>591.1</ele>
        <time>2019-05-31T08:11:38Z</time>
      </trkpt>
      <trkpt lat="44.38209" lon="5.46261">
        <ele>591</ele>
        <time>2019-05-31T08:11:45Z</time>
      </trkpt>
      <trkpt lat="44.38201" lon="5.46268">
        <ele>591.3</ele>
        <time>2019-05-31T08:11:52Z</time>
      </trkpt>
      <trkpt lat="44.38192" lon="5.46276">
        <ele>591.5</ele>
        <time>2019-05-31T08:11:59Z</time>
      </trkpt>
      <trkpt lat="44.38186" lon="5.46287">
        <ele>591.9</ele>
        <time>2019-05-31T08:12:09Z</time>
      </trkpt>
      <trkpt lat="44.38177" lon="5.46292">
        <ele>592.9</ele>
        <time>2019-05-31T08:12:31Z</time>
      </trkpt>
      <trkpt lat="44.38176" lon="5.46307">
        <ele>593.1</ele>
        <time>2019-05-31T08:12:44Z</time>
      </trkpt>
      <trkpt lat="44.38172" lon="5.46319">
        <ele>593.1</ele>
        <time>2019-05-31T08:12:51Z</time>
      </trkpt>
      <trkpt lat="44.3817" lon="5.46333">
        <ele>593</ele>
        <time>2019-05-31T08:12:59Z</time>
      </trkpt>
      <trkpt lat="44.38168" lon="5.46346">
        <ele>592.9</ele>
        <time>2019-05-31T08:13:08Z</time>
      </trkpt>
      <trkpt lat="44.3817" lon="5.46359">
        <ele>592.9</ele>
        <time>2019-05-31T08:13:15Z</time>
      </trkpt>
      <trkpt lat="44.38171" lon="5.46372">
        <ele>593.2</ele>
        <time>2019-05-31T08:13:22Z</time>
      </trkpt>
      <trkpt lat="44.38172" lon="5.46385">
        <ele>593.7</ele>
        <time>2019-05-31T08:13:30Z</time>
      </trkpt>
      <trkpt lat="44.38173" lon="5.464">
        <ele>593.9</ele>
        <time>2019-05-31T08:13:38Z</time>
      </trkpt>
      <trkpt lat="44.38173" lon="5.46414">
        <ele>593.9</ele>
        <time>2019-05-31T08:13:46Z</time>
      </trkpt>
      <trkpt lat="44.38177" lon="5.46426">
        <ele>594.4</ele>
        <time>2019-05-31T08:13:54Z</time>
      </trkpt>
      <trkpt lat="44.38186" lon="5.46431">
        <ele>594.6</ele>
        <time>2019-05-31T08:14:02Z</time>
      </trkpt>
      <trkpt lat="44.38195" lon="5.46436">
        <ele>594.8</ele>
        <time>2019-05-31T08:14:10Z</time>
      </trkpt>
      <trkpt lat="44.38203" lon="5.46442">
        <ele>595</ele>
        <time>2019-05-31T08:14:18Z</time>
      </trkpt>
      <trkpt lat="44.38212" lon="5.46448">
        <ele>595.7</ele>
        <time>2019-05-31T08:14:27Z</time>
      </trkpt>
      <trkpt lat="44.3822" lon="5.46454">
        <ele>596.1</ele>
        <time>2019-05-31T08:14:35Z</time>
      </trkpt>
      <trkpt lat="44.38229" lon="5.46459">
        <ele>596.4</ele>
        <time>2019-05-31T08:14:43Z</time>
      </trkpt>
      <trkpt lat="44.38238" lon="5.46464">
        <ele>596.6</ele>
        <time>2019-05-31T08:14:51Z</time>
      </trkpt>
      <trkpt lat="44.38247" lon="5.46468">
        <ele>596.7</ele>
        <time>2019-05-31T08:14:58Z</time>
      </trkpt>
      <trkpt lat="44.38257" lon="5.46473">
        <ele>596.9</ele>
        <time>2019-05-31T08:15:05Z</time>
      </trkpt>
      <trkpt lat="44.38266" lon="5.46476">
        <ele>596.9</ele>
        <time>2019-05-31T08:15:11Z</time>
      </trkpt>
      <trkpt lat="44.38275" lon="5.4648">
        <ele>597.1</ele>
        <time>2019-05-31T08:15:18Z</time>
      </trkpt>
      <trkpt lat="44.38283" lon="5.46484">
        <ele>597.5</ele>
        <time>2019-05-31T08:15:28Z</time>
      </trkpt>
      <trkpt lat="44.38292" lon="5.4649">
        <ele>597.8</ele>
        <time>2019-05-31T08:15:37Z</time>
      </trkpt>
      <trkpt lat="44.38301" lon="5.46495">
        <ele>598.3</ele>
        <time>2019-05-31T08:15:45Z</time>
      </trkpt>
      <trkpt lat="44.3831" lon="5.46499">
        <ele>599.8</ele>
        <time>2019-05-31T08:16:09Z</time>
      </trkpt>
      <trkpt lat="44.3832" lon="5.46503">
        <ele>599.5</ele>
        <time>2019-05-31T08:16:18Z</time>
      </trkpt>
      <trkpt lat="44.38328" lon="5.46508">
        <ele>599.8</ele>
        <time>2019-05-31T08:16:26Z</time>
      </trkpt>
      <trkpt lat="44.38337" lon="5.46515">
        <ele>600.1</ele>
        <time>2019-05-31T08:16:33Z</time>
      </trkpt>
      <trkpt lat="44.38346" lon="5.46519">
        <ele>600.3</ele>
        <time>2019-05-31T08:16:40Z</time>
      </trkpt>
      <trkpt lat="44.38355" lon="5.46524">
        <ele>600.6</ele>
        <time>2019-05-31T08:16:47Z</time>
      </trkpt>
      <trkpt lat="44.38363" lon="5.46528">
        <ele>601.3</ele>
        <time>2019-05-31T08:16:53Z</time>
      </trkpt>
      <trkpt lat="44.38373" lon="5.4653">
        <ele>601.7</ele>
        <time>2019-05-31T08:16:59Z</time>
      </trkpt>
      <trkpt lat="44.38382" lon="5.46531">
        <ele>601.9</ele>
        <time>2019-05-31T08:17:04Z</time>
      </trkpt>
      <trkpt lat="44.38392" lon="5.46533">
        <ele>602.1</ele>
        <time>2019-05-31T08:17:11Z</time>
      </trkpt>
      <trkpt lat="44.38401" lon="5.46534">
        <ele>602.2</ele>
        <time>2019-05-31T08:17:17Z</time>
      </trkpt>
      <trkpt lat="44.38411" lon="5.46536">
        <ele>602.4</ele>
        <time>2019-05-31T08:17:24Z</time>
      </trkpt>
      <trkpt lat="44.38421" lon="5.46536">
        <ele>602.6</ele>
        <time>2019-05-31T08:17:29Z</time>
      </trkpt>
      <trkpt lat="44.3843" lon="5.46537">
        <ele>603.2</ele>
        <time>2019-05-31T08:17:35Z</time>
      </trkpt>
      <trkpt lat="44.3844" lon="5.46538">
        <ele>603.9</ele>
        <time>2019-05-31T08:17:42Z</time>
      </trkpt>
      <trkpt lat="44.3845" lon="5.46538">
        <ele>604.5</ele>
        <time>2019-05-31T08:17:51Z</time>
      </trkpt>
      <trkpt lat="44.38459" lon="5.46541">
        <ele>604.9</ele>
        <time>2019-05-31T08:17:59Z</time>
      </trkpt>
      <trkpt lat="44.38467" lon="5.46546">
        <ele>605.3</ele>
        <time>2019-05-31T08:18:07Z</time>
      </trkpt>
      <trkpt lat="44.38477" lon="5.4655">
        <ele>606.1</ele>
        <time>2019-05-31T08:18:14Z</time>
      </trkpt>
      <trkpt lat="44.38486" lon="5.46553">
        <ele>606.8</ele>
        <time>2019-05-31T08:18:22Z</time>
      </trkpt>
      <trkpt lat="44.38494" lon="5.46549">
        <ele>607.3</ele>
        <time>2019-05-31T08:18:29Z</time>
      </trkpt>
      <trkpt lat="44.38503" lon="5.46553">
        <ele>608.3</ele>
        <time>2019-05-31T08:18:39Z</time>
      </trkpt>
      <trkpt lat="44.38511" lon="5.46561">
        <ele>608.9</ele>
        <time>2019-05-31T08:18:51Z</time>
      </trkpt>
      <trkpt lat="44.3852" lon="5.46567">
        <ele>609.1</ele>
        <time>2019-05-31T08:19:00Z</time>
      </trkpt>
      <trkpt lat="44.38528" lon="5.46571">
        <ele>609.4</ele>
        <time>2019-05-31T08:19:09Z</time>
      </trkpt>
      <trkpt lat="44.38537" lon="5.46576">
        <ele>609.5</ele>
        <time>2019-05-31T08:19:18Z</time>
      </trkpt>
      <trkpt lat="44.38546" lon="5.46581">
        <ele>609.8</ele>
        <time>2019-05-31T08:19:27Z</time>
      </trkpt>
      <trkpt lat="44.38555" lon="5.46586">
        <ele>610.5</ele>
        <time>2019-05-31T08:19:35Z</time>
      </trkpt>
      <trkpt lat="44.38564" lon="5.46592">
        <ele>610.9</ele>
        <time>2019-05-31T08:19:42Z</time>
      </trkpt>
      <trkpt lat="44.38572" lon="5.466">
        <ele>611.5</ele>
        <time>2019-05-31T08:19:49Z</time>
      </trkpt>
      <trkpt lat="44.3858" lon="5.46608">
        <ele>611.9</ele>
        <time>2019-05-31T08:19:56Z</time>
      </trkpt>
      <trkpt lat="44.38588" lon="5.46618">
        <ele>612.7</ele>
        <time>2019-05-31T08:20:03Z</time>
      </trkpt>
      <trkpt lat="44.38596" lon="5.46627">
        <ele>613.1</ele>
        <time>2019-05-31T08:20:10Z</time>
      </trkpt>
      <trkpt lat="44.38603" lon="5.46636">
        <ele>613.4</ele>
        <time>2019-05-31T08:20:17Z</time>
      </trkpt>
      <trkpt lat="44.38612" lon="5.46639">
        <ele>613.7</ele>
        <time>2019-05-31T08:20:25Z</time>
      </trkpt>
      <trkpt lat="44.38621" lon="5.46635">
        <ele>613.8</ele>
        <time>2019-05-31T08:20:31Z</time>
      </trkpt>
      <trkpt lat="44.3863" lon="5.46629">
        <ele>613.9</ele>
        <time>2019-05-31T08:20:38Z</time>
      </trkpt>
      <trkpt lat="44.38639" lon="5.46633">
        <ele>614</ele>
        <time>2019-05-31T08:20:49Z</time>
      </trkpt>
      <trkpt lat="44.38643" lon="5.46646">
        <ele>614.5</ele>
        <time>2019-05-31T08:20:56Z</time>
      </trkpt>
      <trkpt lat="44.38649" lon="5.46656">
        <ele>614.9</ele>
        <time>2019-05-31T08:21:03Z</time>
      </trkpt>
      <trkpt lat="44.38655" lon="5.46666">
        <ele>615.1</ele>
        <time>2019-05-31T08:21:09Z</time>
      </trkpt>
      <trkpt lat="44.38662" lon="5.46675">
        <ele>615.5</ele>
        <time>2019-05-31T08:21:16Z</time>
      </trkpt>
      <trkpt lat="44.3867" lon="5.46685">
        <ele>615.8</ele>
        <time>2019-05-31T08:21:23Z</time>
      </trkpt>
      <trkpt lat="44.38676" lon="5.46694">
        <ele>616.1</ele>
        <time>2019-05-31T08:21:37Z</time>
      </trkpt>
      <trkpt lat="44.38684" lon="5.46702">
        <ele>616.3</ele>
        <time>2019-05-31T08:21:50Z</time>
      </trkpt>
      <trkpt lat="44.38693" lon="5.46708">
        <ele>616.3</ele>
        <time>2019-05-31T08:21:57Z</time>
      </trkpt>
      <trkpt lat="44.38702" lon="5.46714">
        <ele>616.6</ele>
        <time>2019-05-31T08:22:04Z</time>
      </trkpt>
      <trkpt lat="44.38711" lon="5.46719">
        <ele>616.7</ele>
        <time>2019-05-31T08:22:11Z</time>
      </trkpt>
      <trkpt lat="44.3872" lon="5.46724">
        <ele>617.4</ele>
        <time>2019-05-31T08:22:19Z</time>
      </trkpt>
      <trkpt lat="44.38728" lon="5.46729">
        <ele>617.8</ele>
        <time>2019-05-31T08:22:25Z</time>
      </trkpt>
      <trkpt lat="44.38736" lon="5.46735">
        <ele>618.4</ele>
        <time>2019-05-31T08:22:32Z</time>
      </trkpt>
      <trkpt lat="44.38745" lon="5.4674">
        <ele>619.3</ele>
        <time>2019-05-31T08:22:40Z</time>
      </trkpt>
      <trkpt lat="44.38753" lon="5.46746">
        <ele>619.9</ele>
        <time>2019-05-31T08:22:48Z</time>
      </trkpt>
      <trkpt lat="44.38761" lon="5.46754">
        <ele>621.2</ele>
        <time>2019-05-31T08:22:57Z</time>
      </trkpt>
      <trkpt lat="44.38769" lon="5.46762">
        <ele>622.3</ele>
        <time>2019-05-31T08:23:05Z</time>
      </trkpt>
      <trkpt lat="44.38776" lon="5.4677">
        <ele>624</ele>
        <time>2019-05-31T08:23:14Z</time>
      </trkpt>
      <trkpt lat="44.38784" lon="5.4678">
        <ele>625.6</ele>
        <time>2019-05-31T08:23:23Z</time>
      </trkpt>
      <trkpt lat="44.38791" lon="5.46788">
        <ele>627</ele>
        <time>2019-05-31T08:23:31Z</time>
      </trkpt>
      <trkpt lat="44.38798" lon="5.46796">
        <ele>628.5</ele>
        <time>2019-05-31T08:23:39Z</time>
      </trkpt>
      <trkpt lat="44.38806" lon="5.46804">
        <ele>630.3</ele>
        <time>2019-05-31T08:23:48Z</time>
      </trkpt>
      <trkpt lat="44.38814" lon="5.4681">
        <ele>632.1</ele>
        <time>2019-05-31T08:23:57Z</time>
      </trkpt>
      <trkpt lat="44.38822" lon="5.46818">
        <ele>634.1</ele>
        <time>2019-05-31T08:24:06Z</time>
      </trkpt>
      <trkpt lat="44.3883" lon="5.46826">
        <ele>635.7</ele>
        <time>2019-05-31T08:24:14Z</time>
      </trkpt>
      <trkpt lat="44.38838" lon="5.46833">
        <ele>637</ele>
        <time>2019-05-31T08:24:22Z</time>
      </trkpt>
      <trkpt lat="44.38845" lon="5.46842">
        <ele>638.9</ele>
        <time>2019-05-31T08:24:31Z</time>
      </trkpt>
      <trkpt lat="44.38853" lon="5.46851">
        <ele>640.5</ele>
        <time>2019-05-31T08:24:40Z</time>
      </trkpt>
      <trkpt lat="44.38862" lon="5.46859">
        <ele>641.8</ele>
        <time>2019-05-31T08:24:49Z</time>
      </trkpt>
      <trkpt lat="44.38869" lon="5.46868">
        <ele>643.1</ele>
        <time>2019-05-31T08:24:58Z</time>
      </trkpt>
      <trkpt lat="44.38877" lon="5.46877">
        <ele>644.6</ele>
        <time>2019-05-31T08:25:07Z</time>
      </trkpt>
      <trkpt lat="44.38884" lon="5.46885">
        <ele>646.2</ele>
        <time>2019-05-31T08:25:16Z</time>
      </trkpt>
      <trkpt lat="44.38891" lon="5.46894">
        <ele>648.4</ele>
        <time>2019-05-31T08:25:25Z</time>
      </trkpt>
      <trkpt lat="44.38898" lon="5.46902">
        <ele>650.7</ele>
        <time>2019-05-31T08:25:35Z</time>
      </trkpt>
      <trkpt lat="44.38906" lon="5.4691">
        <ele>653.2</ele>
        <time>2019-05-31T08:25:46Z</time>
      </trkpt>
      <trkpt lat="44.38914" lon="5.46916">
        <ele>655.7</ele>
        <time>2019-05-31T08:25:57Z</time>
      </trkpt>
      <trkpt lat="44.38912" lon="5.46929">
        <ele>658.6</ele>
        <time>2019-05-31T08:26:08Z</time>
      </trkpt>
      <trkpt lat="44.3891" lon="5.46942">
        <ele>660.9</ele>
        <time>2019-05-31T08:26:17Z</time>
      </trkpt>
      <trkpt lat="44.38911" lon="5.46955">
        <ele>662.4</ele>
        <time>2019-05-31T08:26:25Z</time>
      </trkpt>
      <trkpt lat="44.38914" lon="5.46968">
        <ele>663.8</ele>
        <time>2019-05-31T08:26:34Z</time>
      </trkpt>
      <trkpt lat="44.38917" lon="5.46981">
        <ele>665.2</ele>
        <time>2019-05-31T08:26:43Z</time>
      </trkpt>
      <trkpt lat="44.38919" lon="5.46994">
        <ele>666.4</ele>
        <time>2019-05-31T08:26:56Z</time>
      </trkpt>
      <trkpt lat="44.38922" lon="5.47008">
        <ele>667.5</ele>
        <time>2019-05-31T08:27:04Z</time>
      </trkpt>
      <trkpt lat="44.38923" lon="5.4702">
        <ele>668</ele>
        <time>2019-05-31T08:27:11Z</time>
      </trkpt>
      <trkpt lat="44.38925" lon="5.47033">
        <ele>668.6</ele>
        <time>2019-05-31T08:27:18Z</time>
      </trkpt>
      <trkpt lat="44.38927" lon="5.47046">
        <ele>669.1</ele>
        <time>2019-05-31T08:27:25Z</time>
      </trkpt>
      <trkpt lat="44.3893" lon="5.47059">
        <ele>670</ele>
        <time>2019-05-31T08:27:33Z</time>
      </trkpt>
      <trkpt lat="44.38934" lon="5.47071">
        <ele>670.7</ele>
        <time>2019-05-31T08:27:40Z</time>
      </trkpt>
      <trkpt lat="44.38937" lon="5.47084">
        <ele>671.3</ele>
        <time>2019-05-31T08:27:49Z</time>
      </trkpt>
      <trkpt lat="44.38943" lon="5.47096">
        <ele>671.6</ele>
        <time>2019-05-31T08:27:57Z</time>
      </trkpt>
      <trkpt lat="44.38948" lon="5.47107">
        <ele>671.7</ele>
        <time>2019-05-31T08:28:03Z</time>
      </trkpt>
      <trkpt lat="44.38952" lon="5.47118">
        <ele>672.3</ele>
        <time>2019-05-31T08:28:10Z</time>
      </trkpt>
      <trkpt lat="44.38959" lon="5.47128">
        <ele>672.8</ele>
        <time>2019-05-31T08:28:17Z</time>
      </trkpt>
      <trkpt lat="44.38967" lon="5.47136">
        <ele>672.8</ele>
        <time>2019-05-31T08:28:24Z</time>
      </trkpt>
      <trkpt lat="44.38974" lon="5.47145">
        <ele>673</ele>
        <time>2019-05-31T08:28:30Z</time>
      </trkpt>
      <trkpt lat="44.3898" lon="5.47154">
        <ele>673.5</ele>
        <time>2019-05-31T08:28:40Z</time>
      </trkpt>
      <trkpt lat="44.38987" lon="5.47144">
        <ele>674.4</ele>
        <time>2019-05-31T08:31:31Z</time>
      </trkpt>
      <trkpt lat="44.38992" lon="5.47133">
        <ele>674.8</ele>
        <time>2019-05-31T08:31:42Z</time>
      </trkpt>
      <trkpt lat="44.38996" lon="5.47121">
        <ele>675.5</ele>
        <time>2019-05-31T08:31:50Z</time>
      </trkpt>
      <trkpt lat="44.39003" lon="5.47114">
        <ele>676.5</ele>
        <time>2019-05-31T08:32:01Z</time>
      </trkpt>
      <trkpt lat="44.39013" lon="5.47114">
        <ele>678.6</ele>
        <time>2019-05-31T08:32:17Z</time>
      </trkpt>
      <trkpt lat="44.3902" lon="5.47121">
        <ele>679.5</ele>
        <time>2019-05-31T08:32:25Z</time>
      </trkpt>
      <trkpt lat="44.39029" lon="5.47126">
        <ele>680.3</ele>
        <time>2019-05-31T08:32:33Z</time>
      </trkpt>
      <trkpt lat="44.39038" lon="5.4713">
        <ele>681.4</ele>
        <time>2019-05-31T08:32:41Z</time>
      </trkpt>
      <trkpt lat="44.39048" lon="5.47133">
        <ele>682.6</ele>
        <time>2019-05-31T08:32:50Z</time>
      </trkpt>
      <trkpt lat="44.39058" lon="5.47136">
        <ele>684</ele>
        <time>2019-05-31T08:32:58Z</time>
      </trkpt>
      <trkpt lat="44.39067" lon="5.47141">
        <ele>686.3</ele>
        <time>2019-05-31T08:33:10Z</time>
      </trkpt>
      <trkpt lat="44.39077" lon="5.47143">
        <ele>687.8</ele>
        <time>2019-05-31T08:33:18Z</time>
      </trkpt>
      <trkpt lat="44.39087" lon="5.47146">
        <ele>688.9</ele>
        <time>2019-05-31T08:33:26Z</time>
      </trkpt>
      <trkpt lat="44.39096" lon="5.47151">
        <ele>689.6</ele>
        <time>2019-05-31T08:33:33Z</time>
      </trkpt>
      <trkpt lat="44.39105" lon="5.47154">
        <ele>690.3</ele>
        <time>2019-05-31T08:33:39Z</time>
      </trkpt>
      <trkpt lat="44.39115" lon="5.47158">
        <ele>691.2</ele>
        <time>2019-05-31T08:33:46Z</time>
      </trkpt>
      <trkpt lat="44.39124" lon="5.4716">
        <ele>691.8</ele>
        <time>2019-05-31T08:33:52Z</time>
      </trkpt>
      <trkpt lat="44.39133" lon="5.47162">
        <ele>692.7</ele>
        <time>2019-05-31T08:33:59Z</time>
      </trkpt>
      <trkpt lat="44.39143" lon="5.47164">
        <ele>693.8</ele>
        <time>2019-05-31T08:34:07Z</time>
      </trkpt>
      <trkpt lat="44.39153" lon="5.47163">
        <ele>695.1</ele>
        <time>2019-05-31T08:34:16Z</time>
      </trkpt>
      <trkpt lat="44.39162" lon="5.47162">
        <ele>696.3</ele>
        <time>2019-05-31T08:34:25Z</time>
      </trkpt>
      <trkpt lat="44.39171" lon="5.47159">
        <ele>697.2</ele>
        <time>2019-05-31T08:34:32Z</time>
      </trkpt>
      <trkpt lat="44.3918" lon="5.47155">
        <ele>699.4</ele>
        <time>2019-05-31T08:34:53Z</time>
      </trkpt>
      <trkpt lat="44.39189" lon="5.47152">
        <ele>699.9</ele>
        <time>2019-05-31T08:35:01Z</time>
      </trkpt>
      <trkpt lat="44.39199" lon="5.47151">
        <ele>700.5</ele>
        <time>2019-05-31T08:35:10Z</time>
      </trkpt>
      <trkpt lat="44.39208" lon="5.47145">
        <ele>701.8</ele>
        <time>2019-05-31T08:35:20Z</time>
      </trkpt>
      <trkpt lat="44.39218" lon="5.47143">
        <ele>702.8</ele>
        <time>2019-05-31T08:35:28Z</time>
      </trkpt>
      <trkpt lat="44.39227" lon="5.47142">
        <ele>703.4</ele>
        <time>2019-05-31T08:35:35Z</time>
      </trkpt>
      <trkpt lat="44.39237" lon="5.47141">
        <ele>704.2</ele>
        <time>2019-05-31T08:35:42Z</time>
      </trkpt>
      <trkpt lat="44.39245" lon="5.47137">
        <ele>704.9</ele>
        <time>2019-05-31T08:35:49Z</time>
      </trkpt>
      <trkpt lat="44.39254" lon="5.47131">
        <ele>706.4</ele>
        <time>2019-05-31T08:35:58Z</time>
      </trkpt>
      <trkpt lat="44.39257" lon="5.47118">
        <ele>707.8</ele>
        <time>2019-05-31T08:36:07Z</time>
      </trkpt>
      <trkpt lat="44.39258" lon="5.47105">
        <ele>708.9</ele>
        <time>2019-05-31T08:36:16Z</time>
      </trkpt>
      <trkpt lat="44.39267" lon="5.47104">
        <ele>710.4</ele>
        <time>2019-05-31T08:37:06Z</time>
      </trkpt>
      <trkpt lat="44.39276" lon="5.47107">
        <ele>710.9</ele>
        <time>2019-05-31T08:39:32Z</time>
      </trkpt>
      <trkpt lat="44.39286" lon="5.47106">
        <ele>711.3</ele>
        <time>2019-05-31T08:39:47Z</time>
      </trkpt>
      <trkpt lat="44.39293" lon="5.47114">
        <ele>712.1</ele>
        <time>2019-05-31T08:39:55Z</time>
      </trkpt>
      <trkpt lat="44.39299" lon="5.47125">
        <ele>712.9</ele>
        <time>2019-05-31T08:40:00Z</time>
      </trkpt>
      <trkpt lat="44.39306" lon="5.47134">
        <ele>713.6</ele>
        <time>2019-05-31T08:40:04Z</time>
      </trkpt>
      <trkpt lat="44.39313" lon="5.47144">
        <ele>714.5</ele>
        <time>2019-05-31T08:40:10Z</time>
      </trkpt>
      <trkpt lat="44.3932" lon="5.47152">
        <ele>715.7</ele>
        <time>2019-05-31T08:40:17Z</time>
      </trkpt>
      <trkpt lat="44.39326" lon="5.47163">
        <ele>716.7</ele>
        <time>2019-05-31T08:40:24Z</time>
      </trkpt>
      <trkpt lat="44.39333" lon="5.47173">
        <ele>717.5</ele>
        <time>2019-05-31T08:40:31Z</time>
      </trkpt>
      <trkpt lat="44.3934" lon="5.47184">
        <ele>718</ele>
        <time>2019-05-31T08:40:38Z</time>
      </trkpt>
      <trkpt lat="44.39347" lon="5.47193">
        <ele>718.6</ele>
        <time>2019-05-31T08:40:45Z</time>
      </trkpt>
      <trkpt lat="44.39352" lon="5.47205">
        <ele>718.8</ele>
        <time>2019-05-31T08:40:52Z</time>
      </trkpt>
      <trkpt lat="44.39358" lon="5.47217">
        <ele>719.3</ele>
        <time>2019-05-31T08:40:58Z</time>
      </trkpt>
      <trkpt lat="44.39362" lon="5.47228">
        <ele>719.7</ele>
        <time>2019-05-31T08:41:05Z</time>
      </trkpt>
      <trkpt lat="44.39367" lon="5.4724">
        <ele>720.3</ele>
        <time>2019-05-31T08:41:12Z</time>
      </trkpt>
      <trkpt lat="44.39371" lon="5.47252">
        <ele>720.7</ele>
        <time>2019-05-31T08:41:19Z</time>
      </trkpt>
      <trkpt lat="44.39376" lon="5.47264">
        <ele>721</ele>
        <time>2019-05-31T08:41:27Z</time>
      </trkpt>
      <trkpt lat="44.39381" lon="5.47275">
        <ele>721.3</ele>
        <time>2019-05-31T08:41:34Z</time>
      </trkpt>
      <trkpt lat="44.3939" lon="5.47282">
        <ele>721.8</ele>
        <time>2019-05-31T08:41:40Z</time>
      </trkpt>
      <trkpt lat="44.39399" lon="5.47285">
        <ele>722.6</ele>
        <time>2019-05-31T08:41:46Z</time>
      </trkpt>
      <trkpt lat="44.39409" lon="5.47289">
        <ele>723.2</ele>
        <time>2019-05-31T08:41:53Z</time>
      </trkpt>
      <trkpt lat="44.39418" lon="5.47291">
        <ele>723.8</ele>
        <time>2019-05-31T08:42:00Z</time>
      </trkpt>
      <trkpt lat="44.39428" lon="5.47295">
        <ele>724.8</ele>
        <time>2019-05-31T08:42:08Z</time>
      </trkpt>
      <trkpt lat="44.39438" lon="5.47298">
        <ele>725.3</ele>
        <time>2019-05-31T08:42:14Z</time>
      </trkpt>
      <trkpt lat="44.39447" lon="5.47301">
        <ele>725.5</ele>
        <time>2019-05-31T08:42:20Z</time>
      </trkpt>
      <trkpt lat="44.39457" lon="5.47304">
        <ele>725.9</ele>
        <time>2019-05-31T08:42:27Z</time>
      </trkpt>
      <trkpt lat="44.39466" lon="5.47307">
        <ele>726.3</ele>
        <time>2019-05-31T08:42:34Z</time>
      </trkpt>
      <trkpt lat="44.39476" lon="5.4731">
        <ele>726.5</ele>
        <time>2019-05-31T08:42:41Z</time>
      </trkpt>
      <trkpt lat="44.39486" lon="5.47314">
        <ele>726.6</ele>
        <time>2019-05-31T08:42:48Z</time>
      </trkpt>
      <trkpt lat="44.39496" lon="5.47318">
        <ele>726.9</ele>
        <time>2019-05-31T08:42:55Z</time>
      </trkpt>
      <trkpt lat="44.39506" lon="5.47321">
        <ele>727.1</ele>
        <time>2019-05-31T08:43:02Z</time>
      </trkpt>
      <trkpt lat="44.39516" lon="5.47323">
        <ele>727.4</ele>
        <time>2019-05-31T08:43:07Z</time>
      </trkpt>
      <trkpt lat="44.39525" lon="5.47325">
        <ele>727.7</ele>
        <time>2019-05-31T08:43:13Z</time>
      </trkpt>
      <trkpt lat="44.39535" lon="5.47327">
        <ele>728.5</ele>
        <time>2019-05-31T08:43:20Z</time>
      </trkpt>
      <trkpt lat="44.39544" lon="5.47326">
        <ele>729.9</ele>
        <time>2019-05-31T08:43:27Z</time>
      </trkpt>
      <trkpt lat="44.39553" lon="5.47325">
        <ele>730.3</ele>
        <time>2019-05-31T08:43:34Z</time>
      </trkpt>
      <trkpt lat="44.39563" lon="5.47324">
        <ele>730.6</ele>
        <time>2019-05-31T08:43:39Z</time>
      </trkpt>
      <trkpt lat="44.39573" lon="5.47324">
        <ele>731.1</ele>
        <time>2019-05-31T08:43:44Z</time>
      </trkpt>
      <trkpt lat="44.39582" lon="5.47323">
        <ele>732.2</ele>
        <time>2019-05-31T08:43:50Z</time>
      </trkpt>
      <trkpt lat="44.39592" lon="5.47323">
        <ele>733.4</ele>
        <time>2019-05-31T08:43:57Z</time>
      </trkpt>
      <trkpt lat="44.39602" lon="5.47323">
        <ele>734.1</ele>
        <time>2019-05-31T08:44:02Z</time>
      </trkpt>
      <trkpt lat="44.39612" lon="5.47322">
        <ele>735.1</ele>
        <time>2019-05-31T08:44:08Z</time>
      </trkpt>
      <trkpt lat="44.39621" lon="5.47321">
        <ele>736.5</ele>
        <time>2019-05-31T08:44:15Z</time>
      </trkpt>
      <trkpt lat="44.39631" lon="5.47318">
        <ele>737.8</ele>
        <time>2019-05-31T08:44:22Z</time>
      </trkpt>
      <trkpt lat="44.3964" lon="5.47315">
        <ele>739.4</ele>
        <time>2019-05-31T08:44:29Z</time>
      </trkpt>
      <trkpt lat="44.39649" lon="5.47314">
        <ele>740.6</ele>
        <time>2019-05-31T08:44:35Z</time>
      </trkpt>
      <trkpt lat="44.39659" lon="5.47317">
        <ele>741.9</ele>
        <time>2019-05-31T08:44:42Z</time>
      </trkpt>
      <trkpt lat="44.39668" lon="5.4732">
        <ele>743.4</ele>
        <time>2019-05-31T08:44:49Z</time>
      </trkpt>
      <trkpt lat="44.39677" lon="5.47326">
        <ele>744.8</ele>
        <time>2019-05-31T08:44:57Z</time>
      </trkpt>
      <trkpt lat="44.39681" lon="5.47338">
        <ele>746.1</ele>
        <time>2019-05-31T08:45:05Z</time>
      </trkpt>
      <trkpt lat="44.39682" lon="5.47351">
        <ele>747.3</ele>
        <time>2019-05-31T08:45:12Z</time>
      </trkpt>
      <trkpt lat="44.39679" lon="5.47364">
        <ele>748.3</ele>
        <time>2019-05-31T08:45:19Z</time>
      </trkpt>
      <trkpt lat="44.39677" lon="5.47377">
        <ele>749.4</ele>
        <time>2019-05-31T08:45:26Z</time>
      </trkpt>
      <trkpt lat="44.39676" lon="5.47391">
        <ele>750.6</ele>
        <time>2019-05-31T08:45:33Z</time>
      </trkpt>
      <trkpt lat="44.39677" lon="5.47405">
        <ele>752.1</ele>
        <time>2019-05-31T08:45:40Z</time>
      </trkpt>
      <trkpt lat="44.39681" lon="5.47419">
        <ele>753.2</ele>
        <time>2019-05-31T08:45:47Z</time>
      </trkpt>
      <trkpt lat="44.39687" lon="5.47429">
        <ele>753.9</ele>
        <time>2019-05-31T08:45:53Z</time>
      </trkpt>
      <trkpt lat="44.39696" lon="5.47434">
        <ele>755</ele>
        <time>2019-05-31T08:45:59Z</time>
      </trkpt>
      <trkpt lat="44.39705" lon="5.47439">
        <ele>755.9</ele>
        <time>2019-05-31T08:46:05Z</time>
      </trkpt>
      <trkpt lat="44.39714" lon="5.47446">
        <ele>757</ele>
        <time>2019-05-31T08:46:12Z</time>
      </trkpt>
      <trkpt lat="44.39721" lon="5.47454">
        <ele>757.9</ele>
        <time>2019-05-31T08:46:18Z</time>
      </trkpt>
      <trkpt lat="44.39729" lon="5.47463">
        <ele>759.2</ele>
        <time>2019-05-31T08:46:25Z</time>
      </trkpt>
      <trkpt lat="44.39736" lon="5.47472">
        <ele>760.4</ele>
        <time>2019-05-31T08:46:32Z</time>
      </trkpt>
      <trkpt lat="44.39744" lon="5.47479">
        <ele>761.4</ele>
        <time>2019-05-31T08:46:38Z</time>
      </trkpt>
      <trkpt lat="44.39753" lon="5.4748">
        <ele>762.9</ele>
        <time>2019-05-31T08:46:45Z</time>
      </trkpt>
      <trkpt lat="44.39758" lon="5.47469">
        <ele>764.4</ele>
        <time>2019-05-31T08:46:56Z</time>
      </trkpt>
      <trkpt lat="44.39752" lon="5.47457">
        <ele>765</ele>
        <time>2019-05-31T08:47:02Z</time>
      </trkpt>
      <trkpt lat="44.39746" lon="5.47446">
        <ele>765.8</ele>
        <time>2019-05-31T08:47:09Z</time>
      </trkpt>
      <trkpt lat="44.39741" lon="5.47434">
        <ele>766.6</ele>
        <time>2019-05-31T08:47:16Z</time>
      </trkpt>
      <trkpt lat="44.39741" lon="5.4742">
        <ele>767.8</ele>
        <time>2019-05-31T08:47:22Z</time>
      </trkpt>
      <trkpt lat="44.39743" lon="5.47407">
        <ele>768.8</ele>
        <time>2019-05-31T08:47:29Z</time>
      </trkpt>
      <trkpt lat="44.3975" lon="5.47397">
        <ele>769.4</ele>
        <time>2019-05-31T08:47:36Z</time>
      </trkpt>
      <trkpt lat="44.39757" lon="5.4739">
        <ele>770.4</ele>
        <time>2019-05-31T08:47:43Z</time>
      </trkpt>
      <trkpt lat="44.39767" lon="5.47386">
        <ele>771.3</ele>
        <time>2019-05-31T08:47:49Z</time>
      </trkpt>
      <trkpt lat="44.39776" lon="5.47385">
        <ele>772.1</ele>
        <time>2019-05-31T08:47:55Z</time>
      </trkpt>
      <trkpt lat="44.39785" lon="5.47385">
        <ele>772.8</ele>
        <time>2019-05-31T08:48:01Z</time>
      </trkpt>
      <trkpt lat="44.39796" lon="5.47382">
        <ele>774.1</ele>
        <time>2019-05-31T08:48:08Z</time>
      </trkpt>
      <trkpt lat="44.39805" lon="5.4738">
        <ele>774.9</ele>
        <time>2019-05-31T08:48:14Z</time>
      </trkpt>
      <trkpt lat="44.39814" lon="5.47377">
        <ele>775.7</ele>
        <time>2019-05-31T08:48:21Z</time>
      </trkpt>
      <trkpt lat="44.39824" lon="5.47377">
        <ele>776.4</ele>
        <time>2019-05-31T08:48:27Z</time>
      </trkpt>
      <trkpt lat="44.39833" lon="5.4738">
        <ele>776.9</ele>
        <time>2019-05-31T08:48:33Z</time>
      </trkpt>
      <trkpt lat="44.3984" lon="5.47388">
        <ele>777.6</ele>
        <time>2019-05-31T08:48:40Z</time>
      </trkpt>
      <trkpt lat="44.39847" lon="5.47399">
        <ele>778.2</ele>
        <time>2019-05-31T08:48:47Z</time>
      </trkpt>
      <trkpt lat="44.39853" lon="5.4741">
        <ele>779</ele>
        <time>2019-05-31T08:48:53Z</time>
      </trkpt>
      <trkpt lat="44.39856" lon="5.47423">
        <ele>779.7</ele>
        <time>2019-05-31T08:49:00Z</time>
      </trkpt>
      <trkpt lat="44.39858" lon="5.47436">
        <ele>780.6</ele>
        <time>2019-05-31T08:49:07Z</time>
      </trkpt>
      <trkpt lat="44.39858" lon="5.47449">
        <ele>781.4</ele>
        <time>2019-05-31T08:49:13Z</time>
      </trkpt>
      <trkpt lat="44.39858" lon="5.47462">
        <ele>782.3</ele>
        <time>2019-05-31T08:49:19Z</time>
      </trkpt>
      <trkpt lat="44.39862" lon="5.47475">
        <ele>783.3</ele>
        <time>2019-05-31T08:49:26Z</time>
      </trkpt>
      <trkpt lat="44.39868" lon="5.47485">
        <ele>784.1</ele>
        <time>2019-05-31T08:49:33Z</time>
      </trkpt>
      <trkpt lat="44.39877" lon="5.4749">
        <ele>784.9</ele>
        <time>2019-05-31T08:49:40Z</time>
      </trkpt>
      <trkpt lat="44.39886" lon="5.47493">
        <ele>785.6</ele>
        <time>2019-05-31T08:49:45Z</time>
      </trkpt>
      <trkpt lat="44.39896" lon="5.47499">
        <ele>786.6</ele>
        <time>2019-05-31T08:49:52Z</time>
      </trkpt>
      <trkpt lat="44.39904" lon="5.47506">
        <ele>787.7</ele>
        <time>2019-05-31T08:49:59Z</time>
      </trkpt>
      <trkpt lat="44.39913" lon="5.47514">
        <ele>788.7</ele>
        <time>2019-05-31T08:50:06Z</time>
      </trkpt>
      <trkpt lat="44.39922" lon="5.47521">
        <ele>789.6</ele>
        <time>2019-05-31T08:50:13Z</time>
      </trkpt>
      <trkpt lat="44.39931" lon="5.47527">
        <ele>790.6</ele>
        <time>2019-05-31T08:50:20Z</time>
      </trkpt>
      <trkpt lat="44.3994" lon="5.47528">
        <ele>791.5</ele>
        <time>2019-05-31T08:50:27Z</time>
      </trkpt>
      <trkpt lat="44.39948" lon="5.47519">
        <ele>792.6</ele>
        <time>2019-05-31T08:50:35Z</time>
      </trkpt>
      <trkpt lat="44.39946" lon="5.47506">
        <ele>793.4</ele>
        <time>2019-05-31T08:50:43Z</time>
      </trkpt>
      <trkpt lat="44.39939" lon="5.47497">
        <ele>794.5</ele>
        <time>2019-05-31T08:50:50Z</time>
      </trkpt>
      <trkpt lat="44.39931" lon="5.4749">
        <ele>795.5</ele>
        <time>2019-05-31T08:50:57Z</time>
      </trkpt>
      <trkpt lat="44.39923" lon="5.47482">
        <ele>796.3</ele>
        <time>2019-05-31T08:51:04Z</time>
      </trkpt>
      <trkpt lat="44.39916" lon="5.47473">
        <ele>796.9</ele>
        <time>2019-05-31T08:51:11Z</time>
      </trkpt>
      <trkpt lat="44.3991" lon="5.47462">
        <ele>797.7</ele>
        <time>2019-05-31T08:51:19Z</time>
      </trkpt>
      <trkpt lat="44.39911" lon="5.47448">
        <ele>798.5</ele>
        <time>2019-05-31T08:51:26Z</time>
      </trkpt>
      <trkpt lat="44.39915" lon="5.47435">
        <ele>799.4</ele>
        <time>2019-05-31T08:51:34Z</time>
      </trkpt>
      <trkpt lat="44.3992" lon="5.47424">
        <ele>800.1</ele>
        <time>2019-05-31T08:51:41Z</time>
      </trkpt>
      <trkpt lat="44.39926" lon="5.47413">
        <ele>800.8</ele>
        <time>2019-05-31T08:51:48Z</time>
      </trkpt>
      <trkpt lat="44.39931" lon="5.47402">
        <ele>801.4</ele>
        <time>2019-05-31T08:51:55Z</time>
      </trkpt>
      <trkpt lat="44.39937" lon="5.4739">
        <ele>802.6</ele>
        <time>2019-05-31T08:52:03Z</time>
      </trkpt>
      <trkpt lat="44.39942" lon="5.47378">
        <ele>803.7</ele>
        <time>2019-05-31T08:52:12Z</time>
      </trkpt>
      <trkpt lat="44.3995" lon="5.47371">
        <ele>804.9</ele>
        <time>2019-05-31T08:52:19Z</time>
      </trkpt>
      <trkpt lat="44.39959" lon="5.47363">
        <ele>805.9</ele>
        <time>2019-05-31T08:52:27Z</time>
      </trkpt>
      <trkpt lat="44.39966" lon="5.47355">
        <ele>806.7</ele>
        <time>2019-05-31T08:52:34Z</time>
      </trkpt>
      <trkpt lat="44.39975" lon="5.47355">
        <ele>807.7</ele>
        <time>2019-05-31T08:52:42Z</time>
      </trkpt>
      <trkpt lat="44.39975" lon="5.47368">
        <ele>808.6</ele>
        <time>2019-05-31T08:52:48Z</time>
      </trkpt>
      <trkpt lat="44.39967" lon="5.47377">
        <ele>809.3</ele>
        <time>2019-05-31T08:52:54Z</time>
      </trkpt>
      <trkpt lat="44.3996" lon="5.47387">
        <ele>810.3</ele>
        <time>2019-05-31T08:53:01Z</time>
      </trkpt>
      <trkpt lat="44.39958" lon="5.47399">
        <ele>811.2</ele>
        <time>2019-05-31T08:53:08Z</time>
      </trkpt>
      <trkpt lat="44.39962" lon="5.47412">
        <ele>812</ele>
        <time>2019-05-31T08:53:15Z</time>
      </trkpt>
      <trkpt lat="44.39971" lon="5.47416">
        <ele>812.7</ele>
        <time>2019-05-31T08:53:22Z</time>
      </trkpt>
      <trkpt lat="44.3998" lon="5.47416">
        <ele>813.8</ele>
        <time>2019-05-31T08:53:29Z</time>
      </trkpt>
      <trkpt lat="44.39988" lon="5.4741">
        <ele>816.3</ele>
        <time>2019-05-31T08:53:58Z</time>
      </trkpt>
      <trkpt lat="44.39998" lon="5.47407">
        <ele>816.8</ele>
        <time>2019-05-31T08:55:30Z</time>
      </trkpt>
      <trkpt lat="44.40009" lon="5.47406">
        <ele>817.3</ele>
        <time>2019-05-31T08:55:38Z</time>
      </trkpt>
      <trkpt lat="44.40018" lon="5.47406">
        <ele>818</ele>
        <time>2019-05-31T08:55:45Z</time>
      </trkpt>
      <trkpt lat="44.40027" lon="5.47409">
        <ele>818.7</ele>
        <time>2019-05-31T08:55:52Z</time>
      </trkpt>
      <trkpt lat="44.40037" lon="5.47412">
        <ele>819.3</ele>
        <time>2019-05-31T08:55:59Z</time>
      </trkpt>
      <trkpt lat="44.40047" lon="5.47414">
        <ele>820.4</ele>
        <time>2019-05-31T08:56:06Z</time>
      </trkpt>
      <trkpt lat="44.40056" lon="5.47414">
        <ele>821.2</ele>
        <time>2019-05-31T08:56:12Z</time>
      </trkpt>
      <trkpt lat="44.40066" lon="5.47414">
        <ele>822.3</ele>
        <time>2019-05-31T08:56:19Z</time>
      </trkpt>
      <trkpt lat="44.40076" lon="5.47416">
        <ele>823.1</ele>
        <time>2019-05-31T08:56:26Z</time>
      </trkpt>
      <trkpt lat="44.40085" lon="5.47419">
        <ele>823.8</ele>
        <time>2019-05-31T08:56:33Z</time>
      </trkpt>
      <trkpt lat="44.40094" lon="5.47423">
        <ele>824.7</ele>
        <time>2019-05-31T08:56:40Z</time>
      </trkpt>
      <trkpt lat="44.40104" lon="5.47427">
        <ele>825.5</ele>
        <time>2019-05-31T08:56:47Z</time>
      </trkpt>
      <trkpt lat="44.40113" lon="5.47433">
        <ele>826.1</ele>
        <time>2019-05-31T08:56:54Z</time>
      </trkpt>
      <trkpt lat="44.4012" lon="5.47443">
        <ele>827</ele>
        <time>2019-05-31T08:57:01Z</time>
      </trkpt>
      <trkpt lat="44.40124" lon="5.47456">
        <ele>827.9</ele>
        <time>2019-05-31T08:57:09Z</time>
      </trkpt>
      <trkpt lat="44.40123" lon="5.47469">
        <ele>828.6</ele>
        <time>2019-05-31T08:57:17Z</time>
      </trkpt>
      <trkpt lat="44.4012" lon="5.47483">
        <ele>829.2</ele>
        <time>2019-05-31T08:57:24Z</time>
      </trkpt>
      <trkpt lat="44.40119" lon="5.47496">
        <ele>830</ele>
        <time>2019-05-31T08:57:32Z</time>
      </trkpt>
      <trkpt lat="44.40122" lon="5.47508">
        <ele>830.4</ele>
        <time>2019-05-31T08:57:39Z</time>
      </trkpt>
      <trkpt lat="44.40129" lon="5.47518">
        <ele>830.8</ele>
        <time>2019-05-31T08:57:47Z</time>
      </trkpt>
      <trkpt lat="44.40136" lon="5.47527">
        <ele>831.2</ele>
        <time>2019-05-31T08:57:53Z</time>
      </trkpt>
      <trkpt lat="44.40145" lon="5.47534">
        <ele>832</ele>
        <time>2019-05-31T08:58:00Z</time>
      </trkpt>
      <trkpt lat="44.40153" lon="5.47541">
        <ele>833</ele>
        <time>2019-05-31T08:58:07Z</time>
      </trkpt>
      <trkpt lat="44.40161" lon="5.47549">
        <ele>833.8</ele>
        <time>2019-05-31T08:58:14Z</time>
      </trkpt>
      <trkpt lat="44.40171" lon="5.47556">
        <ele>834.7</ele>
        <time>2019-05-31T08:58:21Z</time>
      </trkpt>
      <trkpt lat="44.40179" lon="5.47561">
        <ele>835.7</ele>
        <time>2019-05-31T08:58:28Z</time>
      </trkpt>
      <trkpt lat="44.40188" lon="5.47567">
        <ele>836.5</ele>
        <time>2019-05-31T08:58:36Z</time>
      </trkpt>
      <trkpt lat="44.40197" lon="5.47573">
        <ele>837.4</ele>
        <time>2019-05-31T08:58:43Z</time>
      </trkpt>
      <trkpt lat="44.40205" lon="5.47578">
        <ele>838.3</ele>
        <time>2019-05-31T08:58:50Z</time>
      </trkpt>
      <trkpt lat="44.40214" lon="5.47582">
        <ele>839.2</ele>
        <time>2019-05-31T08:58:57Z</time>
      </trkpt>
      <trkpt lat="44.40223" lon="5.47587">
        <ele>840.2</ele>
        <time>2019-05-31T08:59:04Z</time>
      </trkpt>
      <trkpt lat="44.40233" lon="5.4759">
        <ele>841</ele>
        <time>2019-05-31T08:59:10Z</time>
      </trkpt>
      <trkpt lat="44.40243" lon="5.47594">
        <ele>842</ele>
        <time>2019-05-31T08:59:17Z</time>
      </trkpt>
      <trkpt lat="44.40252" lon="5.47598">
        <ele>842.8</ele>
        <time>2019-05-31T08:59:23Z</time>
      </trkpt>
      <trkpt lat="44.40261" lon="5.47601">
        <ele>843.8</ele>
        <time>2019-05-31T08:59:30Z</time>
      </trkpt>
      <trkpt lat="44.40271" lon="5.47605">
        <ele>844.9</ele>
        <time>2019-05-31T08:59:37Z</time>
      </trkpt>
      <trkpt lat="44.4028" lon="5.47609">
        <ele>845.7</ele>
        <time>2019-05-31T08:59:44Z</time>
      </trkpt>
      <trkpt lat="44.40289" lon="5.47614">
        <ele>846.6</ele>
        <time>2019-05-31T08:59:51Z</time>
      </trkpt>
      <trkpt lat="44.40299" lon="5.47618">
        <ele>847.5</ele>
        <time>2019-05-31T08:59:58Z</time>
      </trkpt>
      <trkpt lat="44.40308" lon="5.47621">
        <ele>848.1</ele>
        <time>2019-05-31T09:00:05Z</time>
      </trkpt>
      <trkpt lat="44.40317" lon="5.47624">
        <ele>848.6</ele>
        <time>2019-05-31T09:00:11Z</time>
      </trkpt>
      <trkpt lat="44.40326" lon="5.47626">
        <ele>849.5</ele>
        <time>2019-05-31T09:00:18Z</time>
      </trkpt>
      <trkpt lat="44.40336" lon="5.47627">
        <ele>850.3</ele>
        <time>2019-05-31T09:00:25Z</time>
      </trkpt>
      <trkpt lat="44.40344" lon="5.47631">
        <ele>851</ele>
        <time>2019-05-31T09:00:32Z</time>
      </trkpt>
      <trkpt lat="44.40353" lon="5.47638">
        <ele>851.6</ele>
        <time>2019-05-31T09:00:39Z</time>
      </trkpt>
      <trkpt lat="44.40362" lon="5.47645">
        <ele>852.1</ele>
        <time>2019-05-31T09:00:46Z</time>
      </trkpt>
      <trkpt lat="44.40371" lon="5.47648">
        <ele>852.6</ele>
        <time>2019-05-31T09:00:53Z</time>
      </trkpt>
      <trkpt lat="44.4038" lon="5.47653">
        <ele>853</ele>
        <time>2019-05-31T09:01:00Z</time>
      </trkpt>
      <trkpt lat="44.40389" lon="5.47656">
        <ele>853.9</ele>
        <time>2019-05-31T09:01:09Z</time>
      </trkpt>
      <trkpt lat="44.40399" lon="5.4766">
        <ele>854.7</ele>
        <time>2019-05-31T09:01:16Z</time>
      </trkpt>
      <trkpt lat="44.40408" lon="5.47663">
        <ele>855.2</ele>
        <time>2019-05-31T09:01:23Z</time>
      </trkpt>
      <trkpt lat="44.40418" lon="5.47666">
        <ele>855.9</ele>
        <time>2019-05-31T09:01:29Z</time>
      </trkpt>
      <trkpt lat="44.40427" lon="5.47671">
        <ele>856.7</ele>
        <time>2019-05-31T09:01:37Z</time>
      </trkpt>
      <trkpt lat="44.40435" lon="5.47678">
        <ele>857.3</ele>
        <time>2019-05-31T09:01:44Z</time>
      </trkpt>
      <trkpt lat="44.40441" lon="5.47688">
        <ele>857.9</ele>
        <time>2019-05-31T09:01:50Z</time>
      </trkpt>
      <trkpt lat="44.40449" lon="5.47697">
        <ele>858.6</ele>
        <time>2019-05-31T09:01:56Z</time>
      </trkpt>
      <trkpt lat="44.40459" lon="5.47702">
        <ele>859.4</ele>
        <time>2019-05-31T09:02:04Z</time>
      </trkpt>
      <trkpt lat="44.40469" lon="5.47701">
        <ele>859.9</ele>
        <time>2019-05-31T09:02:10Z</time>
      </trkpt>
      <trkpt lat="44.40479" lon="5.47702">
        <ele>860.6</ele>
        <time>2019-05-31T09:02:17Z</time>
      </trkpt>
      <trkpt lat="44.40488" lon="5.47702">
        <ele>861.3</ele>
        <time>2019-05-31T09:02:23Z</time>
      </trkpt>
      <trkpt lat="44.40497" lon="5.47702">
        <ele>862.3</ele>
        <time>2019-05-31T09:02:29Z</time>
      </trkpt>
      <trkpt lat="44.40507" lon="5.47704">
        <ele>863.1</ele>
        <time>2019-05-31T09:02:36Z</time>
      </trkpt>
      <trkpt lat="44.40518" lon="5.47704">
        <ele>864</ele>
        <time>2019-05-31T09:02:43Z</time>
      </trkpt>
      <trkpt lat="44.40528" lon="5.47703">
        <ele>864.7</ele>
        <time>2019-05-31T09:02:49Z</time>
      </trkpt>
      <trkpt lat="44.40537" lon="5.47698">
        <ele>865.3</ele>
        <time>2019-05-31T09:02:55Z</time>
      </trkpt>
      <trkpt lat="44.40547" lon="5.47692">
        <ele>866</ele>
        <time>2019-05-31T09:03:02Z</time>
      </trkpt>
      <trkpt lat="44.40557" lon="5.4769">
        <ele>866.4</ele>
        <time>2019-05-31T09:03:09Z</time>
      </trkpt>
      <trkpt lat="44.40567" lon="5.47688">
        <ele>866.9</ele>
        <time>2019-05-31T09:03:16Z</time>
      </trkpt>
      <trkpt lat="44.40576" lon="5.47685">
        <ele>867.7</ele>
        <time>2019-05-31T09:03:24Z</time>
      </trkpt>
      <trkpt lat="44.40587" lon="5.47684">
        <ele>868.5</ele>
        <time>2019-05-31T09:03:32Z</time>
      </trkpt>
      <trkpt lat="44.40597" lon="5.47683">
        <ele>869.3</ele>
        <time>2019-05-31T09:03:39Z</time>
      </trkpt>
      <trkpt lat="44.40606" lon="5.47686">
        <ele>870.5</ele>
        <time>2019-05-31T09:03:46Z</time>
      </trkpt>
      <trkpt lat="44.40615" lon="5.47691">
        <ele>871.3</ele>
        <time>2019-05-31T09:03:53Z</time>
      </trkpt>
      <trkpt lat="44.40623" lon="5.47698">
        <ele>872</ele>
        <time>2019-05-31T09:04:00Z</time>
      </trkpt>
      <trkpt lat="44.40632" lon="5.47704">
        <ele>873.3</ele>
        <time>2019-05-31T09:04:08Z</time>
      </trkpt>
      <trkpt lat="44.40641" lon="5.47706">
        <ele>874.3</ele>
        <time>2019-05-31T09:04:15Z</time>
      </trkpt>
      <trkpt lat="44.4065" lon="5.47709">
        <ele>875.2</ele>
        <time>2019-05-31T09:04:22Z</time>
      </trkpt>
      <trkpt lat="44.40659" lon="5.47712">
        <ele>876.3</ele>
        <time>2019-05-31T09:04:30Z</time>
      </trkpt>
      <trkpt lat="44.40668" lon="5.47716">
        <ele>877.4</ele>
        <time>2019-05-31T09:04:39Z</time>
      </trkpt>
      <trkpt lat="44.40677" lon="5.47721">
        <ele>878.1</ele>
        <time>2019-05-31T09:04:47Z</time>
      </trkpt>
      <trkpt lat="44.40686" lon="5.47724">
        <ele>879.3</ele>
        <time>2019-05-31T09:04:55Z</time>
      </trkpt>
      <trkpt lat="44.40696" lon="5.47729">
        <ele>880.2</ele>
        <time>2019-05-31T09:05:03Z</time>
      </trkpt>
      <trkpt lat="44.40705" lon="5.47732">
        <ele>881.6</ele>
        <time>2019-05-31T09:05:12Z</time>
      </trkpt>
      <trkpt lat="44.40712" lon="5.4774">
        <ele>883</ele>
        <time>2019-05-31T09:05:21Z</time>
      </trkpt>
      <trkpt lat="44.40718" lon="5.4775">
        <ele>884.5</ele>
        <time>2019-05-31T09:05:29Z</time>
      </trkpt>
      <trkpt lat="44.40723" lon="5.4776">
        <ele>885.4</ele>
        <time>2019-05-31T09:05:36Z</time>
      </trkpt>
      <trkpt lat="44.4073" lon="5.4777">
        <ele>886.1</ele>
        <time>2019-05-31T09:05:42Z</time>
      </trkpt>
      <trkpt lat="44.40736" lon="5.47779">
        <ele>886.6</ele>
        <time>2019-05-31T09:05:48Z</time>
      </trkpt>
      <trkpt lat="44.40744" lon="5.47789">
        <ele>887.5</ele>
        <time>2019-05-31T09:05:55Z</time>
      </trkpt>
      <trkpt lat="44.40751" lon="5.47799">
        <ele>888.5</ele>
        <time>2019-05-31T09:06:02Z</time>
      </trkpt>
      <trkpt lat="44.40758" lon="5.4781">
        <ele>889.3</ele>
        <time>2019-05-31T09:06:09Z</time>
      </trkpt>
      <trkpt lat="44.40764" lon="5.4782">
        <ele>890.6</ele>
        <time>2019-05-31T09:06:16Z</time>
      </trkpt>
      <trkpt lat="44.4077" lon="5.47831">
        <ele>891.5</ele>
        <time>2019-05-31T09:06:23Z</time>
      </trkpt>
      <trkpt lat="44.40775" lon="5.47843">
        <ele>892.5</ele>
        <time>2019-05-31T09:06:30Z</time>
      </trkpt>
      <trkpt lat="44.4078" lon="5.47854">
        <ele>893.4</ele>
        <time>2019-05-31T09:06:37Z</time>
      </trkpt>
      <trkpt lat="44.40784" lon="5.47866">
        <ele>894.1</ele>
        <time>2019-05-31T09:06:44Z</time>
      </trkpt>
      <trkpt lat="44.40789" lon="5.47878">
        <ele>895</ele>
        <time>2019-05-31T09:06:51Z</time>
      </trkpt>
      <trkpt lat="44.40794" lon="5.4789">
        <ele>896.3</ele>
        <time>2019-05-31T09:06:59Z</time>
      </trkpt>
      <trkpt lat="44.408" lon="5.479">
        <ele>897</ele>
        <time>2019-05-31T09:07:06Z</time>
      </trkpt>
      <trkpt lat="44.40806" lon="5.4791">
        <ele>898.1</ele>
        <time>2019-05-31T09:07:13Z</time>
      </trkpt>
      <trkpt lat="44.40811" lon="5.47922">
        <ele>899</ele>
        <time>2019-05-31T09:07:20Z</time>
      </trkpt>
      <trkpt lat="44.40818" lon="5.47932">
        <ele>900.6</ele>
        <time>2019-05-31T09:07:28Z</time>
      </trkpt>
      <trkpt lat="44.40827" lon="5.47934">
        <ele>901.6</ele>
        <time>2019-05-31T09:07:36Z</time>
      </trkpt>
      <trkpt lat="44.40829" lon="5.47921">
        <ele>902.4</ele>
        <time>2019-05-31T09:07:44Z</time>
      </trkpt>
      <trkpt lat="44.40826" lon="5.47909">
        <ele>903.4</ele>
        <time>2019-05-31T09:07:52Z</time>
      </trkpt>
      <trkpt lat="44.40823" lon="5.47897">
        <ele>904.4</ele>
        <time>2019-05-31T09:07:59Z</time>
      </trkpt>
      <trkpt lat="44.4082" lon="5.47884">
        <ele>905.2</ele>
        <time>2019-05-31T09:08:06Z</time>
      </trkpt>
      <trkpt lat="44.40818" lon="5.47871">
        <ele>906.1</ele>
        <time>2019-05-31T09:08:13Z</time>
      </trkpt>
      <trkpt lat="44.40817" lon="5.47859">
        <ele>906.8</ele>
        <time>2019-05-31T09:08:20Z</time>
      </trkpt>
      <trkpt lat="44.40816" lon="5.47846">
        <ele>907.5</ele>
        <time>2019-05-31T09:08:26Z</time>
      </trkpt>
      <trkpt lat="44.40816" lon="5.47832">
        <ele>908.3</ele>
        <time>2019-05-31T09:08:33Z</time>
      </trkpt>
      <trkpt lat="44.40816" lon="5.47819">
        <ele>909.8</ele>
        <time>2019-05-31T09:08:40Z</time>
      </trkpt>
      <trkpt lat="44.40816" lon="5.47805">
        <ele>910.7</ele>
        <time>2019-05-31T09:08:47Z</time>
      </trkpt>
      <trkpt lat="44.40817" lon="5.47791">
        <ele>911.5</ele>
        <time>2019-05-31T09:08:54Z</time>
      </trkpt>
      <trkpt lat="44.40818" lon="5.47777">
        <ele>912.3</ele>
        <time>2019-05-31T09:09:01Z</time>
      </trkpt>
      <trkpt lat="44.40817" lon="5.47762">
        <ele>913.1</ele>
        <time>2019-05-31T09:09:08Z</time>
      </trkpt>
      <trkpt lat="44.40815" lon="5.47748">
        <ele>913.7</ele>
        <time>2019-05-31T09:09:12Z</time>
      </trkpt>
      <trkpt lat="44.40813" lon="5.47735">
        <ele>914.4</ele>
        <time>2019-05-31T09:09:18Z</time>
      </trkpt>
      <trkpt lat="44.40812" lon="5.47722">
        <ele>915.5</ele>
        <time>2019-05-31T09:09:25Z</time>
      </trkpt>
      <trkpt lat="44.40813" lon="5.47709">
        <ele>916.5</ele>
        <time>2019-05-31T09:09:32Z</time>
      </trkpt>
      <trkpt lat="44.40817" lon="5.47697">
        <ele>917.4</ele>
        <time>2019-05-31T09:09:39Z</time>
      </trkpt>
      <trkpt lat="44.40826" lon="5.47691">
        <ele>918.4</ele>
        <time>2019-05-31T09:09:47Z</time>
      </trkpt>
      <trkpt lat="44.40835" lon="5.47693">
        <ele>919.3</ele>
        <time>2019-05-31T09:09:54Z</time>
      </trkpt>
      <trkpt lat="44.40844" lon="5.47702">
        <ele>920.1</ele>
        <time>2019-05-31T09:10:01Z</time>
      </trkpt>
      <trkpt lat="44.40847" lon="5.47715">
        <ele>920.5</ele>
        <time>2019-05-31T09:10:05Z</time>
      </trkpt>
      <trkpt lat="44.4085" lon="5.47728">
        <ele>921.4</ele>
        <time>2019-05-31T09:10:11Z</time>
      </trkpt>
      <trkpt lat="44.40852" lon="5.4774">
        <ele>922</ele>
        <time>2019-05-31T09:10:17Z</time>
      </trkpt>
      <trkpt lat="44.40855" lon="5.47754">
        <ele>922.7</ele>
        <time>2019-05-31T09:10:24Z</time>
      </trkpt>
      <trkpt lat="44.40857" lon="5.47767">
        <ele>923.3</ele>
        <time>2019-05-31T09:10:31Z</time>
      </trkpt>
      <trkpt lat="44.4086" lon="5.47781">
        <ele>923.8</ele>
        <time>2019-05-31T09:10:38Z</time>
      </trkpt>
      <trkpt lat="44.40861" lon="5.47794">
        <ele>924.5</ele>
        <time>2019-05-31T09:10:45Z</time>
      </trkpt>
      <trkpt lat="44.40863" lon="5.47808">
        <ele>925.5</ele>
        <time>2019-05-31T09:10:52Z</time>
      </trkpt>
      <trkpt lat="44.40866" lon="5.47821">
        <ele>926.4</ele>
        <time>2019-05-31T09:10:59Z</time>
      </trkpt>
      <trkpt lat="44.40871" lon="5.47832">
        <ele>927</ele>
        <time>2019-05-31T09:11:06Z</time>
      </trkpt>
      <trkpt lat="44.4088" lon="5.47838">
        <ele>927.5</ele>
        <time>2019-05-31T09:11:13Z</time>
      </trkpt>
      <trkpt lat="44.40889" lon="5.47841">
        <ele>928.3</ele>
        <time>2019-05-31T09:11:20Z</time>
      </trkpt>
      <trkpt lat="44.40899" lon="5.47845">
        <ele>929.2</ele>
        <time>2019-05-31T09:11:28Z</time>
      </trkpt>
      <trkpt lat="44.40908" lon="5.47848">
        <ele>930</ele>
        <time>2019-05-31T09:11:35Z</time>
      </trkpt>
      <trkpt lat="44.40916" lon="5.47854">
        <ele>931.2</ele>
        <time>2019-05-31T09:11:42Z</time>
      </trkpt>
      <trkpt lat="44.40924" lon="5.47861">
        <ele>932</ele>
        <time>2019-05-31T09:11:49Z</time>
      </trkpt>
      <trkpt lat="44.40932" lon="5.47867">
        <ele>932.5</ele>
        <time>2019-05-31T09:11:57Z</time>
      </trkpt>
      <trkpt lat="44.4094" lon="5.47874">
        <ele>932.8</ele>
        <time>2019-05-31T09:12:05Z</time>
      </trkpt>
      <trkpt lat="44.40948" lon="5.47883">
        <ele>933.3</ele>
        <time>2019-05-31T09:12:14Z</time>
      </trkpt>
      <trkpt lat="44.40954" lon="5.47894">
        <ele>933.7</ele>
        <time>2019-05-31T09:12:22Z</time>
      </trkpt>
      <trkpt lat="44.4096" lon="5.47904">
        <ele>934.1</ele>
        <time>2019-05-31T09:12:29Z</time>
      </trkpt>
      <trkpt lat="44.40965" lon="5.47917">
        <ele>934.4</ele>
        <time>2019-05-31T09:12:38Z</time>
      </trkpt>
      <trkpt lat="44.40969" lon="5.47929">
        <ele>934.7</ele>
        <time>2019-05-31T09:12:45Z</time>
      </trkpt>
      <trkpt lat="44.40969" lon="5.47943">
        <ele>935.4</ele>
        <time>2019-05-31T09:12:52Z</time>
      </trkpt>
      <trkpt lat="44.4097" lon="5.47958">
        <ele>936.1</ele>
        <time>2019-05-31T09:12:59Z</time>
      </trkpt>
      <trkpt lat="44.4097" lon="5.47972">
        <ele>936.7</ele>
        <time>2019-05-31T09:13:06Z</time>
      </trkpt>
      <trkpt lat="44.4097" lon="5.47985">
        <ele>937.1</ele>
        <time>2019-05-31T09:13:13Z</time>
      </trkpt>
      <trkpt lat="44.4097" lon="5.47999">
        <ele>937.5</ele>
        <time>2019-05-31T09:13:21Z</time>
      </trkpt>
      <trkpt lat="44.40974" lon="5.48012">
        <ele>937.9</ele>
        <time>2019-05-31T09:13:27Z</time>
      </trkpt>
      <trkpt lat="44.40977" lon="5.48025">
        <ele>938.4</ele>
        <time>2019-05-31T09:13:34Z</time>
      </trkpt>
      <trkpt lat="44.40982" lon="5.48037">
        <ele>939.1</ele>
        <time>2019-05-31T09:13:41Z</time>
      </trkpt>
      <trkpt lat="44.40988" lon="5.48047">
        <ele>939.7</ele>
        <time>2019-05-31T09:13:46Z</time>
      </trkpt>
      <trkpt lat="44.40993" lon="5.48058">
        <ele>940.4</ele>
        <time>2019-05-31T09:13:53Z</time>
      </trkpt>
      <trkpt lat="44.40998" lon="5.48069">
        <ele>941.1</ele>
        <time>2019-05-31T09:13:59Z</time>
      </trkpt>
      <trkpt lat="44.41003" lon="5.48081">
        <ele>942</ele>
        <time>2019-05-31T09:14:06Z</time>
      </trkpt>
      <trkpt lat="44.41008" lon="5.48093">
        <ele>943</ele>
        <time>2019-05-31T09:14:14Z</time>
      </trkpt>
      <trkpt lat="44.41012" lon="5.48105">
        <ele>944</ele>
        <time>2019-05-31T09:14:21Z</time>
      </trkpt>
      <trkpt lat="44.41018" lon="5.48115">
        <ele>944.6</ele>
        <time>2019-05-31T09:14:27Z</time>
      </trkpt>
      <trkpt lat="44.41026" lon="5.48125">
        <ele>945.8</ele>
        <time>2019-05-31T09:14:34Z</time>
      </trkpt>
      <trkpt lat="44.41032" lon="5.48135">
        <ele>946.6</ele>
        <time>2019-05-31T09:14:41Z</time>
      </trkpt>
      <trkpt lat="44.41039" lon="5.48145">
        <ele>948</ele>
        <time>2019-05-31T09:14:48Z</time>
      </trkpt>
      <trkpt lat="44.41045" lon="5.48155">
        <ele>948.6</ele>
        <time>2019-05-31T09:14:53Z</time>
      </trkpt>
      <trkpt lat="44.41052" lon="5.48164">
        <ele>949.6</ele>
        <time>2019-05-31T09:15:00Z</time>
      </trkpt>
      <trkpt lat="44.41058" lon="5.48173">
        <ele>950.6</ele>
        <time>2019-05-31T09:15:08Z</time>
      </trkpt>
      <trkpt lat="44.41064" lon="5.48184">
        <ele>951.4</ele>
        <time>2019-05-31T09:15:15Z</time>
      </trkpt>
      <trkpt lat="44.41071" lon="5.48192">
        <ele>952.4</ele>
        <time>2019-05-31T09:15:22Z</time>
      </trkpt>
      <trkpt lat="44.41076" lon="5.4818">
        <ele>953.9</ele>
        <time>2019-05-31T09:15:33Z</time>
      </trkpt>
      <trkpt lat="44.41075" lon="5.48168">
        <ele>954.8</ele>
        <time>2019-05-31T09:15:44Z</time>
      </trkpt>
      <trkpt lat="44.41072" lon="5.48155">
        <ele>955.9</ele>
        <time>2019-05-31T09:15:55Z</time>
      </trkpt>
      <trkpt lat="44.41073" lon="5.48142">
        <ele>956.7</ele>
        <time>2019-05-31T09:16:05Z</time>
      </trkpt>
      <trkpt lat="44.41075" lon="5.48128">
        <ele>957.2</ele>
        <time>2019-05-31T09:16:13Z</time>
      </trkpt>
      <trkpt lat="44.41077" lon="5.48115">
        <ele>957.9</ele>
        <time>2019-05-31T09:16:21Z</time>
      </trkpt>
      <trkpt lat="44.41079" lon="5.48102">
        <ele>958.4</ele>
        <time>2019-05-31T09:16:28Z</time>
      </trkpt>
      <trkpt lat="44.4108" lon="5.48089">
        <ele>959</ele>
        <time>2019-05-31T09:16:35Z</time>
      </trkpt>
      <trkpt lat="44.4108" lon="5.48076">
        <ele>960.2</ele>
        <time>2019-05-31T09:16:43Z</time>
      </trkpt>
      <trkpt lat="44.4108" lon="5.48063">
        <ele>961.4</ele>
        <time>2019-05-31T09:16:50Z</time>
      </trkpt>
      <trkpt lat="44.41079" lon="5.48049">
        <ele>962.7</ele>
        <time>2019-05-31T09:16:59Z</time>
      </trkpt>
      <trkpt lat="44.41079" lon="5.48035">
        <ele>963.7</ele>
        <time>2019-05-31T09:17:06Z</time>
      </trkpt>
      <trkpt lat="44.41077" lon="5.48022">
        <ele>964.5</ele>
        <time>2019-05-31T09:17:13Z</time>
      </trkpt>
      <trkpt lat="44.41075" lon="5.48008">
        <ele>965.7</ele>
        <time>2019-05-31T09:17:20Z</time>
      </trkpt>
      <trkpt lat="44.41074" lon="5.47995">
        <ele>966.8</ele>
        <time>2019-05-31T09:17:28Z</time>
      </trkpt>
      <trkpt lat="44.41072" lon="5.47981">
        <ele>968.2</ele>
        <time>2019-05-31T09:17:36Z</time>
      </trkpt>
      <trkpt lat="44.4107" lon="5.47967">
        <ele>969.2</ele>
        <time>2019-05-31T09:17:43Z</time>
      </trkpt>
      <trkpt lat="44.41067" lon="5.47955">
        <ele>970.1</ele>
        <time>2019-05-31T09:17:49Z</time>
      </trkpt>
      <trkpt lat="44.41065" lon="5.47942">
        <ele>971.1</ele>
        <time>2019-05-31T09:17:57Z</time>
      </trkpt>
      <trkpt lat="44.41061" lon="5.47928">
        <ele>972.3</ele>
        <time>2019-05-31T09:18:07Z</time>
      </trkpt>
      <trkpt lat="44.41055" lon="5.47917">
        <ele>973.5</ele>
        <time>2019-05-31T09:18:15Z</time>
      </trkpt>
      <trkpt lat="44.4105" lon="5.47905">
        <ele>974.3</ele>
        <time>2019-05-31T09:18:23Z</time>
      </trkpt>
      <trkpt lat="44.41045" lon="5.47894">
        <ele>975.2</ele>
        <time>2019-05-31T09:18:30Z</time>
      </trkpt>
      <trkpt lat="44.41042" lon="5.47879">
        <ele>976</ele>
        <time>2019-05-31T09:18:37Z</time>
      </trkpt>
      <trkpt lat="44.41041" lon="5.47866">
        <ele>976.5</ele>
        <time>2019-05-31T09:18:43Z</time>
      </trkpt>
      <trkpt lat="44.41039" lon="5.47854">
        <ele>977</ele>
        <time>2019-05-31T09:18:50Z</time>
      </trkpt>
      <trkpt lat="44.41037" lon="5.47841">
        <ele>977.6</ele>
        <time>2019-05-31T09:18:57Z</time>
      </trkpt>
      <trkpt lat="44.41034" lon="5.47828">
        <ele>978.5</ele>
        <time>2019-05-31T09:19:05Z</time>
      </trkpt>
      <trkpt lat="44.41032" lon="5.47815">
        <ele>979.4</ele>
        <time>2019-05-31T09:19:12Z</time>
      </trkpt>
      <trkpt lat="44.41029" lon="5.47802">
        <ele>980.1</ele>
        <time>2019-05-31T09:19:19Z</time>
      </trkpt>
      <trkpt lat="44.41027" lon="5.47788">
        <ele>980.8</ele>
        <time>2019-05-31T09:19:26Z</time>
      </trkpt>
      <trkpt lat="44.41024" lon="5.47776">
        <ele>981.3</ele>
        <time>2019-05-31T09:19:33Z</time>
      </trkpt>
      <trkpt lat="44.41021" lon="5.47763">
        <ele>982.1</ele>
        <time>2019-05-31T09:19:41Z</time>
      </trkpt>
      <trkpt lat="44.41019" lon="5.4775">
        <ele>982.9</ele>
        <time>2019-05-31T09:19:51Z</time>
      </trkpt>
      <trkpt lat="44.41017" lon="5.47737">
        <ele>984.2</ele>
        <time>2019-05-31T09:19:58Z</time>
      </trkpt>
      <trkpt lat="44.41014" lon="5.47724">
        <ele>984.9</ele>
        <time>2019-05-31T09:20:03Z</time>
      </trkpt>
      <trkpt lat="44.41013" lon="5.47711">
        <ele>985.8</ele>
        <time>2019-05-31T09:20:09Z</time>
      </trkpt>
      <trkpt lat="44.41014" lon="5.47697">
        <ele>986.8</ele>
        <time>2019-05-31T09:20:15Z</time>
      </trkpt>
      <trkpt lat="44.41018" lon="5.47687">
        <ele>988.1</ele>
        <time>2019-05-31T09:20:24Z</time>
      </trkpt>
      <trkpt lat="44.41027" lon="5.47691">
        <ele>989.3</ele>
        <time>2019-05-31T09:20:33Z</time>
      </trkpt>
      <trkpt lat="44.41032" lon="5.47703">
        <ele>990.4</ele>
        <time>2019-05-31T09:20:41Z</time>
      </trkpt>
      <trkpt lat="44.41038" lon="5.47713">
        <ele>991.3</ele>
        <time>2019-05-31T09:20:50Z</time>
      </trkpt>
      <trkpt lat="44.41045" lon="5.47722">
        <ele>992.4</ele>
        <time>2019-05-31T09:20:58Z</time>
      </trkpt>
      <trkpt lat="44.41053" lon="5.4773">
        <ele>993.4</ele>
        <time>2019-05-31T09:21:07Z</time>
      </trkpt>
      <trkpt lat="44.41062" lon="5.47738">
        <ele>994</ele>
        <time>2019-05-31T09:21:15Z</time>
      </trkpt>
      <trkpt lat="44.4107" lon="5.47745">
        <ele>994.6</ele>
        <time>2019-05-31T09:21:22Z</time>
      </trkpt>
      <trkpt lat="44.41078" lon="5.47753">
        <ele>995.6</ele>
        <time>2019-05-31T09:21:29Z</time>
      </trkpt>
      <trkpt lat="44.41084" lon="5.47763">
        <ele>996.7</ele>
        <time>2019-05-31T09:21:38Z</time>
      </trkpt>
      <trkpt lat="44.41092" lon="5.47772">
        <ele>997.4</ele>
        <time>2019-05-31T09:21:45Z</time>
      </trkpt>
      <trkpt lat="44.411" lon="5.4778">
        <ele>997.9</ele>
        <time>2019-05-31T09:21:51Z</time>
      </trkpt>
      <trkpt lat="44.41107" lon="5.4779">
        <ele>998.6</ele>
        <time>2019-05-31T09:21:58Z</time>
      </trkpt>
      <trkpt lat="44.41114" lon="5.478">
        <ele>999.6</ele>
        <time>2019-05-31T09:22:05Z</time>
      </trkpt>
      <trkpt lat="44.41122" lon="5.47809">
        <ele>1000.8</ele>
        <time>2019-05-31T09:22:12Z</time>
      </trkpt>
      <trkpt lat="44.41128" lon="5.47819">
        <ele>1001.6</ele>
        <time>2019-05-31T09:22:18Z</time>
      </trkpt>
      <trkpt lat="44.41134" lon="5.47829">
        <ele>1002.4</ele>
        <time>2019-05-31T09:22:25Z</time>
      </trkpt>
      <trkpt lat="44.4114" lon="5.47839">
        <ele>1003.4</ele>
        <time>2019-05-31T09:22:33Z</time>
      </trkpt>
      <trkpt lat="44.41146" lon="5.4785">
        <ele>1004.1</ele>
        <time>2019-05-31T09:22:39Z</time>
      </trkpt>
      <trkpt lat="44.4115" lon="5.47861">
        <ele>1005</ele>
        <time>2019-05-31T09:22:46Z</time>
      </trkpt>
      <trkpt lat="44.41156" lon="5.47873">
        <ele>1005.6</ele>
        <time>2019-05-31T09:22:54Z</time>
      </trkpt>
      <trkpt lat="44.4116" lon="5.47884">
        <ele>1006.4</ele>
        <time>2019-05-31T09:23:01Z</time>
      </trkpt>
      <trkpt lat="44.41165" lon="5.47895">
        <ele>1007.2</ele>
        <time>2019-05-31T09:23:08Z</time>
      </trkpt>
      <trkpt lat="44.41171" lon="5.47906">
        <ele>1007.9</ele>
        <time>2019-05-31T09:23:15Z</time>
      </trkpt>
      <trkpt lat="44.41177" lon="5.47917">
        <ele>1009.1</ele>
        <time>2019-05-31T09:23:23Z</time>
      </trkpt>
      <trkpt lat="44.41184" lon="5.47928">
        <ele>1009.7</ele>
        <time>2019-05-31T09:23:30Z</time>
      </trkpt>
      <trkpt lat="44.4119" lon="5.47938">
        <ele>1010.3</ele>
        <time>2019-05-31T09:23:38Z</time>
      </trkpt>
      <trkpt lat="44.41195" lon="5.4795">
        <ele>1011.6</ele>
        <time>2019-05-31T09:23:48Z</time>
      </trkpt>
      <trkpt lat="44.412" lon="5.4796">
        <ele>1012.7</ele>
        <time>2019-05-31T09:23:56Z</time>
      </trkpt>
      <trkpt lat="44.41206" lon="5.4797">
        <ele>1013.7</ele>
        <time>2019-05-31T09:24:05Z</time>
      </trkpt>
      <trkpt lat="44.4121" lon="5.47982">
        <ele>1014.5</ele>
        <time>2019-05-31T09:24:14Z</time>
      </trkpt>
      <trkpt lat="44.41215" lon="5.47994">
        <ele>1015.3</ele>
        <time>2019-05-31T09:24:24Z</time>
      </trkpt>
      <trkpt lat="44.41221" lon="5.48005">
        <ele>1016.2</ele>
        <time>2019-05-31T09:24:32Z</time>
      </trkpt>
      <trkpt lat="44.41226" lon="5.48017">
        <ele>1017.4</ele>
        <time>2019-05-31T09:24:40Z</time>
      </trkpt>
      <trkpt lat="44.41231" lon="5.48029">
        <ele>1018.5</ele>
        <time>2019-05-31T09:24:48Z</time>
      </trkpt>
      <trkpt lat="44.41235" lon="5.48041">
        <ele>1019.6</ele>
        <time>2019-05-31T09:24:58Z</time>
      </trkpt>
      <trkpt lat="44.41239" lon="5.48053">
        <ele>1020.3</ele>
        <time>2019-05-31T09:25:07Z</time>
      </trkpt>
      <trkpt lat="44.41243" lon="5.48065">
        <ele>1021.1</ele>
        <time>2019-05-31T09:25:15Z</time>
      </trkpt>
      <trkpt lat="44.41247" lon="5.48077">
        <ele>1021.8</ele>
        <time>2019-05-31T09:25:23Z</time>
      </trkpt>
      <trkpt lat="44.41251" lon="5.48089">
        <ele>1022.7</ele>
        <time>2019-05-31T09:25:30Z</time>
      </trkpt>
      <trkpt lat="44.41254" lon="5.48102">
        <ele>1023.7</ele>
        <time>2019-05-31T09:25:38Z</time>
      </trkpt>
      <trkpt lat="44.41258" lon="5.48115">
        <ele>1024.4</ele>
        <time>2019-05-31T09:25:45Z</time>
      </trkpt>
      <trkpt lat="44.4126" lon="5.48128">
        <ele>1025.2</ele>
        <time>2019-05-31T09:25:51Z</time>
      </trkpt>
      <trkpt lat="44.41263" lon="5.4814">
        <ele>1025.8</ele>
        <time>2019-05-31T09:25:57Z</time>
      </trkpt>
      <trkpt lat="44.41267" lon="5.48152">
        <ele>1026.7</ele>
        <time>2019-05-31T09:26:04Z</time>
      </trkpt>
      <trkpt lat="44.41272" lon="5.48164">
        <ele>1027.8</ele>
        <time>2019-05-31T09:26:11Z</time>
      </trkpt>
      <trkpt lat="44.41275" lon="5.48176">
        <ele>1028.7</ele>
        <time>2019-05-31T09:26:19Z</time>
      </trkpt>
      <trkpt lat="44.41278" lon="5.48188">
        <ele>1029.3</ele>
        <time>2019-05-31T09:26:27Z</time>
      </trkpt>
      <trkpt lat="44.41282" lon="5.482">
        <ele>1030.5</ele>
        <time>2019-05-31T09:26:34Z</time>
      </trkpt>
      <trkpt lat="44.41287" lon="5.4821">
        <ele>1031.8</ele>
        <time>2019-05-31T09:26:41Z</time>
      </trkpt>
      <trkpt lat="44.41293" lon="5.4822">
        <ele>1032.8</ele>
        <time>2019-05-31T09:26:48Z</time>
      </trkpt>
      <trkpt lat="44.413" lon="5.4823">
        <ele>1033.4</ele>
        <time>2019-05-31T09:26:55Z</time>
      </trkpt>
      <trkpt lat="44.41307" lon="5.48239">
        <ele>1034</ele>
        <time>2019-05-31T09:27:03Z</time>
      </trkpt>
      <trkpt lat="44.41314" lon="5.48248">
        <ele>1034.9</ele>
        <time>2019-05-31T09:27:10Z</time>
      </trkpt>
      <trkpt lat="44.41321" lon="5.48257">
        <ele>1035.7</ele>
        <time>2019-05-31T09:27:17Z</time>
      </trkpt>
      <trkpt lat="44.41329" lon="5.48267">
        <ele>1036.7</ele>
        <time>2019-05-31T09:27:24Z</time>
      </trkpt>
      <trkpt lat="44.41336" lon="5.48278">
        <ele>1037.5</ele>
        <time>2019-05-31T09:27:31Z</time>
      </trkpt>
      <trkpt lat="44.41343" lon="5.48286">
        <ele>1038</ele>
        <time>2019-05-31T09:27:37Z</time>
      </trkpt>
      <trkpt lat="44.4135" lon="5.48295">
        <ele>1038.7</ele>
        <time>2019-05-31T09:27:44Z</time>
      </trkpt>
      <trkpt lat="44.41358" lon="5.48303">
        <ele>1039.2</ele>
        <time>2019-05-31T09:27:51Z</time>
      </trkpt>
      <trkpt lat="44.41366" lon="5.48312">
        <ele>1039.6</ele>
        <time>2019-05-31T09:27:58Z</time>
      </trkpt>
      <trkpt lat="44.41374" lon="5.48321">
        <ele>1040</ele>
        <time>2019-05-31T09:28:05Z</time>
      </trkpt>
      <trkpt lat="44.4138" lon="5.4833">
        <ele>1040.7</ele>
        <time>2019-05-31T09:28:12Z</time>
      </trkpt>
      <trkpt lat="44.41387" lon="5.48339">
        <ele>1041.3</ele>
        <time>2019-05-31T09:28:19Z</time>
      </trkpt>
      <trkpt lat="44.41393" lon="5.48348">
        <ele>1042</ele>
        <time>2019-05-31T09:28:26Z</time>
      </trkpt>
      <trkpt lat="44.414" lon="5.48359">
        <ele>1043</ele>
        <time>2019-05-31T09:28:34Z</time>
      </trkpt>
      <trkpt lat="44.41407" lon="5.48368">
        <ele>1043.7</ele>
        <time>2019-05-31T09:28:40Z</time>
      </trkpt>
      <trkpt lat="44.41412" lon="5.48379">
        <ele>1044.6</ele>
        <time>2019-05-31T09:28:47Z</time>
      </trkpt>
      <trkpt lat="44.41418" lon="5.4839">
        <ele>1045.4</ele>
        <time>2019-05-31T09:28:54Z</time>
      </trkpt>
      <trkpt lat="44.41423" lon="5.48401">
        <ele>1046.1</ele>
        <time>2019-05-31T09:29:01Z</time>
      </trkpt>
      <trkpt lat="44.4143" lon="5.48412">
        <ele>1046.8</ele>
        <time>2019-05-31T09:29:08Z</time>
      </trkpt>
      <trkpt lat="44.41437" lon="5.48421">
        <ele>1047.5</ele>
        <time>2019-05-31T09:29:15Z</time>
      </trkpt>
      <trkpt lat="44.41445" lon="5.4843">
        <ele>1048.4</ele>
        <time>2019-05-31T09:29:22Z</time>
      </trkpt>
      <trkpt lat="44.41452" lon="5.48438">
        <ele>1049.5</ele>
        <time>2019-05-31T09:29:29Z</time>
      </trkpt>
      <trkpt lat="44.4146" lon="5.48447">
        <ele>1050.5</ele>
        <time>2019-05-31T09:29:36Z</time>
      </trkpt>
      <trkpt lat="44.41468" lon="5.48454">
        <ele>1051.6</ele>
        <time>2019-05-31T09:29:43Z</time>
      </trkpt>
      <trkpt lat="44.41477" lon="5.48458">
        <ele>1052.5</ele>
        <time>2019-05-31T09:29:50Z</time>
      </trkpt>
      <trkpt lat="44.41486" lon="5.48457">
        <ele>1053.7</ele>
        <time>2019-05-31T09:29:57Z</time>
      </trkpt>
      <trkpt lat="44.41496" lon="5.48454">
        <ele>1054.7</ele>
        <time>2019-05-31T09:30:04Z</time>
      </trkpt>
      <trkpt lat="44.41505" lon="5.48453">
        <ele>1055.5</ele>
        <time>2019-05-31T09:30:11Z</time>
      </trkpt>
      <trkpt lat="44.41515" lon="5.48455">
        <ele>1056.7</ele>
        <time>2019-05-31T09:30:19Z</time>
      </trkpt>
      <trkpt lat="44.41525" lon="5.48456">
        <ele>1057.4</ele>
        <time>2019-05-31T09:30:27Z</time>
      </trkpt>
      <trkpt lat="44.41534" lon="5.48459">
        <ele>1058.1</ele>
        <time>2019-05-31T09:30:34Z</time>
      </trkpt>
      <trkpt lat="44.41542" lon="5.48465">
        <ele>1058.6</ele>
        <time>2019-05-31T09:30:41Z</time>
      </trkpt>
      <trkpt lat="44.41549" lon="5.48474">
        <ele>1059.4</ele>
        <time>2019-05-31T09:30:47Z</time>
      </trkpt>
      <trkpt lat="44.41554" lon="5.48486">
        <ele>1060.8</ele>
        <time>2019-05-31T09:30:55Z</time>
      </trkpt>
      <trkpt lat="44.41559" lon="5.48496">
        <ele>1061.7</ele>
        <time>2019-05-31T09:31:02Z</time>
      </trkpt>
      <trkpt lat="44.41566" lon="5.48506">
        <ele>1062.5</ele>
        <time>2019-05-31T09:31:10Z</time>
      </trkpt>
      <trkpt lat="44.41573" lon="5.48516">
        <ele>1063.2</ele>
        <time>2019-05-31T09:31:17Z</time>
      </trkpt>
      <trkpt lat="44.4158" lon="5.48525">
        <ele>1063.9</ele>
        <time>2019-05-31T09:31:24Z</time>
      </trkpt>
      <trkpt lat="44.41585" lon="5.48537">
        <ele>1064.9</ele>
        <time>2019-05-31T09:31:33Z</time>
      </trkpt>
      <trkpt lat="44.41585" lon="5.4855">
        <ele>1065.4</ele>
        <time>2019-05-31T09:31:40Z</time>
      </trkpt>
      <trkpt lat="44.4158" lon="5.4856">
        <ele>1066.6</ele>
        <time>2019-05-31T09:31:48Z</time>
      </trkpt>
      <trkpt lat="44.41573" lon="5.48569">
        <ele>1067.5</ele>
        <time>2019-05-31T09:31:57Z</time>
      </trkpt>
      <trkpt lat="44.41567" lon="5.48581">
        <ele>1068.5</ele>
        <time>2019-05-31T09:32:07Z</time>
      </trkpt>
      <trkpt lat="44.41563" lon="5.48594">
        <ele>1069.2</ele>
        <time>2019-05-31T09:32:15Z</time>
      </trkpt>
      <trkpt lat="44.41561" lon="5.48607">
        <ele>1070.1</ele>
        <time>2019-05-31T09:32:22Z</time>
      </trkpt>
      <trkpt lat="44.41557" lon="5.4862">
        <ele>1070.8</ele>
        <time>2019-05-31T09:32:29Z</time>
      </trkpt>
      <trkpt lat="44.41551" lon="5.4863">
        <ele>1071.4</ele>
        <time>2019-05-31T09:32:35Z</time>
      </trkpt>
      <trkpt lat="44.41544" lon="5.48639">
        <ele>1072</ele>
        <time>2019-05-31T09:32:41Z</time>
      </trkpt>
      <trkpt lat="44.41536" lon="5.48647">
        <ele>1072.6</ele>
        <time>2019-05-31T09:32:48Z</time>
      </trkpt>
      <trkpt lat="44.41529" lon="5.48656">
        <ele>1073.3</ele>
        <time>2019-05-31T09:32:55Z</time>
      </trkpt>
      <trkpt lat="44.41521" lon="5.48665">
        <ele>1073.9</ele>
        <time>2019-05-31T09:33:03Z</time>
      </trkpt>
      <trkpt lat="44.41514" lon="5.48674">
        <ele>1074.5</ele>
        <time>2019-05-31T09:33:11Z</time>
      </trkpt>
      <trkpt lat="44.41507" lon="5.48684">
        <ele>1075.5</ele>
        <time>2019-05-31T09:33:19Z</time>
      </trkpt>
      <trkpt lat="44.41502" lon="5.48696">
        <ele>1076.3</ele>
        <time>2019-05-31T09:33:26Z</time>
      </trkpt>
      <trkpt lat="44.41501" lon="5.4871">
        <ele>1077</ele>
        <time>2019-05-31T09:33:32Z</time>
      </trkpt>
      <trkpt lat="44.41498" lon="5.48725">
        <ele>1077.7</ele>
        <time>2019-05-31T09:33:38Z</time>
      </trkpt>
      <trkpt lat="44.41496" lon="5.48738">
        <ele>1078</ele>
        <time>2019-05-31T09:33:44Z</time>
      </trkpt>
      <trkpt lat="44.41505" lon="5.48742">
        <ele>1078.8</ele>
        <time>2019-05-31T09:33:58Z</time>
      </trkpt>
      <trkpt lat="44.41514" lon="5.48745">
        <ele>1078.9</ele>
        <time>2019-05-31T09:34:05Z</time>
      </trkpt>
      <trkpt lat="44.41523" lon="5.48749">
        <ele>1078.6</ele>
        <time>2019-05-31T09:34:13Z</time>
      </trkpt>
      <trkpt lat="44.41532" lon="5.48753">
        <ele>1077.9</ele>
        <time>2019-05-31T09:34:22Z</time>
      </trkpt>
      <trkpt lat="44.41542" lon="5.48755">
        <ele>1077.4</ele>
        <time>2019-05-31T09:34:31Z</time>
      </trkpt>
      <trkpt lat="44.41552" lon="5.48752">
        <ele>1076.2</ele>
        <time>2019-05-31T09:34:44Z</time>
      </trkpt>
      <trkpt lat="44.41562" lon="5.48751">
        <ele>1075.2</ele>
        <time>2019-05-31T09:34:52Z</time>
      </trkpt>
      <trkpt lat="44.41572" lon="5.48753">
        <ele>1074.3</ele>
        <time>2019-05-31T09:34:59Z</time>
      </trkpt>
      <trkpt lat="44.41581" lon="5.48757">
        <ele>1073.5</ele>
        <time>2019-05-31T09:35:05Z</time>
      </trkpt>
      <trkpt lat="44.4159" lon="5.48762">
        <ele>1073</ele>
        <time>2019-05-31T09:35:10Z</time>
      </trkpt>
      <trkpt lat="44.41598" lon="5.48771">
        <ele>1072.6</ele>
        <time>2019-05-31T09:35:16Z</time>
      </trkpt>
      <trkpt lat="44.41605" lon="5.4878">
        <ele>1071.9</ele>
        <time>2019-05-31T09:35:22Z</time>
      </trkpt>
      <trkpt lat="44.4161" lon="5.48791">
        <ele>1071.4</ele>
        <time>2019-05-31T09:35:28Z</time>
      </trkpt>
      <trkpt lat="44.41616" lon="5.48802">
        <ele>1070.8</ele>
        <time>2019-05-31T09:35:35Z</time>
      </trkpt>
      <trkpt lat="44.41623" lon="5.48812">
        <ele>1069.9</ele>
        <time>2019-05-31T09:35:42Z</time>
      </trkpt>
      <trkpt lat="44.41629" lon="5.48822">
        <ele>1069.2</ele>
        <time>2019-05-31T09:35:49Z</time>
      </trkpt>
      <trkpt lat="44.41633" lon="5.48834">
        <ele>1068.1</ele>
        <time>2019-05-31T09:35:55Z</time>
      </trkpt>
      <trkpt lat="44.41638" lon="5.48846">
        <ele>1067.2</ele>
        <time>2019-05-31T09:36:01Z</time>
      </trkpt>
      <trkpt lat="44.41642" lon="5.48858">
        <ele>1066.6</ele>
        <time>2019-05-31T09:36:07Z</time>
      </trkpt>
      <trkpt lat="44.41648" lon="5.48869">
        <ele>1065.9</ele>
        <time>2019-05-31T09:36:13Z</time>
      </trkpt>
      <trkpt lat="44.41654" lon="5.48878">
        <ele>1065.2</ele>
        <time>2019-05-31T09:36:19Z</time>
      </trkpt>
      <trkpt lat="44.41661" lon="5.4889">
        <ele>1064.4</ele>
        <time>2019-05-31T09:36:26Z</time>
      </trkpt>
      <trkpt lat="44.41667" lon="5.48899">
        <ele>1063.7</ele>
        <time>2019-05-31T09:36:33Z</time>
      </trkpt>
      <trkpt lat="44.41674" lon="5.48909">
        <ele>1063.2</ele>
        <time>2019-05-31T09:36:40Z</time>
      </trkpt>
      <trkpt lat="44.41681" lon="5.48919">
        <ele>1062.5</ele>
        <time>2019-05-31T09:36:48Z</time>
      </trkpt>
      <trkpt lat="44.41688" lon="5.48928">
        <ele>1061.7</ele>
        <time>2019-05-31T09:36:55Z</time>
      </trkpt>
      <trkpt lat="44.41695" lon="5.48937">
        <ele>1061</ele>
        <time>2019-05-31T09:37:02Z</time>
      </trkpt>
      <trkpt lat="44.41702" lon="5.48944">
        <ele>1060.6</ele>
        <time>2019-05-31T09:37:09Z</time>
      </trkpt>
      <trkpt lat="44.41709" lon="5.48952">
        <ele>1060</ele>
        <time>2019-05-31T09:37:16Z</time>
      </trkpt>
      <trkpt lat="44.41718" lon="5.4896">
        <ele>1059</ele>
        <time>2019-05-31T09:37:24Z</time>
      </trkpt>
      <trkpt lat="44.41727" lon="5.48964">
        <ele>1058.2</ele>
        <time>2019-05-31T09:37:31Z</time>
      </trkpt>
      <trkpt lat="44.41736" lon="5.48965">
        <ele>1057.6</ele>
        <time>2019-05-31T09:37:38Z</time>
      </trkpt>
      <trkpt lat="44.41747" lon="5.48962">
        <ele>1057.2</ele>
        <time>2019-05-31T09:37:45Z</time>
      </trkpt>
      <trkpt lat="44.41757" lon="5.48961">
        <ele>1057</ele>
        <time>2019-05-31T09:37:52Z</time>
      </trkpt>
      <trkpt lat="44.41766" lon="5.48965">
        <ele>1056.8</ele>
        <time>2019-05-31T09:38:00Z</time>
      </trkpt>
      <trkpt lat="44.41772" lon="5.48976">
        <ele>1055.7</ele>
        <time>2019-05-31T09:38:08Z</time>
      </trkpt>
      <trkpt lat="44.41777" lon="5.48989">
        <ele>1055.1</ele>
        <time>2019-05-31T09:38:16Z</time>
      </trkpt>
      <trkpt lat="44.4178" lon="5.49001">
        <ele>1054.4</ele>
        <time>2019-05-31T09:38:23Z</time>
      </trkpt>
      <trkpt lat="44.41783" lon="5.49015">
        <ele>1053.5</ele>
        <time>2019-05-31T09:38:30Z</time>
      </trkpt>
      <trkpt lat="44.41785" lon="5.49027">
        <ele>1052.9</ele>
        <time>2019-05-31T09:38:36Z</time>
      </trkpt>
      <trkpt lat="44.41789" lon="5.49039">
        <ele>1052.5</ele>
        <time>2019-05-31T09:38:42Z</time>
      </trkpt>
      <trkpt lat="44.41792" lon="5.49051">
        <ele>1051.9</ele>
        <time>2019-05-31T09:38:48Z</time>
      </trkpt>
      <trkpt lat="44.41793" lon="5.49066">
        <ele>1051.4</ele>
        <time>2019-05-31T09:38:55Z</time>
      </trkpt>
      <trkpt lat="44.41791" lon="5.49079">
        <ele>1050.5</ele>
        <time>2019-05-31T09:39:02Z</time>
      </trkpt>
      <trkpt lat="44.41792" lon="5.49093">
        <ele>1049.3</ele>
        <time>2019-05-31T09:39:09Z</time>
      </trkpt>
      <trkpt lat="44.41798" lon="5.49106">
        <ele>1048.1</ele>
        <time>2019-05-31T09:39:16Z</time>
      </trkpt>
      <trkpt lat="44.41803" lon="5.49117">
        <ele>1046.9</ele>
        <time>2019-05-31T09:39:22Z</time>
      </trkpt>
      <trkpt lat="44.4181" lon="5.49128">
        <ele>1045.6</ele>
        <time>2019-05-31T09:39:29Z</time>
      </trkpt>
      <trkpt lat="44.41816" lon="5.49139">
        <ele>1044.6</ele>
        <time>2019-05-31T09:39:36Z</time>
      </trkpt>
      <trkpt lat="44.41822" lon="5.49151">
        <ele>1044</ele>
        <time>2019-05-31T09:39:43Z</time>
      </trkpt>
      <trkpt lat="44.41828" lon="5.49163">
        <ele>1042.9</ele>
        <time>2019-05-31T09:39:50Z</time>
      </trkpt>
      <trkpt lat="44.41833" lon="5.49174">
        <ele>1042.1</ele>
        <time>2019-05-31T09:39:56Z</time>
      </trkpt>
      <trkpt lat="44.41839" lon="5.49184">
        <ele>1041.3</ele>
        <time>2019-05-31T09:40:02Z</time>
      </trkpt>
      <trkpt lat="44.41844" lon="5.49194">
        <ele>1040.6</ele>
        <time>2019-05-31T09:40:08Z</time>
      </trkpt>
      <trkpt lat="44.41851" lon="5.49206">
        <ele>1039.7</ele>
        <time>2019-05-31T09:40:15Z</time>
      </trkpt>
      <trkpt lat="44.41857" lon="5.49217">
        <ele>1038.7</ele>
        <time>2019-05-31T09:40:22Z</time>
      </trkpt>
      <trkpt lat="44.41863" lon="5.49227">
        <ele>1038.1</ele>
        <time>2019-05-31T09:40:29Z</time>
      </trkpt>
      <trkpt lat="44.41871" lon="5.49235">
        <ele>1037.5</ele>
        <time>2019-05-31T09:40:37Z</time>
      </trkpt>
      <trkpt lat="44.4188" lon="5.49242">
        <ele>1037.1</ele>
        <time>2019-05-31T09:40:45Z</time>
      </trkpt>
      <trkpt lat="44.41889" lon="5.49247">
        <ele>1036.8</ele>
        <time>2019-05-31T09:40:52Z</time>
      </trkpt>
      <trkpt lat="44.41898" lon="5.4925">
        <ele>1036.6</ele>
        <time>2019-05-31T09:41:01Z</time>
      </trkpt>
      <trkpt lat="44.41907" lon="5.49252">
        <ele>1036</ele>
        <time>2019-05-31T09:41:57Z</time>
      </trkpt>
      <trkpt lat="44.41916" lon="5.49254">
        <ele>1035.7</ele>
        <time>2019-05-31T09:42:18Z</time>
      </trkpt>
      <trkpt lat="44.41925" lon="5.49256">
        <ele>1035.4</ele>
        <time>2019-05-31T09:42:25Z</time>
      </trkpt>
      <trkpt lat="44.41935" lon="5.49257">
        <ele>1035.2</ele>
        <time>2019-05-31T09:42:32Z</time>
      </trkpt>
      <trkpt lat="44.41946" lon="5.49258">
        <ele>1034.7</ele>
        <time>2019-05-31T09:42:39Z</time>
      </trkpt>
      <trkpt lat="44.41955" lon="5.49259">
        <ele>1034.3</ele>
        <time>2019-05-31T09:42:45Z</time>
      </trkpt>
      <trkpt lat="44.41965" lon="5.49258">
        <ele>1034</ele>
        <time>2019-05-31T09:42:52Z</time>
      </trkpt>
      <trkpt lat="44.41975" lon="5.49258">
        <ele>1033.8</ele>
        <time>2019-05-31T09:42:58Z</time>
      </trkpt>
      <trkpt lat="44.41985" lon="5.49257">
        <ele>1033.3</ele>
        <time>2019-05-31T09:43:05Z</time>
      </trkpt>
      <trkpt lat="44.41994" lon="5.49257">
        <ele>1032.7</ele>
        <time>2019-05-31T09:43:11Z</time>
      </trkpt>
      <trkpt lat="44.42004" lon="5.49255">
        <ele>1032.1</ele>
        <time>2019-05-31T09:43:17Z</time>
      </trkpt>
      <trkpt lat="44.42013" lon="5.49254">
        <ele>1031.6</ele>
        <time>2019-05-31T09:43:23Z</time>
      </trkpt>
      <trkpt lat="44.42023" lon="5.49254">
        <ele>1031.2</ele>
        <time>2019-05-31T09:43:29Z</time>
      </trkpt>
      <trkpt lat="44.42033" lon="5.49255">
        <ele>1030.7</ele>
        <time>2019-05-31T09:43:36Z</time>
      </trkpt>
      <trkpt lat="44.42043" lon="5.49255">
        <ele>1030.4</ele>
        <time>2019-05-31T09:43:42Z</time>
      </trkpt>
      <trkpt lat="44.42052" lon="5.49255">
        <ele>1030</ele>
        <time>2019-05-31T09:43:48Z</time>
      </trkpt>
      <trkpt lat="44.42062" lon="5.49257">
        <ele>1029.8</ele>
        <time>2019-05-31T09:43:55Z</time>
      </trkpt>
      <trkpt lat="44.42072" lon="5.49259">
        <ele>1029.6</ele>
        <time>2019-05-31T09:44:02Z</time>
      </trkpt>
      <trkpt lat="44.42082" lon="5.4926">
        <ele>1029.5</ele>
        <time>2019-05-31T09:44:09Z</time>
      </trkpt>
      <trkpt lat="44.42092" lon="5.49259">
        <ele>1029.4</ele>
        <time>2019-05-31T09:44:16Z</time>
      </trkpt>
      <trkpt lat="44.42102" lon="5.49261">
        <ele>1029.4</ele>
        <time>2019-05-31T09:44:23Z</time>
      </trkpt>
      <trkpt lat="44.42113" lon="5.49262">
        <ele>1029.4</ele>
        <time>2019-05-31T09:44:30Z</time>
      </trkpt>
      <trkpt lat="44.42122" lon="5.49264">
        <ele>1029.2</ele>
        <time>2019-05-31T09:44:36Z</time>
      </trkpt>
      <trkpt lat="44.42132" lon="5.49267">
        <ele>1029.1</ele>
        <time>2019-05-31T09:44:43Z</time>
      </trkpt>
      <trkpt lat="44.4214" lon="5.49275">
        <ele>1029</ele>
        <time>2019-05-31T09:44:50Z</time>
      </trkpt>
      <trkpt lat="44.42143" lon="5.49287">
        <ele>1028.8</ele>
        <time>2019-05-31T09:44:57Z</time>
      </trkpt>
      <trkpt lat="44.4214" lon="5.493">
        <ele>1028.5</ele>
        <time>2019-05-31T09:45:04Z</time>
      </trkpt>
      <trkpt lat="44.42138" lon="5.49313">
        <ele>1028.2</ele>
        <time>2019-05-31T09:45:11Z</time>
      </trkpt>
      <trkpt lat="44.42136" lon="5.49326">
        <ele>1027.8</ele>
        <time>2019-05-31T09:45:18Z</time>
      </trkpt>
      <trkpt lat="44.42134" lon="5.49339">
        <ele>1027.7</ele>
        <time>2019-05-31T09:45:25Z</time>
      </trkpt>
      <trkpt lat="44.42132" lon="5.49353">
        <ele>1027.4</ele>
        <time>2019-05-31T09:45:32Z</time>
      </trkpt>
      <trkpt lat="44.42133" lon="5.49368">
        <ele>1026.6</ele>
        <time>2019-05-31T09:45:39Z</time>
      </trkpt>
      <trkpt lat="44.42135" lon="5.49382">
        <ele>1025.9</ele>
        <time>2019-05-31T09:45:46Z</time>
      </trkpt>
      <trkpt lat="44.42136" lon="5.49395">
        <ele>1025.4</ele>
        <time>2019-05-31T09:45:53Z</time>
      </trkpt>
      <trkpt lat="44.42137" lon="5.49408">
        <ele>1025.1</ele>
        <time>2019-05-31T09:46:00Z</time>
      </trkpt>
      <trkpt lat="44.4214" lon="5.49422">
        <ele>1024.7</ele>
        <time>2019-05-31T09:46:07Z</time>
      </trkpt>
      <trkpt lat="44.42142" lon="5.49435">
        <ele>1024.1</ele>
        <time>2019-05-31T09:46:14Z</time>
      </trkpt>
      <trkpt lat="44.42139" lon="5.49449">
        <ele>1023.6</ele>
        <time>2019-05-31T09:46:21Z</time>
      </trkpt>
      <trkpt lat="44.42134" lon="5.4946">
        <ele>1023.2</ele>
        <time>2019-05-31T09:46:27Z</time>
      </trkpt>
      <trkpt lat="44.42128" lon="5.49469">
        <ele>1022.8</ele>
        <time>2019-05-31T09:46:33Z</time>
      </trkpt>
      <trkpt lat="44.42121" lon="5.49479">
        <ele>1022.4</ele>
        <time>2019-05-31T09:46:40Z</time>
      </trkpt>
      <trkpt lat="44.42115" lon="5.49488">
        <ele>1021.7</ele>
        <time>2019-05-31T09:46:46Z</time>
      </trkpt>
      <trkpt lat="44.42107" lon="5.49496">
        <ele>1021</ele>
        <time>2019-05-31T09:46:52Z</time>
      </trkpt>
      <trkpt lat="44.421" lon="5.49505">
        <ele>1020.3</ele>
        <time>2019-05-31T09:46:58Z</time>
      </trkpt>
      <trkpt lat="44.42093" lon="5.49514">
        <ele>1019.9</ele>
        <time>2019-05-31T09:47:04Z</time>
      </trkpt>
      <trkpt lat="44.42087" lon="5.49524">
        <ele>1019.5</ele>
        <time>2019-05-31T09:47:10Z</time>
      </trkpt>
      <trkpt lat="44.42081" lon="5.49534">
        <ele>1018.9</ele>
        <time>2019-05-31T09:47:17Z</time>
      </trkpt>
      <trkpt lat="44.42074" lon="5.49545">
        <ele>1018.3</ele>
        <time>2019-05-31T09:47:24Z</time>
      </trkpt>
      <trkpt lat="44.42068" lon="5.49556">
        <ele>1017.9</ele>
        <time>2019-05-31T09:47:31Z</time>
      </trkpt>
      <trkpt lat="44.42063" lon="5.49569">
        <ele>1017.6</ele>
        <time>2019-05-31T09:47:38Z</time>
      </trkpt>
      <trkpt lat="44.42058" lon="5.4958">
        <ele>1017.5</ele>
        <time>2019-05-31T09:47:44Z</time>
      </trkpt>
      <trkpt lat="44.42054" lon="5.49591">
        <ele>1017.4</ele>
        <time>2019-05-31T09:47:50Z</time>
      </trkpt>
      <trkpt lat="44.42051" lon="5.49603">
        <ele>1017.2</ele>
        <time>2019-05-31T09:47:56Z</time>
      </trkpt>
      <trkpt lat="44.42047" lon="5.49616">
        <ele>1016.9</ele>
        <time>2019-05-31T09:48:03Z</time>
      </trkpt>
      <trkpt lat="44.42043" lon="5.49627">
        <ele>1017</ele>
        <time>2019-05-31T09:48:09Z</time>
      </trkpt>
      <trkpt lat="44.4204" lon="5.49641">
        <ele>1017.4</ele>
        <time>2019-05-31T09:48:16Z</time>
      </trkpt>
      <trkpt lat="44.42036" lon="5.49654">
        <ele>1017.6</ele>
        <time>2019-05-31T09:48:23Z</time>
      </trkpt>
      <trkpt lat="44.42033" lon="5.49668">
        <ele>1017.8</ele>
        <time>2019-05-31T09:48:30Z</time>
      </trkpt>
      <trkpt lat="44.4203" lon="5.4968">
        <ele>1017.7</ele>
        <time>2019-05-31T09:48:36Z</time>
      </trkpt>
      <trkpt lat="44.42028" lon="5.49694">
        <ele>1017.6</ele>
        <time>2019-05-31T09:48:43Z</time>
      </trkpt>
      <trkpt lat="44.42025" lon="5.49706">
        <ele>1017.5</ele>
        <time>2019-05-31T09:48:49Z</time>
      </trkpt>
      <trkpt lat="44.42022" lon="5.49721">
        <ele>1017.5</ele>
        <time>2019-05-31T09:48:56Z</time>
      </trkpt>
      <trkpt lat="44.42019" lon="5.49734">
        <ele>1017.8</ele>
        <time>2019-05-31T09:49:03Z</time>
      </trkpt>
      <trkpt lat="44.42016" lon="5.49746">
        <ele>1018.1</ele>
        <time>2019-05-31T09:49:09Z</time>
      </trkpt>
      <trkpt lat="44.42016" lon="5.4976">
        <ele>1018.7</ele>
        <time>2019-05-31T09:49:16Z</time>
      </trkpt>
      <trkpt lat="44.42016" lon="5.49774">
        <ele>1019.3</ele>
        <time>2019-05-31T09:49:23Z</time>
      </trkpt>
      <trkpt lat="44.42016" lon="5.49788">
        <ele>1019.9</ele>
        <time>2019-05-31T09:49:30Z</time>
      </trkpt>
      <trkpt lat="44.42016" lon="5.49803">
        <ele>1020.3</ele>
        <time>2019-05-31T09:49:37Z</time>
      </trkpt>
      <trkpt lat="44.42015" lon="5.49815">
        <ele>1020.5</ele>
        <time>2019-05-31T09:49:43Z</time>
      </trkpt>
      <trkpt lat="44.42013" lon="5.49829">
        <ele>1020.9</ele>
        <time>2019-05-31T09:49:49Z</time>
      </trkpt>
      <trkpt lat="44.42013" lon="5.49841">
        <ele>1020.9</ele>
        <time>2019-05-31T09:49:56Z</time>
      </trkpt>
      <trkpt lat="44.42012" lon="5.49855">
        <ele>1020.3</ele>
        <time>2019-05-31T09:50:03Z</time>
      </trkpt>
      <trkpt lat="44.4201" lon="5.49868">
        <ele>1019.7</ele>
        <time>2019-05-31T09:50:10Z</time>
      </trkpt>
      <trkpt lat="44.42009" lon="5.49882">
        <ele>1018.7</ele>
        <time>2019-05-31T09:50:17Z</time>
      </trkpt>
      <trkpt lat="44.42006" lon="5.49896">
        <ele>1017.7</ele>
        <time>2019-05-31T09:50:24Z</time>
      </trkpt>
      <trkpt lat="44.42004" lon="5.49909">
        <ele>1016.5</ele>
        <time>2019-05-31T09:50:31Z</time>
      </trkpt>
      <trkpt lat="44.42001" lon="5.49921">
        <ele>1015.5</ele>
        <time>2019-05-31T09:50:37Z</time>
      </trkpt>
      <trkpt lat="44.42" lon="5.49935">
        <ele>1014.1</ele>
        <time>2019-05-31T09:50:44Z</time>
      </trkpt>
      <trkpt lat="44.42003" lon="5.49947">
        <ele>1012.7</ele>
        <time>2019-05-31T09:50:51Z</time>
      </trkpt>
      <trkpt lat="44.42006" lon="5.4996">
        <ele>1011.3</ele>
        <time>2019-05-31T09:51:00Z</time>
      </trkpt>
      <trkpt lat="44.42014" lon="5.49969">
        <ele>1010.6</ele>
        <time>2019-05-31T09:51:07Z</time>
      </trkpt>
      <trkpt lat="44.4202" lon="5.49979">
        <ele>1010.2</ele>
        <time>2019-05-31T09:51:16Z</time>
      </trkpt>
      <trkpt lat="44.42022" lon="5.49993">
        <ele>1010.5</ele>
        <time>2019-05-31T09:51:27Z</time>
      </trkpt>
      <trkpt lat="44.4202" lon="5.50007">
        <ele>1011.2</ele>
        <time>2019-05-31T09:51:34Z</time>
      </trkpt>
      <trkpt lat="44.42016" lon="5.50021">
        <ele>1011.8</ele>
        <time>2019-05-31T09:51:41Z</time>
      </trkpt>
      <trkpt lat="44.42014" lon="5.50033">
        <ele>1012.7</ele>
        <time>2019-05-31T09:51:47Z</time>
      </trkpt>
      <trkpt lat="44.42013" lon="5.50048">
        <ele>1013.5</ele>
        <time>2019-05-31T09:51:54Z</time>
      </trkpt>
      <trkpt lat="44.42017" lon="5.50061">
        <ele>1015</ele>
        <time>2019-05-31T09:52:01Z</time>
      </trkpt>
      <trkpt lat="44.42019" lon="5.50073">
        <ele>1016.7</ele>
        <time>2019-05-31T09:52:08Z</time>
      </trkpt>
      <trkpt lat="44.42019" lon="5.50086">
        <ele>1018.4</ele>
        <time>2019-05-31T09:52:15Z</time>
      </trkpt>
      <trkpt lat="44.4202" lon="5.50101">
        <ele>1019.9</ele>
        <time>2019-05-31T09:52:22Z</time>
      </trkpt>
      <trkpt lat="44.4202" lon="5.50114">
        <ele>1021.2</ele>
        <time>2019-05-31T09:52:29Z</time>
      </trkpt>
      <trkpt lat="44.42018" lon="5.50128">
        <ele>1022.4</ele>
        <time>2019-05-31T09:52:36Z</time>
      </trkpt>
      <trkpt lat="44.42016" lon="5.50141">
        <ele>1024</ele>
        <time>2019-05-31T09:52:42Z</time>
      </trkpt>
      <trkpt lat="44.42016" lon="5.50154">
        <ele>1025.3</ele>
        <time>2019-05-31T09:52:48Z</time>
      </trkpt>
      <trkpt lat="44.42016" lon="5.50169">
        <ele>1026.4</ele>
        <time>2019-05-31T09:52:55Z</time>
      </trkpt>
      <trkpt lat="44.42015" lon="5.50183">
        <ele>1027.1</ele>
        <time>2019-05-31T09:53:02Z</time>
      </trkpt>
      <trkpt lat="44.42015" lon="5.50196">
        <ele>1028.5</ele>
        <time>2019-05-31T09:53:09Z</time>
      </trkpt>
      <trkpt lat="44.42015" lon="5.5021">
        <ele>1029.7</ele>
        <time>2019-05-31T09:53:16Z</time>
      </trkpt>
      <trkpt lat="44.42019" lon="5.50224">
        <ele>1031.2</ele>
        <time>2019-05-31T09:53:24Z</time>
      </trkpt>
      <trkpt lat="44.42023" lon="5.50235">
        <ele>1033.2</ele>
        <time>2019-05-31T09:53:32Z</time>
      </trkpt>
      <trkpt lat="44.42026" lon="5.50248">
        <ele>1034.9</ele>
        <time>2019-05-31T09:53:40Z</time>
      </trkpt>
      <trkpt lat="44.42028" lon="5.50261">
        <ele>1036.9</ele>
        <time>2019-05-31T09:53:49Z</time>
      </trkpt>
      <trkpt lat="44.4203" lon="5.50274">
        <ele>1038.1</ele>
        <time>2019-05-31T09:53:56Z</time>
      </trkpt>
      <trkpt lat="44.42032" lon="5.50287">
        <ele>1039.3</ele>
        <time>2019-05-31T09:54:04Z</time>
      </trkpt>
      <trkpt lat="44.42033" lon="5.50301">
        <ele>1041</ele>
        <time>2019-05-31T09:54:11Z</time>
      </trkpt>
      <trkpt lat="44.42035" lon="5.50314">
        <ele>1042.8</ele>
        <time>2019-05-31T09:54:18Z</time>
      </trkpt>
      <trkpt lat="44.42035" lon="5.50328">
        <ele>1044.2</ele>
        <time>2019-05-31T09:54:25Z</time>
      </trkpt>
      <trkpt lat="44.42036" lon="5.50341">
        <ele>1045.7</ele>
        <time>2019-05-31T09:54:32Z</time>
      </trkpt>
      <trkpt lat="44.42038" lon="5.50356">
        <ele>1047.2</ele>
        <time>2019-05-31T09:54:39Z</time>
      </trkpt>
      <trkpt lat="44.4204" lon="5.5037">
        <ele>1048.3</ele>
        <time>2019-05-31T09:54:46Z</time>
      </trkpt>
      <trkpt lat="44.42042" lon="5.50383">
        <ele>1049.4</ele>
        <time>2019-05-31T09:54:53Z</time>
      </trkpt>
      <trkpt lat="44.42044" lon="5.50396">
        <ele>1050.6</ele>
        <time>2019-05-31T09:55:00Z</time>
      </trkpt>
      <trkpt lat="44.42045" lon="5.5041">
        <ele>1051.5</ele>
        <time>2019-05-31T09:55:07Z</time>
      </trkpt>
      <trkpt lat="44.42044" lon="5.50424">
        <ele>1051.8</ele>
        <time>2019-05-31T09:55:15Z</time>
      </trkpt>
      <trkpt lat="44.42045" lon="5.50437">
        <ele>1052.2</ele>
        <time>2019-05-31T09:55:23Z</time>
      </trkpt>
      <trkpt lat="44.42044" lon="5.50451">
        <ele>1052.6</ele>
        <time>2019-05-31T09:55:30Z</time>
      </trkpt>
      <trkpt lat="44.42043" lon="5.50464">
        <ele>1052.9</ele>
        <time>2019-05-31T09:55:36Z</time>
      </trkpt>
      <trkpt lat="44.42042" lon="5.50477">
        <ele>1053.1</ele>
        <time>2019-05-31T09:55:42Z</time>
      </trkpt>
      <trkpt lat="44.4204" lon="5.50491">
        <ele>1053.2</ele>
        <time>2019-05-31T09:55:48Z</time>
      </trkpt>
      <trkpt lat="44.42037" lon="5.50504">
        <ele>1053.4</ele>
        <time>2019-05-31T09:55:54Z</time>
      </trkpt>
      <trkpt lat="44.42034" lon="5.50518">
        <ele>1053.5</ele>
        <time>2019-05-31T09:56:01Z</time>
      </trkpt>
      <trkpt lat="44.42031" lon="5.5053">
        <ele>1053.6</ele>
        <time>2019-05-31T09:56:07Z</time>
      </trkpt>
      <trkpt lat="44.4203" lon="5.50544">
        <ele>1053.9</ele>
        <time>2019-05-31T09:56:14Z</time>
      </trkpt>
      <trkpt lat="44.42032" lon="5.50557">
        <ele>1054.5</ele>
        <time>2019-05-31T09:56:21Z</time>
      </trkpt>
      <trkpt lat="44.42033" lon="5.5057">
        <ele>1055.1</ele>
        <time>2019-05-31T09:56:28Z</time>
      </trkpt>
      <trkpt lat="44.42034" lon="5.50584">
        <ele>1055.8</ele>
        <time>2019-05-31T09:56:35Z</time>
      </trkpt>
      <trkpt lat="44.42033" lon="5.50598">
        <ele>1056.8</ele>
        <time>2019-05-31T09:56:44Z</time>
      </trkpt>
      <trkpt lat="44.42035" lon="5.50612">
        <ele>1057.8</ele>
        <time>2019-05-31T09:56:52Z</time>
      </trkpt>
      <trkpt lat="44.42037" lon="5.50625">
        <ele>1059.1</ele>
        <time>2019-05-31T09:56:59Z</time>
      </trkpt>
      <trkpt lat="44.42037" lon="5.50639">
        <ele>1060.2</ele>
        <time>2019-05-31T09:57:06Z</time>
      </trkpt>
      <trkpt lat="44.42039" lon="5.50651">
        <ele>1061.3</ele>
        <time>2019-05-31T09:57:13Z</time>
      </trkpt>
      <trkpt lat="44.42039" lon="5.50665">
        <ele>1062.6</ele>
        <time>2019-05-31T09:57:21Z</time>
      </trkpt>
      <trkpt lat="44.42039" lon="5.50678">
        <ele>1063.4</ele>
        <time>2019-05-31T09:57:28Z</time>
      </trkpt>
      <trkpt lat="44.42047" lon="5.50684">
        <ele>1065.3</ele>
        <time>2019-05-31T09:57:38Z</time>
      </trkpt>
      <trkpt lat="44.42056" lon="5.50689">
        <ele>1067.3</ele>
        <time>2019-05-31T09:57:47Z</time>
      </trkpt>
      <trkpt lat="44.42059" lon="5.50703">
        <ele>1069.6</ele>
        <time>2019-05-31T09:57:56Z</time>
      </trkpt>
      <trkpt lat="44.42057" lon="5.50715">
        <ele>1072</ele>
        <time>2019-05-31T09:58:03Z</time>
      </trkpt>
      <trkpt lat="44.42058" lon="5.50728">
        <ele>1074.5</ele>
        <time>2019-05-31T09:58:11Z</time>
      </trkpt>
      <trkpt lat="44.42057" lon="5.50741">
        <ele>1077.3</ele>
        <time>2019-05-31T09:58:20Z</time>
      </trkpt>
      <trkpt lat="44.42059" lon="5.50754">
        <ele>1080.1</ele>
        <time>2019-05-31T09:58:28Z</time>
      </trkpt>
      <trkpt lat="44.4206" lon="5.50768">
        <ele>1082.7</ele>
        <time>2019-05-31T09:58:36Z</time>
      </trkpt>
      <trkpt lat="44.42058" lon="5.50781">
        <ele>1085.5</ele>
        <time>2019-05-31T09:58:45Z</time>
      </trkpt>
      <trkpt lat="44.42056" lon="5.50794">
        <ele>1087.7</ele>
        <time>2019-05-31T09:58:53Z</time>
      </trkpt>
      <trkpt lat="44.42052" lon="5.50805">
        <ele>1089.8</ele>
        <time>2019-05-31T09:59:01Z</time>
      </trkpt>
      <trkpt lat="44.42049" lon="5.50818">
        <ele>1091.6</ele>
        <time>2019-05-31T09:59:09Z</time>
      </trkpt>
      <trkpt lat="44.42045" lon="5.5083">
        <ele>1093.6</ele>
        <time>2019-05-31T09:59:17Z</time>
      </trkpt>
      <trkpt lat="44.42042" lon="5.50842">
        <ele>1094.9</ele>
        <time>2019-05-31T09:59:23Z</time>
      </trkpt>
      <trkpt lat="44.42041" lon="5.50855">
        <ele>1096.5</ele>
        <time>2019-05-31T09:59:29Z</time>
      </trkpt>
      <trkpt lat="44.4204" lon="5.50869">
        <ele>1098.4</ele>
        <time>2019-05-31T09:59:36Z</time>
      </trkpt>
      <trkpt lat="44.42038" lon="5.50883">
        <ele>1100.4</ele>
        <time>2019-05-31T09:59:43Z</time>
      </trkpt>
      <trkpt lat="44.42036" lon="5.50897">
        <ele>1102.4</ele>
        <time>2019-05-31T09:59:50Z</time>
      </trkpt>
      <trkpt lat="44.42033" lon="5.50909">
        <ele>1104.6</ele>
        <time>2019-05-31T09:59:57Z</time>
      </trkpt>
      <trkpt lat="44.42024" lon="5.50914">
        <ele>1105.9</ele>
        <time>2019-05-31T10:00:03Z</time>
      </trkpt>
      <trkpt lat="44.42019" lon="5.50923">
        <ele>1107.5</ele>
        <time>2019-05-31T10:00:10Z</time>
      </trkpt>
      <trkpt lat="44.42017" lon="5.50937">
        <ele>1109.2</ele>
        <time>2019-05-31T10:00:18Z</time>
      </trkpt>
      <trkpt lat="44.42016" lon="5.50951">
        <ele>1110.9</ele>
        <time>2019-05-31T10:00:26Z</time>
      </trkpt>
      <trkpt lat="44.4202" lon="5.50964">
        <ele>1112.3</ele>
        <time>2019-05-31T10:00:36Z</time>
      </trkpt>
      <trkpt lat="44.42027" lon="5.50972">
        <ele>1112.3</ele>
        <time>2019-05-31T10:00:43Z</time>
      </trkpt>
      <trkpt lat="44.42034" lon="5.5098">
        <ele>1112.4</ele>
        <time>2019-05-31T10:00:50Z</time>
      </trkpt>
      <trkpt lat="44.42042" lon="5.50989">
        <ele>1112.5</ele>
        <time>2019-05-31T10:00:57Z</time>
      </trkpt>
      <trkpt lat="44.42049" lon="5.50999">
        <ele>1112.5</ele>
        <time>2019-05-31T10:01:04Z</time>
      </trkpt>
      <trkpt lat="44.42057" lon="5.51009">
        <ele>1112.5</ele>
        <time>2019-05-31T10:01:11Z</time>
      </trkpt>
      <trkpt lat="44.42064" lon="5.51018">
        <ele>1112.5</ele>
        <time>2019-05-31T10:01:18Z</time>
      </trkpt>
      <trkpt lat="44.42072" lon="5.51028">
        <ele>1112.6</ele>
        <time>2019-05-31T10:01:25Z</time>
      </trkpt>
      <trkpt lat="44.42079" lon="5.51036">
        <ele>1112.9</ele>
        <time>2019-05-31T10:01:32Z</time>
      </trkpt>
      <trkpt lat="44.42088" lon="5.51041">
        <ele>1113.3</ele>
        <time>2019-05-31T10:01:39Z</time>
      </trkpt>
      <trkpt lat="44.42097" lon="5.51046">
        <ele>1114.3</ele>
        <time>2019-05-31T10:01:47Z</time>
      </trkpt>
      <trkpt lat="44.42104" lon="5.51055">
        <ele>1115.7</ele>
        <time>2019-05-31T10:01:55Z</time>
      </trkpt>
      <trkpt lat="44.42111" lon="5.51063">
        <ele>1116.7</ele>
        <time>2019-05-31T10:02:02Z</time>
      </trkpt>
      <trkpt lat="44.42118" lon="5.51072">
        <ele>1118</ele>
        <time>2019-05-31T10:02:09Z</time>
      </trkpt>
      <trkpt lat="44.42127" lon="5.51079">
        <ele>1119.3</ele>
        <time>2019-05-31T10:02:16Z</time>
      </trkpt>
      <trkpt lat="44.42135" lon="5.51085">
        <ele>1123.7</ele>
        <time>2019-05-31T10:07:14Z</time>
      </trkpt>
      <trkpt lat="44.42143" lon="5.51092">
        <ele>1124.5</ele>
        <time>2019-05-31T10:07:23Z</time>
      </trkpt>
      <trkpt lat="44.4215" lon="5.51101">
        <ele>1125.5</ele>
        <time>2019-05-31T10:07:31Z</time>
      </trkpt>
      <trkpt lat="44.42155" lon="5.51111">
        <ele>1126.3</ele>
        <time>2019-05-31T10:07:39Z</time>
      </trkpt>
      <trkpt lat="44.4216" lon="5.51123">
        <ele>1126.8</ele>
        <time>2019-05-31T10:07:47Z</time>
      </trkpt>
      <trkpt lat="44.42162" lon="5.51137">
        <ele>1127.4</ele>
        <time>2019-05-31T10:08:01Z</time>
      </trkpt>
      <trkpt lat="44.42161" lon="5.5115">
        <ele>1126.8</ele>
        <time>2019-05-31T10:08:16Z</time>
      </trkpt>
      <trkpt lat="44.42162" lon="5.51163">
        <ele>1126.1</ele>
        <time>2019-05-31T10:08:23Z</time>
      </trkpt>
      <trkpt lat="44.42162" lon="5.51177">
        <ele>1124</ele>
        <time>2019-05-31T10:08:34Z</time>
      </trkpt>
      <trkpt lat="44.42171" lon="5.51179">
        <ele>1119.9</ele>
        <time>2019-05-31T10:08:58Z</time>
      </trkpt>
      <trkpt lat="44.42181" lon="5.51176">
        <ele>1120.1</ele>
        <time>2019-05-31T10:09:08Z</time>
      </trkpt>
      <trkpt lat="44.42189" lon="5.51185">
        <ele>1120.4</ele>
        <time>2019-05-31T10:09:16Z</time>
      </trkpt>
      <trkpt lat="44.42197" lon="5.51193">
        <ele>1120.5</ele>
        <time>2019-05-31T10:09:23Z</time>
      </trkpt>
      <trkpt lat="44.42205" lon="5.51201">
        <ele>1119.8</ele>
        <time>2019-05-31T10:09:30Z</time>
      </trkpt>
      <trkpt lat="44.42213" lon="5.51209">
        <ele>1119.4</ele>
        <time>2019-05-31T10:09:38Z</time>
      </trkpt>
      <trkpt lat="44.4222" lon="5.51218">
        <ele>1119.1</ele>
        <time>2019-05-31T10:10:11Z</time>
      </trkpt>
      <trkpt lat="44.42225" lon="5.51229">
        <ele>1119.9</ele>
        <time>2019-05-31T10:10:26Z</time>
      </trkpt>
      <trkpt lat="44.42222" lon="5.51241">
        <ele>1120.6</ele>
        <time>2019-05-31T10:10:33Z</time>
      </trkpt>
      <trkpt lat="44.42219" lon="5.51253">
        <ele>1121.8</ele>
        <time>2019-05-31T10:10:40Z</time>
      </trkpt>
      <trkpt lat="44.42217" lon="5.51266">
        <ele>1123.1</ele>
        <time>2019-05-31T10:10:47Z</time>
      </trkpt>
      <trkpt lat="44.42217" lon="5.5128">
        <ele>1124.3</ele>
        <time>2019-05-31T10:10:55Z</time>
      </trkpt>
      <trkpt lat="44.42217" lon="5.51293">
        <ele>1125</ele>
        <time>2019-05-31T10:11:04Z</time>
      </trkpt>
      <trkpt lat="44.42216" lon="5.51306">
        <ele>1125.3</ele>
        <time>2019-05-31T10:11:11Z</time>
      </trkpt>
      <trkpt lat="44.42214" lon="5.51319">
        <ele>1125.1</ele>
        <time>2019-05-31T10:11:19Z</time>
      </trkpt>
      <trkpt lat="44.42216" lon="5.51332">
        <ele>1125.2</ele>
        <time>2019-05-31T10:11:26Z</time>
      </trkpt>
      <trkpt lat="44.4222" lon="5.51343">
        <ele>1125.8</ele>
        <time>2019-05-31T10:11:34Z</time>
      </trkpt>
      <trkpt lat="44.42223" lon="5.51356">
        <ele>1127.6</ele>
        <time>2019-05-31T10:11:43Z</time>
      </trkpt>
      <trkpt lat="44.42227" lon="5.51368">
        <ele>1129.1</ele>
        <time>2019-05-31T10:11:50Z</time>
      </trkpt>
      <trkpt lat="44.4223" lon="5.51381">
        <ele>1130.5</ele>
        <time>2019-05-31T10:12:00Z</time>
      </trkpt>
      <trkpt lat="44.42234" lon="5.51393">
        <ele>1130.7</ele>
        <time>2019-05-31T10:12:09Z</time>
      </trkpt>
      <trkpt lat="44.42237" lon="5.51406">
        <ele>1130.7</ele>
        <time>2019-05-31T10:12:15Z</time>
      </trkpt>
      <trkpt lat="44.42238" lon="5.51419">
        <ele>1130.7</ele>
        <time>2019-05-31T10:12:20Z</time>
      </trkpt>
      <trkpt lat="44.4224" lon="5.51432">
        <ele>1130.8</ele>
        <time>2019-05-31T10:12:27Z</time>
      </trkpt>
      <trkpt lat="44.42245" lon="5.51442">
        <ele>1130.8</ele>
        <time>2019-05-31T10:12:35Z</time>
      </trkpt>
      <trkpt lat="44.42251" lon="5.51454">
        <ele>1130.9</ele>
        <time>2019-05-31T10:12:45Z</time>
      </trkpt>
      <trkpt lat="44.42258" lon="5.51464">
        <ele>1130.8</ele>
        <time>2019-05-31T10:12:53Z</time>
      </trkpt>
      <trkpt lat="44.42265" lon="5.51474">
        <ele>1130.3</ele>
        <time>2019-05-31T10:13:00Z</time>
      </trkpt>
      <trkpt lat="44.42271" lon="5.51484">
        <ele>1130</ele>
        <time>2019-05-31T10:13:06Z</time>
      </trkpt>
      <trkpt lat="44.42277" lon="5.51496">
        <ele>1129.7</ele>
        <time>2019-05-31T10:13:12Z</time>
      </trkpt>
      <trkpt lat="44.42284" lon="5.51506">
        <ele>1129.3</ele>
        <time>2019-05-31T10:13:20Z</time>
      </trkpt>
      <trkpt lat="44.42291" lon="5.51516">
        <ele>1129.1</ele>
        <time>2019-05-31T10:13:27Z</time>
      </trkpt>
      <trkpt lat="44.42298" lon="5.51526">
        <ele>1129.9</ele>
        <time>2019-05-31T10:13:36Z</time>
      </trkpt>
      <trkpt lat="44.42303" lon="5.51536">
        <ele>1131.4</ele>
        <time>2019-05-31T10:13:47Z</time>
      </trkpt>
      <trkpt lat="44.42309" lon="5.51547">
        <ele>1133.8</ele>
        <time>2019-05-31T10:13:57Z</time>
      </trkpt>
      <trkpt lat="44.42311" lon="5.5156">
        <ele>1135.4</ele>
        <time>2019-05-31T10:14:05Z</time>
      </trkpt>
      <trkpt lat="44.42308" lon="5.51573">
        <ele>1136.8</ele>
        <time>2019-05-31T10:14:12Z</time>
      </trkpt>
      <trkpt lat="44.42306" lon="5.51585">
        <ele>1138.7</ele>
        <time>2019-05-31T10:14:19Z</time>
      </trkpt>
      <trkpt lat="44.42304" lon="5.51599">
        <ele>1140.9</ele>
        <time>2019-05-31T10:14:27Z</time>
      </trkpt>
      <trkpt lat="44.42302" lon="5.51611">
        <ele>1142.7</ele>
        <time>2019-05-31T10:14:34Z</time>
      </trkpt>
      <trkpt lat="44.42302" lon="5.51626">
        <ele>1144.7</ele>
        <time>2019-05-31T10:14:41Z</time>
      </trkpt>
      <trkpt lat="44.42302" lon="5.51638">
        <ele>1147.2</ele>
        <time>2019-05-31T10:14:49Z</time>
      </trkpt>
      <trkpt lat="44.42301" lon="5.51651">
        <ele>1149.5</ele>
        <time>2019-05-31T10:14:57Z</time>
      </trkpt>
      <trkpt lat="44.42301" lon="5.51665">
        <ele>1151</ele>
        <time>2019-05-31T10:15:05Z</time>
      </trkpt>
      <trkpt lat="44.423" lon="5.51679">
        <ele>1153.2</ele>
        <time>2019-05-31T10:15:13Z</time>
      </trkpt>
      <trkpt lat="44.423" lon="5.51693">
        <ele>1154.6</ele>
        <time>2019-05-31T10:15:21Z</time>
      </trkpt>
      <trkpt lat="44.42298" lon="5.51706">
        <ele>1155.4</ele>
        <time>2019-05-31T10:15:30Z</time>
      </trkpt>
      <trkpt lat="44.42299" lon="5.51719">
        <ele>1155.7</ele>
        <time>2019-05-31T10:15:38Z</time>
      </trkpt>
      <trkpt lat="44.423" lon="5.51733">
        <ele>1156.1</ele>
        <time>2019-05-31T10:15:46Z</time>
      </trkpt>
      <trkpt lat="44.42302" lon="5.51746">
        <ele>1156.9</ele>
        <time>2019-05-31T10:15:54Z</time>
      </trkpt>
      <trkpt lat="44.42305" lon="5.51759">
        <ele>1157.9</ele>
        <time>2019-05-31T10:16:02Z</time>
      </trkpt>
      <trkpt lat="44.42307" lon="5.51771">
        <ele>1159</ele>
        <time>2019-05-31T10:16:10Z</time>
      </trkpt>
      <trkpt lat="44.4231" lon="5.51784">
        <ele>1160.3</ele>
        <time>2019-05-31T10:16:19Z</time>
      </trkpt>
      <trkpt lat="44.42312" lon="5.51797">
        <ele>1161.4</ele>
        <time>2019-05-31T10:16:27Z</time>
      </trkpt>
      <trkpt lat="44.42314" lon="5.51811">
        <ele>1162.2</ele>
        <time>2019-05-31T10:16:35Z</time>
      </trkpt>
      <trkpt lat="44.42314" lon="5.51824">
        <ele>1162.9</ele>
        <time>2019-05-31T10:16:43Z</time>
      </trkpt>
      <trkpt lat="44.42315" lon="5.51838">
        <ele>1163.9</ele>
        <time>2019-05-31T10:16:51Z</time>
      </trkpt>
      <trkpt lat="44.42314" lon="5.51851">
        <ele>1165</ele>
        <time>2019-05-31T10:16:59Z</time>
      </trkpt>
      <trkpt lat="44.42315" lon="5.51864">
        <ele>1166.7</ele>
        <time>2019-05-31T10:17:08Z</time>
      </trkpt>
      <trkpt lat="44.42313" lon="5.51877">
        <ele>1168.9</ele>
        <time>2019-05-31T10:17:25Z</time>
      </trkpt>
      <trkpt lat="44.42311" lon="5.5189">
        <ele>1169.4</ele>
        <time>2019-05-31T10:17:34Z</time>
      </trkpt>
      <trkpt lat="44.4231" lon="5.51903">
        <ele>1169.6</ele>
        <time>2019-05-31T10:17:41Z</time>
      </trkpt>
      <trkpt lat="44.42309" lon="5.51917">
        <ele>1169.7</ele>
        <time>2019-05-31T10:17:49Z</time>
      </trkpt>
      <trkpt lat="44.42311" lon="5.5193">
        <ele>1169.8</ele>
        <time>2019-05-31T10:17:56Z</time>
      </trkpt>
      <trkpt lat="44.42314" lon="5.51944">
        <ele>1170.1</ele>
        <time>2019-05-31T10:18:05Z</time>
      </trkpt>
      <trkpt lat="44.42315" lon="5.51957">
        <ele>1171.1</ele>
        <time>2019-05-31T10:18:13Z</time>
      </trkpt>
      <trkpt lat="44.42315" lon="5.5197">
        <ele>1173</ele>
        <time>2019-05-31T10:18:31Z</time>
      </trkpt>
      <trkpt lat="44.42322" lon="5.51981">
        <ele>1174.2</ele>
        <time>2019-05-31T10:18:40Z</time>
      </trkpt>
      <trkpt lat="44.4233" lon="5.51985">
        <ele>1177.3</ele>
        <time>2019-05-31T10:18:49Z</time>
      </trkpt>
      <trkpt lat="44.42339" lon="5.51988">
        <ele>1188</ele>
        <time>2019-05-31T10:19:49Z</time>
      </trkpt>
      <trkpt lat="44.42346" lon="5.51998">
        <ele>1191.3</ele>
        <time>2019-05-31T10:20:09Z</time>
      </trkpt>
      <trkpt lat="44.42347" lon="5.52011">
        <ele>1195</ele>
        <time>2019-05-31T10:20:23Z</time>
      </trkpt>
      <trkpt lat="44.42355" lon="5.52008">
        <ele>1199.5</ele>
        <time>2019-05-31T10:20:39Z</time>
      </trkpt>
      <trkpt lat="44.42365" lon="5.5201">
        <ele>1205</ele>
        <time>2019-05-31T10:21:19Z</time>
      </trkpt>
      <trkpt lat="44.42374" lon="5.52006">
        <ele>1209.9</ele>
        <time>2019-05-31T10:21:41Z</time>
      </trkpt>
      <trkpt lat="44.42381" lon="5.52015">
        <ele>1215.1</ele>
        <time>2019-05-31T10:22:02Z</time>
      </trkpt>
      <trkpt lat="44.42389" lon="5.52021">
        <ele>1221.5</ele>
        <time>2019-05-31T10:23:06Z</time>
      </trkpt>
      <trkpt lat="44.42396" lon="5.52013">
        <ele>1229</ele>
        <time>2019-05-31T10:24:19Z</time>
      </trkpt>
      <trkpt lat="44.42397" lon="5.52026">
        <ele>1230.4</ele>
        <time>2019-05-31T10:25:38Z</time>
      </trkpt>
      <trkpt lat="44.42406" lon="5.5202">
        <ele>1234</ele>
        <time>2019-05-31T10:25:56Z</time>
      </trkpt>
      <trkpt lat="44.42413" lon="5.52012">
        <ele>1239.8</ele>
        <time>2019-05-31T10:27:23Z</time>
      </trkpt>
      <trkpt lat="44.42422" lon="5.52018">
        <ele>1244.8</ele>
        <time>2019-05-31T10:42:32Z</time>
      </trkpt>
      <trkpt lat="44.42431" lon="5.52019">
        <ele>1250.1</ele>
        <time>2019-05-31T10:43:14Z</time>
      </trkpt>
      <trkpt lat="44.4244" lon="5.52015">
        <ele>1255.8</ele>
        <time>2019-05-31T10:43:52Z</time>
      </trkpt>
      <trkpt lat="44.4245" lon="5.52014">
        <ele>1264</ele>
        <time>2019-05-31T10:45:01Z</time>
      </trkpt>
      <trkpt lat="44.42458" lon="5.52008">
        <ele>1266</ele>
        <time>2019-05-31T10:45:17Z</time>
      </trkpt>
      <trkpt lat="44.42466" lon="5.52001">
        <ele>1270.9</ele>
        <time>2019-05-31T10:45:49Z</time>
      </trkpt>
      <trkpt lat="44.42472" lon="5.51991">
        <ele>1274.3</ele>
        <time>2019-05-31T10:46:12Z</time>
      </trkpt>
      <trkpt lat="44.42481" lon="5.51992">
        <ele>1281.9</ele>
        <time>2019-05-31T10:47:34Z</time>
      </trkpt>
      <trkpt lat="44.42482" lon="5.5198">
        <ele>1284.1</ele>
        <time>2019-05-31T10:48:41Z</time>
      </trkpt>
      <trkpt lat="44.42491" lon="5.5198">
        <ele>1288.9</ele>
        <time>2019-05-31T10:51:03Z</time>
      </trkpt>
      <trkpt lat="44.425" lon="5.51979">
        <ele>1292.8</ele>
        <time>2019-05-31T10:51:33Z</time>
      </trkpt>
      <trkpt lat="44.42507" lon="5.51989">
        <ele>1295.5</ele>
        <time>2019-05-31T10:52:02Z</time>
      </trkpt>
      <trkpt lat="44.42514" lon="5.51998">
        <ele>1299.8</ele>
        <time>2019-05-31T10:52:32Z</time>
      </trkpt>
      <trkpt lat="44.4252" lon="5.52008">
        <ele>1303.5</ele>
        <time>2019-05-31T10:52:54Z</time>
      </trkpt>
      <trkpt lat="44.42522" lon="5.5202">
        <ele>1306.8</ele>
        <time>2019-05-31T10:53:19Z</time>
      </trkpt>
      <trkpt lat="44.42525" lon="5.52032">
        <ele>1310.5</ele>
        <time>2019-05-31T10:54:05Z</time>
      </trkpt>
      <trkpt lat="44.42529" lon="5.52044">
        <ele>1312.1</ele>
        <time>2019-05-31T10:54:21Z</time>
      </trkpt>
      <trkpt lat="44.4253" lon="5.52058">
        <ele>1314.6</ele>
        <time>2019-05-31T10:54:37Z</time>
      </trkpt>
      <trkpt lat="44.42525" lon="5.52069">
        <ele>1316.2</ele>
        <time>2019-05-31T10:54:52Z</time>
      </trkpt>
      <trkpt lat="44.42522" lon="5.52081">
        <ele>1317.1</ele>
        <time>2019-05-31T10:55:18Z</time>
      </trkpt>
      <trkpt lat="44.42525" lon="5.52068">
        <ele>1328.7</ele>
        <time>2019-05-31T12:00:50Z</time>
      </trkpt>
      <trkpt lat="44.4253" lon="5.52057">
        <ele>1328.6</ele>
        <time>2019-05-31T12:01:05Z</time>
      </trkpt>
      <trkpt lat="44.42537" lon="5.52065">
        <ele>1328.3</ele>
        <time>2019-05-31T12:01:23Z</time>
      </trkpt>
      <trkpt lat="44.42538" lon="5.52078">
        <ele>1325.6</ele>
        <time>2019-05-31T12:01:54Z</time>
      </trkpt>
      <trkpt lat="44.42538" lon="5.52091">
        <ele>1323.3</ele>
        <time>2019-05-31T12:02:20Z</time>
      </trkpt>
      <trkpt lat="44.42539" lon="5.52104">
        <ele>1322.6</ele>
        <time>2019-05-31T12:02:36Z</time>
      </trkpt>
      <trkpt lat="44.42543" lon="5.52116">
        <ele>1320.8</ele>
        <time>2019-05-31T12:02:49Z</time>
      </trkpt>
      <trkpt lat="44.42545" lon="5.52129">
        <ele>1319.4</ele>
        <time>2019-05-31T12:03:00Z</time>
      </trkpt>
      <trkpt lat="44.42546" lon="5.52142">
        <ele>1317.3</ele>
        <time>2019-05-31T12:03:11Z</time>
      </trkpt>
      <trkpt lat="44.42548" lon="5.52155">
        <ele>1315.4</ele>
        <time>2019-05-31T12:03:22Z</time>
      </trkpt>
      <trkpt lat="44.42551" lon="5.52168">
        <ele>1313.4</ele>
        <time>2019-05-31T12:03:33Z</time>
      </trkpt>
      <trkpt lat="44.42551" lon="5.52182">
        <ele>1310.2</ele>
        <time>2019-05-31T12:03:52Z</time>
      </trkpt>
      <trkpt lat="44.42553" lon="5.52194">
        <ele>1308.1</ele>
        <time>2019-05-31T12:04:07Z</time>
      </trkpt>
      <trkpt lat="44.42557" lon="5.52206">
        <ele>1306.1</ele>
        <time>2019-05-31T12:04:18Z</time>
      </trkpt>
      <trkpt lat="44.42564" lon="5.52215">
        <ele>1303.1</ele>
        <time>2019-05-31T12:04:32Z</time>
      </trkpt>
      <trkpt lat="44.42567" lon="5.52228">
        <ele>1301.2</ele>
        <time>2019-05-31T12:04:42Z</time>
      </trkpt>
      <trkpt lat="44.42571" lon="5.52239">
        <ele>1299.2</ele>
        <time>2019-05-31T12:04:53Z</time>
      </trkpt>
      <trkpt lat="44.42576" lon="5.52249">
        <ele>1296.5</ele>
        <time>2019-05-31T12:05:15Z</time>
      </trkpt>
      <trkpt lat="44.42585" lon="5.52245">
        <ele>1289.8</ele>
        <time>2019-05-31T12:06:06Z</time>
      </trkpt>
      <trkpt lat="44.4259" lon="5.52233">
        <ele>1289.6</ele>
        <time>2019-05-31T12:06:16Z</time>
      </trkpt>
      <trkpt lat="44.42594" lon="5.5222">
        <ele>1288</ele>
        <time>2019-05-31T12:06:26Z</time>
      </trkpt>
      <trkpt lat="44.42599" lon="5.5221">
        <ele>1286.1</ele>
        <time>2019-05-31T12:06:34Z</time>
      </trkpt>
      <trkpt lat="44.42605" lon="5.52199">
        <ele>1284.1</ele>
        <time>2019-05-31T12:06:43Z</time>
      </trkpt>
      <trkpt lat="44.42609" lon="5.52186">
        <ele>1281.8</ele>
        <time>2019-05-31T12:06:52Z</time>
      </trkpt>
      <trkpt lat="44.42613" lon="5.52175">
        <ele>1280</ele>
        <time>2019-05-31T12:06:59Z</time>
      </trkpt>
      <trkpt lat="44.42618" lon="5.52162">
        <ele>1278.2</ele>
        <time>2019-05-31T12:07:07Z</time>
      </trkpt>
      <trkpt lat="44.42623" lon="5.5215">
        <ele>1276.6</ele>
        <time>2019-05-31T12:07:15Z</time>
      </trkpt>
      <trkpt lat="44.42627" lon="5.52139">
        <ele>1274.8</ele>
        <time>2019-05-31T12:07:23Z</time>
      </trkpt>
      <trkpt lat="44.42632" lon="5.52127">
        <ele>1272.4</ele>
        <time>2019-05-31T12:07:32Z</time>
      </trkpt>
      <trkpt lat="44.42635" lon="5.52114">
        <ele>1269.3</ele>
        <time>2019-05-31T12:07:45Z</time>
      </trkpt>
      <trkpt lat="44.4264" lon="5.52103">
        <ele>1267.6</ele>
        <time>2019-05-31T12:07:55Z</time>
      </trkpt>
      <trkpt lat="44.42647" lon="5.52093">
        <ele>1265</ele>
        <time>2019-05-31T12:08:06Z</time>
      </trkpt>
      <trkpt lat="44.42651" lon="5.5208">
        <ele>1262.2</ele>
        <time>2019-05-31T12:08:16Z</time>
      </trkpt>
      <trkpt lat="44.42656" lon="5.52069">
        <ele>1259.7</ele>
        <time>2019-05-31T12:08:25Z</time>
      </trkpt>
      <trkpt lat="44.4266" lon="5.52057">
        <ele>1258</ele>
        <time>2019-05-31T12:08:34Z</time>
      </trkpt>
      <trkpt lat="44.42667" lon="5.52047">
        <ele>1256.3</ele>
        <time>2019-05-31T12:08:44Z</time>
      </trkpt>
      <trkpt lat="44.42673" lon="5.52038">
        <ele>1254.6</ele>
        <time>2019-05-31T12:08:53Z</time>
      </trkpt>
      <trkpt lat="44.4268" lon="5.52029">
        <ele>1252.1</ele>
        <time>2019-05-31T12:09:04Z</time>
      </trkpt>
      <trkpt lat="44.42688" lon="5.5202">
        <ele>1250</ele>
        <time>2019-05-31T12:09:15Z</time>
      </trkpt>
      <trkpt lat="44.42694" lon="5.5201">
        <ele>1247.5</ele>
        <time>2019-05-31T12:09:27Z</time>
      </trkpt>
      <trkpt lat="44.427" lon="5.52001">
        <ele>1245.2</ele>
        <time>2019-05-31T12:09:38Z</time>
      </trkpt>
      <trkpt lat="44.42707" lon="5.51992">
        <ele>1243.4</ele>
        <time>2019-05-31T12:09:46Z</time>
      </trkpt>
      <trkpt lat="44.42713" lon="5.51982">
        <ele>1241.2</ele>
        <time>2019-05-31T12:09:55Z</time>
      </trkpt>
      <trkpt lat="44.4272" lon="5.51973">
        <ele>1239.3</ele>
        <time>2019-05-31T12:10:04Z</time>
      </trkpt>
      <trkpt lat="44.42728" lon="5.51965">
        <ele>1236.7</ele>
        <time>2019-05-31T12:10:14Z</time>
      </trkpt>
      <trkpt lat="44.42736" lon="5.51957">
        <ele>1234.3</ele>
        <time>2019-05-31T12:10:24Z</time>
      </trkpt>
      <trkpt lat="44.42743" lon="5.51949">
        <ele>1232</ele>
        <time>2019-05-31T12:10:33Z</time>
      </trkpt>
      <trkpt lat="44.42751" lon="5.51942">
        <ele>1229.8</ele>
        <time>2019-05-31T12:10:43Z</time>
      </trkpt>
      <trkpt lat="44.42759" lon="5.51934">
        <ele>1227.7</ele>
        <time>2019-05-31T12:10:53Z</time>
      </trkpt>
      <trkpt lat="44.42766" lon="5.51925">
        <ele>1225.6</ele>
        <time>2019-05-31T12:11:02Z</time>
      </trkpt>
      <trkpt lat="44.42772" lon="5.51914">
        <ele>1223.4</ele>
        <time>2019-05-31T12:11:12Z</time>
      </trkpt>
      <trkpt lat="44.42778" lon="5.51903">
        <ele>1221.8</ele>
        <time>2019-05-31T12:11:22Z</time>
      </trkpt>
      <trkpt lat="44.42785" lon="5.51893">
        <ele>1220.3</ele>
        <time>2019-05-31T12:11:32Z</time>
      </trkpt>
      <trkpt lat="44.42791" lon="5.51883">
        <ele>1218.6</ele>
        <time>2019-05-31T12:11:41Z</time>
      </trkpt>
      <trkpt lat="44.42797" lon="5.51872">
        <ele>1217.1</ele>
        <time>2019-05-31T12:11:51Z</time>
      </trkpt>
      <trkpt lat="44.42803" lon="5.51862">
        <ele>1215.6</ele>
        <time>2019-05-31T12:11:59Z</time>
      </trkpt>
      <trkpt lat="44.4281" lon="5.51853">
        <ele>1213.6</ele>
        <time>2019-05-31T12:12:08Z</time>
      </trkpt>
      <trkpt lat="44.42816" lon="5.51843">
        <ele>1211.9</ele>
        <time>2019-05-31T12:12:17Z</time>
      </trkpt>
      <trkpt lat="44.42821" lon="5.51832">
        <ele>1211</ele>
        <time>2019-05-31T12:12:25Z</time>
      </trkpt>
      <trkpt lat="44.42828" lon="5.51822">
        <ele>1209.9</ele>
        <time>2019-05-31T12:12:33Z</time>
      </trkpt>
      <trkpt lat="44.42833" lon="5.51811">
        <ele>1208.5</ele>
        <time>2019-05-31T12:12:42Z</time>
      </trkpt>
      <trkpt lat="44.42837" lon="5.51799">
        <ele>1206.7</ele>
        <time>2019-05-31T12:12:51Z</time>
      </trkpt>
      <trkpt lat="44.42841" lon="5.51786">
        <ele>1204.6</ele>
        <time>2019-05-31T12:13:02Z</time>
      </trkpt>
      <trkpt lat="44.42845" lon="5.51775">
        <ele>1202.6</ele>
        <time>2019-05-31T12:13:11Z</time>
      </trkpt>
      <trkpt lat="44.42849" lon="5.51763">
        <ele>1200.5</ele>
        <time>2019-05-31T12:13:21Z</time>
      </trkpt>
      <trkpt lat="44.42856" lon="5.51755">
        <ele>1198.7</ele>
        <time>2019-05-31T12:13:29Z</time>
      </trkpt>
      <trkpt lat="44.42865" lon="5.5175">
        <ele>1196.2</ele>
        <time>2019-05-31T12:13:43Z</time>
      </trkpt>
      <trkpt lat="44.42873" lon="5.5174">
        <ele>1194.8</ele>
        <time>2019-05-31T12:13:51Z</time>
      </trkpt>
      <trkpt lat="44.4288" lon="5.5173">
        <ele>1193.3</ele>
        <time>2019-05-31T12:13:59Z</time>
      </trkpt>
      <trkpt lat="44.42886" lon="5.5172">
        <ele>1191.8</ele>
        <time>2019-05-31T12:14:07Z</time>
      </trkpt>
      <trkpt lat="44.42893" lon="5.51711">
        <ele>1190.1</ele>
        <time>2019-05-31T12:14:16Z</time>
      </trkpt>
      <trkpt lat="44.42899" lon="5.517">
        <ele>1188.5</ele>
        <time>2019-05-31T12:14:25Z</time>
      </trkpt>
      <trkpt lat="44.42906" lon="5.51691">
        <ele>1186.5</ele>
        <time>2019-05-31T12:14:34Z</time>
      </trkpt>
      <trkpt lat="44.42914" lon="5.51683">
        <ele>1184.7</ele>
        <time>2019-05-31T12:14:44Z</time>
      </trkpt>
      <trkpt lat="44.42921" lon="5.51675">
        <ele>1183.1</ele>
        <time>2019-05-31T12:14:54Z</time>
      </trkpt>
      <trkpt lat="44.42928" lon="5.51665">
        <ele>1181.1</ele>
        <time>2019-05-31T12:15:04Z</time>
      </trkpt>
      <trkpt lat="44.42935" lon="5.51656">
        <ele>1179.5</ele>
        <time>2019-05-31T12:15:13Z</time>
      </trkpt>
      <trkpt lat="44.42942" lon="5.5165">
        <ele>1178</ele>
        <time>2019-05-31T12:15:21Z</time>
      </trkpt>
      <trkpt lat="44.42951" lon="5.51645">
        <ele>1176.6</ele>
        <time>2019-05-31T12:15:29Z</time>
      </trkpt>
      <trkpt lat="44.4296" lon="5.5164">
        <ele>1175.3</ele>
        <time>2019-05-31T12:15:37Z</time>
      </trkpt>
      <trkpt lat="44.42969" lon="5.51635">
        <ele>1173.8</ele>
        <time>2019-05-31T12:15:46Z</time>
      </trkpt>
      <trkpt lat="44.42977" lon="5.51628">
        <ele>1172.1</ele>
        <time>2019-05-31T12:15:55Z</time>
      </trkpt>
      <trkpt lat="44.42986" lon="5.5162">
        <ele>1170.5</ele>
        <time>2019-05-31T12:16:04Z</time>
      </trkpt>
      <trkpt lat="44.42993" lon="5.51612">
        <ele>1168.7</ele>
        <time>2019-05-31T12:16:14Z</time>
      </trkpt>
      <trkpt lat="44.43001" lon="5.51604">
        <ele>1167.5</ele>
        <time>2019-05-31T12:16:22Z</time>
      </trkpt>
      <trkpt lat="44.43007" lon="5.51594">
        <ele>1166.3</ele>
        <time>2019-05-31T12:16:30Z</time>
      </trkpt>
      <trkpt lat="44.43014" lon="5.51586">
        <ele>1165.3</ele>
        <time>2019-05-31T12:16:39Z</time>
      </trkpt>
      <trkpt lat="44.4302" lon="5.51575">
        <ele>1164.6</ele>
        <time>2019-05-31T12:16:48Z</time>
      </trkpt>
      <trkpt lat="44.43027" lon="5.51566">
        <ele>1163.7</ele>
        <time>2019-05-31T12:16:56Z</time>
      </trkpt>
      <trkpt lat="44.43033" lon="5.51557">
        <ele>1163.1</ele>
        <time>2019-05-31T12:17:03Z</time>
      </trkpt>
      <trkpt lat="44.43041" lon="5.51549">
        <ele>1162.5</ele>
        <time>2019-05-31T12:17:10Z</time>
      </trkpt>
      <trkpt lat="44.4305" lon="5.51543">
        <ele>1161.5</ele>
        <time>2019-05-31T12:17:18Z</time>
      </trkpt>
      <trkpt lat="44.43058" lon="5.51537">
        <ele>1160.7</ele>
        <time>2019-05-31T12:17:26Z</time>
      </trkpt>
      <trkpt lat="44.43067" lon="5.51533">
        <ele>1159.2</ele>
        <time>2019-05-31T12:17:35Z</time>
      </trkpt>
      <trkpt lat="44.43077" lon="5.51531">
        <ele>1157.3</ele>
        <time>2019-05-31T12:17:45Z</time>
      </trkpt>
      <trkpt lat="44.43087" lon="5.51529">
        <ele>1155.5</ele>
        <time>2019-05-31T12:17:54Z</time>
      </trkpt>
      <trkpt lat="44.43095" lon="5.51525">
        <ele>1152.1</ele>
        <time>2019-05-31T12:18:24Z</time>
      </trkpt>
      <trkpt lat="44.43105" lon="5.51527">
        <ele>1151.7</ele>
        <time>2019-05-31T12:18:33Z</time>
      </trkpt>
      <trkpt lat="44.43113" lon="5.5152">
        <ele>1150</ele>
        <time>2019-05-31T12:19:02Z</time>
      </trkpt>
      <trkpt lat="44.43119" lon="5.51509">
        <ele>1150</ele>
        <time>2019-05-31T12:19:11Z</time>
      </trkpt>
      <trkpt lat="44.43128" lon="5.51504">
        <ele>1151.3</ele>
        <time>2019-05-31T12:19:41Z</time>
      </trkpt>
      <trkpt lat="44.43137" lon="5.51499">
        <ele>1150.9</ele>
        <time>2019-05-31T12:19:48Z</time>
      </trkpt>
      <trkpt lat="44.43146" lon="5.51494">
        <ele>1150.8</ele>
        <time>2019-05-31T12:20:34Z</time>
      </trkpt>
      <trkpt lat="44.43155" lon="5.51491">
        <ele>1151</ele>
        <time>2019-05-31T12:21:26Z</time>
      </trkpt>
      <trkpt lat="44.43162" lon="5.51483">
        <ele>1151.1</ele>
        <time>2019-05-31T12:21:34Z</time>
      </trkpt>
      <trkpt lat="44.43169" lon="5.51472">
        <ele>1150.7</ele>
        <time>2019-05-31T12:21:43Z</time>
      </trkpt>
      <trkpt lat="44.43175" lon="5.51462">
        <ele>1149.7</ele>
        <time>2019-05-31T12:21:53Z</time>
      </trkpt>
      <trkpt lat="44.43181" lon="5.51453">
        <ele>1148.9</ele>
        <time>2019-05-31T12:22:01Z</time>
      </trkpt>
      <trkpt lat="44.43184" lon="5.5144">
        <ele>1146.9</ele>
        <time>2019-05-31T12:22:15Z</time>
      </trkpt>
      <trkpt lat="44.43187" lon="5.51428">
        <ele>1146.3</ele>
        <time>2019-05-31T12:22:23Z</time>
      </trkpt>
      <trkpt lat="44.43189" lon="5.51414">
        <ele>1145.9</ele>
        <time>2019-05-31T12:22:31Z</time>
      </trkpt>
      <trkpt lat="44.4319" lon="5.51401">
        <ele>1145.7</ele>
        <time>2019-05-31T12:22:38Z</time>
      </trkpt>
      <trkpt lat="44.43193" lon="5.51387">
        <ele>1145.9</ele>
        <time>2019-05-31T12:22:46Z</time>
      </trkpt>
      <trkpt lat="44.43197" lon="5.51375">
        <ele>1146</ele>
        <time>2019-05-31T12:22:53Z</time>
      </trkpt>
      <trkpt lat="44.43201" lon="5.51363">
        <ele>1146.2</ele>
        <time>2019-05-31T12:23:00Z</time>
      </trkpt>
      <trkpt lat="44.43204" lon="5.5135">
        <ele>1146.3</ele>
        <time>2019-05-31T12:23:06Z</time>
      </trkpt>
      <trkpt lat="44.43205" lon="5.51336">
        <ele>1146.4</ele>
        <time>2019-05-31T12:23:13Z</time>
      </trkpt>
      <trkpt lat="44.43205" lon="5.51321">
        <ele>1146.5</ele>
        <time>2019-05-31T12:23:20Z</time>
      </trkpt>
      <trkpt lat="44.43205" lon="5.51307">
        <ele>1146.4</ele>
        <time>2019-05-31T12:23:28Z</time>
      </trkpt>
      <trkpt lat="44.43203" lon="5.51293">
        <ele>1146.2</ele>
        <time>2019-05-31T12:23:35Z</time>
      </trkpt>
      <trkpt lat="44.43203" lon="5.51279">
        <ele>1146.1</ele>
        <time>2019-05-31T12:23:43Z</time>
      </trkpt>
      <trkpt lat="44.43202" lon="5.51267">
        <ele>1146.7</ele>
        <time>2019-05-31T12:23:51Z</time>
      </trkpt>
      <trkpt lat="44.43201" lon="5.51254">
        <ele>1146.8</ele>
        <time>2019-05-31T12:23:58Z</time>
      </trkpt>
      <trkpt lat="44.43198" lon="5.5124">
        <ele>1146.7</ele>
        <time>2019-05-31T12:24:06Z</time>
      </trkpt>
      <trkpt lat="44.43196" lon="5.51227">
        <ele>1146.1</ele>
        <time>2019-05-31T12:24:12Z</time>
      </trkpt>
      <trkpt lat="44.43193" lon="5.51214">
        <ele>1145.7</ele>
        <time>2019-05-31T12:24:18Z</time>
      </trkpt>
      <trkpt lat="44.4319" lon="5.51202">
        <ele>1145.4</ele>
        <time>2019-05-31T12:24:24Z</time>
      </trkpt>
      <trkpt lat="44.43188" lon="5.51188">
        <ele>1145.3</ele>
        <time>2019-05-31T12:24:30Z</time>
      </trkpt>
      <trkpt lat="44.43186" lon="5.51176">
        <ele>1145.6</ele>
        <time>2019-05-31T12:24:36Z</time>
      </trkpt>
      <trkpt lat="44.43185" lon="5.51161">
        <ele>1145.9</ele>
        <time>2019-05-31T12:24:43Z</time>
      </trkpt>
      <trkpt lat="44.43184" lon="5.51149">
        <ele>1146.5</ele>
        <time>2019-05-31T12:24:50Z</time>
      </trkpt>
      <trkpt lat="44.43185" lon="5.51135">
        <ele>1147.3</ele>
        <time>2019-05-31T12:24:58Z</time>
      </trkpt>
      <trkpt lat="44.43184" lon="5.51122">
        <ele>1148.2</ele>
        <time>2019-05-31T12:25:05Z</time>
      </trkpt>
      <trkpt lat="44.43184" lon="5.51108">
        <ele>1149.2</ele>
        <time>2019-05-31T12:25:12Z</time>
      </trkpt>
      <trkpt lat="44.43188" lon="5.51095">
        <ele>1150.2</ele>
        <time>2019-05-31T12:25:18Z</time>
      </trkpt>
      <trkpt lat="44.43194" lon="5.51083">
        <ele>1151.3</ele>
        <time>2019-05-31T12:25:24Z</time>
      </trkpt>
      <trkpt lat="44.43198" lon="5.51071">
        <ele>1152.3</ele>
        <time>2019-05-31T12:25:30Z</time>
      </trkpt>
      <trkpt lat="44.43201" lon="5.51059">
        <ele>1153.8</ele>
        <time>2019-05-31T12:25:36Z</time>
      </trkpt>
      <trkpt lat="44.43204" lon="5.51046">
        <ele>1155.7</ele>
        <time>2019-05-31T12:25:43Z</time>
      </trkpt>
      <trkpt lat="44.43207" lon="5.51034">
        <ele>1157.1</ele>
        <time>2019-05-31T12:25:49Z</time>
      </trkpt>
      <trkpt lat="44.43209" lon="5.51021">
        <ele>1159.2</ele>
        <time>2019-05-31T12:25:57Z</time>
      </trkpt>
      <trkpt lat="44.43212" lon="5.51007">
        <ele>1161.3</ele>
        <time>2019-05-31T12:26:05Z</time>
      </trkpt>
      <trkpt lat="44.43212" lon="5.50993">
        <ele>1163.2</ele>
        <time>2019-05-31T12:26:12Z</time>
      </trkpt>
      <trkpt lat="44.43214" lon="5.5098">
        <ele>1164.7</ele>
        <time>2019-05-31T12:26:19Z</time>
      </trkpt>
      <trkpt lat="44.43217" lon="5.50968">
        <ele>1166.3</ele>
        <time>2019-05-31T12:26:26Z</time>
      </trkpt>
      <trkpt lat="44.43218" lon="5.50954">
        <ele>1167.8</ele>
        <time>2019-05-31T12:26:33Z</time>
      </trkpt>
      <trkpt lat="44.4322" lon="5.5094">
        <ele>1169.3</ele>
        <time>2019-05-31T12:26:40Z</time>
      </trkpt>
      <trkpt lat="44.43222" lon="5.50926">
        <ele>1170.8</ele>
        <time>2019-05-31T12:26:47Z</time>
      </trkpt>
      <trkpt lat="44.43225" lon="5.50912">
        <ele>1172.1</ele>
        <time>2019-05-31T12:26:54Z</time>
      </trkpt>
      <trkpt lat="44.43226" lon="5.50898">
        <ele>1173.2</ele>
        <time>2019-05-31T12:27:00Z</time>
      </trkpt>
      <trkpt lat="44.43226" lon="5.50885">
        <ele>1174.3</ele>
        <time>2019-05-31T12:27:06Z</time>
      </trkpt>
      <trkpt lat="44.43226" lon="5.50871">
        <ele>1175.5</ele>
        <time>2019-05-31T12:27:13Z</time>
      </trkpt>
      <trkpt lat="44.43227" lon="5.50858">
        <ele>1176.6</ele>
        <time>2019-05-31T12:27:20Z</time>
      </trkpt>
      <trkpt lat="44.43234" lon="5.50849">
        <ele>1177.5</ele>
        <time>2019-05-31T12:27:29Z</time>
      </trkpt>
      <trkpt lat="44.43242" lon="5.50842">
        <ele>1177.1</ele>
        <time>2019-05-31T12:27:40Z</time>
      </trkpt>
      <trkpt lat="44.43248" lon="5.50832">
        <ele>1175.9</ele>
        <time>2019-05-31T12:27:49Z</time>
      </trkpt>
      <trkpt lat="44.43255" lon="5.50822">
        <ele>1174.5</ele>
        <time>2019-05-31T12:27:59Z</time>
      </trkpt>
      <trkpt lat="44.43262" lon="5.50812">
        <ele>1173.2</ele>
        <time>2019-05-31T12:28:06Z</time>
      </trkpt>
      <trkpt lat="44.43268" lon="5.50801">
        <ele>1171.7</ele>
        <time>2019-05-31T12:28:13Z</time>
      </trkpt>
      <trkpt lat="44.43273" lon="5.5079">
        <ele>1170</ele>
        <time>2019-05-31T12:28:21Z</time>
      </trkpt>
      <trkpt lat="44.43279" lon="5.50778">
        <ele>1168.1</ele>
        <time>2019-05-31T12:28:28Z</time>
      </trkpt>
      <trkpt lat="44.43282" lon="5.50767">
        <ele>1166.5</ele>
        <time>2019-05-31T12:28:35Z</time>
      </trkpt>
      <trkpt lat="44.43284" lon="5.50754">
        <ele>1164.3</ele>
        <time>2019-05-31T12:28:43Z</time>
      </trkpt>
      <trkpt lat="44.43284" lon="5.5074">
        <ele>1161.9</ele>
        <time>2019-05-31T12:28:52Z</time>
      </trkpt>
      <trkpt lat="44.43285" lon="5.50727">
        <ele>1159.3</ele>
        <time>2019-05-31T12:29:01Z</time>
      </trkpt>
      <trkpt lat="44.43288" lon="5.50714">
        <ele>1157.2</ele>
        <time>2019-05-31T12:29:09Z</time>
      </trkpt>
      <trkpt lat="44.43293" lon="5.50704">
        <ele>1155.2</ele>
        <time>2019-05-31T12:29:16Z</time>
      </trkpt>
      <trkpt lat="44.43299" lon="5.50694">
        <ele>1153.4</ele>
        <time>2019-05-31T12:29:23Z</time>
      </trkpt>
      <trkpt lat="44.43304" lon="5.50682">
        <ele>1150.9</ele>
        <time>2019-05-31T12:29:31Z</time>
      </trkpt>
      <trkpt lat="44.4331" lon="5.50672">
        <ele>1148.7</ele>
        <time>2019-05-31T12:29:39Z</time>
      </trkpt>
      <trkpt lat="44.43316" lon="5.50662">
        <ele>1146.7</ele>
        <time>2019-05-31T12:29:47Z</time>
      </trkpt>
      <trkpt lat="44.43324" lon="5.50652">
        <ele>1144.6</ele>
        <time>2019-05-31T12:29:55Z</time>
      </trkpt>
      <trkpt lat="44.43332" lon="5.50645">
        <ele>1142.6</ele>
        <time>2019-05-31T12:30:02Z</time>
      </trkpt>
      <trkpt lat="44.43339" lon="5.50636">
        <ele>1140.1</ele>
        <time>2019-05-31T12:30:11Z</time>
      </trkpt>
      <trkpt lat="44.43348" lon="5.50629">
        <ele>1137.7</ele>
        <time>2019-05-31T12:30:19Z</time>
      </trkpt>
      <trkpt lat="44.43355" lon="5.50623">
        <ele>1132.6</ele>
        <time>2019-05-31T12:30:53Z</time>
      </trkpt>
      <trkpt lat="44.43363" lon="5.50617">
        <ele>1131.6</ele>
        <time>2019-05-31T12:31:34Z</time>
      </trkpt>
      <trkpt lat="44.43372" lon="5.50611">
        <ele>1131.2</ele>
        <time>2019-05-31T12:31:45Z</time>
      </trkpt>
      <trkpt lat="44.4338" lon="5.50604">
        <ele>1130.4</ele>
        <time>2019-05-31T12:31:53Z</time>
      </trkpt>
      <trkpt lat="44.43388" lon="5.50597">
        <ele>1130.1</ele>
        <time>2019-05-31T12:32:00Z</time>
      </trkpt>
      <trkpt lat="44.43396" lon="5.50587">
        <ele>1129.9</ele>
        <time>2019-05-31T12:32:07Z</time>
      </trkpt>
      <trkpt lat="44.43401" lon="5.50577">
        <ele>1129.8</ele>
        <time>2019-05-31T12:32:13Z</time>
      </trkpt>
      <trkpt lat="44.43405" lon="5.50565">
        <ele>1129.7</ele>
        <time>2019-05-31T12:32:20Z</time>
      </trkpt>
      <trkpt lat="44.43409" lon="5.50552">
        <ele>1129.6</ele>
        <time>2019-05-31T12:32:28Z</time>
      </trkpt>
      <trkpt lat="44.43413" lon="5.5054">
        <ele>1129.8</ele>
        <time>2019-05-31T12:32:36Z</time>
      </trkpt>
      <trkpt lat="44.43418" lon="5.50527">
        <ele>1129.9</ele>
        <time>2019-05-31T12:32:44Z</time>
      </trkpt>
      <trkpt lat="44.43423" lon="5.50517">
        <ele>1130</ele>
        <time>2019-05-31T12:32:51Z</time>
      </trkpt>
      <trkpt lat="44.43429" lon="5.50506">
        <ele>1130.1</ele>
        <time>2019-05-31T12:32:57Z</time>
      </trkpt>
      <trkpt lat="44.43436" lon="5.50494">
        <ele>1130.1</ele>
        <time>2019-05-31T12:33:04Z</time>
      </trkpt>
      <trkpt lat="44.43442" lon="5.50484">
        <ele>1130.1</ele>
        <time>2019-05-31T12:33:10Z</time>
      </trkpt>
      <trkpt lat="44.43449" lon="5.50474">
        <ele>1129.9</ele>
        <time>2019-05-31T12:33:16Z</time>
      </trkpt>
      <trkpt lat="44.43454" lon="5.50462">
        <ele>1129.4</ele>
        <time>2019-05-31T12:33:23Z</time>
      </trkpt>
      <trkpt lat="44.43457" lon="5.50449">
        <ele>1128.7</ele>
        <time>2019-05-31T12:33:30Z</time>
      </trkpt>
      <trkpt lat="44.4346" lon="5.50436">
        <ele>1127.6</ele>
        <time>2019-05-31T12:33:37Z</time>
      </trkpt>
      <trkpt lat="44.43464" lon="5.50424">
        <ele>1126.2</ele>
        <time>2019-05-31T12:33:45Z</time>
      </trkpt>
      <trkpt lat="44.43471" lon="5.50415">
        <ele>1125</ele>
        <time>2019-05-31T12:33:51Z</time>
      </trkpt>
      <trkpt lat="44.4348" lon="5.50408">
        <ele>1123.1</ele>
        <time>2019-05-31T12:33:58Z</time>
      </trkpt>
      <trkpt lat="44.43489" lon="5.50405">
        <ele>1121.3</ele>
        <time>2019-05-31T12:34:06Z</time>
      </trkpt>
      <trkpt lat="44.43499" lon="5.50406">
        <ele>1119.3</ele>
        <time>2019-05-31T12:34:16Z</time>
      </trkpt>
      <trkpt lat="44.43508" lon="5.50408">
        <ele>1117.4</ele>
        <time>2019-05-31T12:34:23Z</time>
      </trkpt>
      <trkpt lat="44.43517" lon="5.50406">
        <ele>1115.6</ele>
        <time>2019-05-31T12:34:29Z</time>
      </trkpt>
      <trkpt lat="44.43523" lon="5.50395">
        <ele>1113.8</ele>
        <time>2019-05-31T12:34:36Z</time>
      </trkpt>
      <trkpt lat="44.43527" lon="5.50382">
        <ele>1112.2</ele>
        <time>2019-05-31T12:34:44Z</time>
      </trkpt>
      <trkpt lat="44.4353" lon="5.50369">
        <ele>1110.4</ele>
        <time>2019-05-31T12:34:51Z</time>
      </trkpt>
      <trkpt lat="44.43531" lon="5.50356">
        <ele>1108.3</ele>
        <time>2019-05-31T12:35:01Z</time>
      </trkpt>
      <trkpt lat="44.43531" lon="5.50343">
        <ele>1107</ele>
        <time>2019-05-31T12:35:09Z</time>
      </trkpt>
      <trkpt lat="44.43529" lon="5.50329">
        <ele>1105.5</ele>
        <time>2019-05-31T12:35:16Z</time>
      </trkpt>
      <trkpt lat="44.43524" lon="5.50317">
        <ele>1104</ele>
        <time>2019-05-31T12:35:23Z</time>
      </trkpt>
      <trkpt lat="44.4352" lon="5.50305">
        <ele>1102.6</ele>
        <time>2019-05-31T12:35:30Z</time>
      </trkpt>
      <trkpt lat="44.43516" lon="5.50294">
        <ele>1101</ele>
        <time>2019-05-31T12:35:37Z</time>
      </trkpt>
      <trkpt lat="44.43512" lon="5.50281">
        <ele>1099.5</ele>
        <time>2019-05-31T12:35:44Z</time>
      </trkpt>
      <trkpt lat="44.43507" lon="5.5027">
        <ele>1098.3</ele>
        <time>2019-05-31T12:35:51Z</time>
      </trkpt>
      <trkpt lat="44.43504" lon="5.50258">
        <ele>1097.2</ele>
        <time>2019-05-31T12:35:59Z</time>
      </trkpt>
      <trkpt lat="44.43499" lon="5.50245">
        <ele>1096.1</ele>
        <time>2019-05-31T12:36:07Z</time>
      </trkpt>
      <trkpt lat="44.43497" lon="5.50232">
        <ele>1094.9</ele>
        <time>2019-05-31T12:36:15Z</time>
      </trkpt>
      <trkpt lat="44.43495" lon="5.50219">
        <ele>1093.8</ele>
        <time>2019-05-31T12:36:22Z</time>
      </trkpt>
      <trkpt lat="44.43493" lon="5.50207">
        <ele>1092.6</ele>
        <time>2019-05-31T12:36:29Z</time>
      </trkpt>
      <trkpt lat="44.43492" lon="5.50193">
        <ele>1091.7</ele>
        <time>2019-05-31T12:36:36Z</time>
      </trkpt>
      <trkpt lat="44.4349" lon="5.50179">
        <ele>1090.7</ele>
        <time>2019-05-31T12:36:44Z</time>
      </trkpt>
      <trkpt lat="44.43489" lon="5.50165">
        <ele>1089.8</ele>
        <time>2019-05-31T12:36:52Z</time>
      </trkpt>
      <trkpt lat="44.43489" lon="5.50151">
        <ele>1088.7</ele>
        <time>2019-05-31T12:37:00Z</time>
      </trkpt>
      <trkpt lat="44.43488" lon="5.50138">
        <ele>1088.1</ele>
        <time>2019-05-31T12:37:07Z</time>
      </trkpt>
      <trkpt lat="44.43489" lon="5.50125">
        <ele>1087.5</ele>
        <time>2019-05-31T12:37:13Z</time>
      </trkpt>
      <trkpt lat="44.4349" lon="5.50112">
        <ele>1087</ele>
        <time>2019-05-31T12:37:21Z</time>
      </trkpt>
      <trkpt lat="44.4349" lon="5.50099">
        <ele>1086.5</ele>
        <time>2019-05-31T12:37:32Z</time>
      </trkpt>
      <trkpt lat="44.43494" lon="5.50085">
        <ele>1085.8</ele>
        <time>2019-05-31T12:37:40Z</time>
      </trkpt>
      <trkpt lat="44.43496" lon="5.50071">
        <ele>1085.5</ele>
        <time>2019-05-31T12:37:47Z</time>
      </trkpt>
      <trkpt lat="44.43496" lon="5.50057">
        <ele>1085.3</ele>
        <time>2019-05-31T12:37:54Z</time>
      </trkpt>
      <trkpt lat="44.43498" lon="5.50043">
        <ele>1085.1</ele>
        <time>2019-05-31T12:38:00Z</time>
      </trkpt>
      <trkpt lat="44.43499" lon="5.5003">
        <ele>1084.7</ele>
        <time>2019-05-31T12:38:06Z</time>
      </trkpt>
      <trkpt lat="44.43501" lon="5.50017">
        <ele>1084.2</ele>
        <time>2019-05-31T12:38:14Z</time>
      </trkpt>
      <trkpt lat="44.435" lon="5.50003">
        <ele>1083.3</ele>
        <time>2019-05-31T12:38:21Z</time>
      </trkpt>
      <trkpt lat="44.43501" lon="5.49989">
        <ele>1082.3</ele>
        <time>2019-05-31T12:38:28Z</time>
      </trkpt>
      <trkpt lat="44.43501" lon="5.49975">
        <ele>1081.4</ele>
        <time>2019-05-31T12:38:35Z</time>
      </trkpt>
      <trkpt lat="44.435" lon="5.49962">
        <ele>1080.2</ele>
        <time>2019-05-31T12:38:42Z</time>
      </trkpt>
      <trkpt lat="44.43501" lon="5.49949">
        <ele>1079.2</ele>
        <time>2019-05-31T12:38:49Z</time>
      </trkpt>
      <trkpt lat="44.43506" lon="5.49937">
        <ele>1078.1</ele>
        <time>2019-05-31T12:38:57Z</time>
      </trkpt>
      <trkpt lat="44.43512" lon="5.49926">
        <ele>1077</ele>
        <time>2019-05-31T12:39:05Z</time>
      </trkpt>
      <trkpt lat="44.43517" lon="5.49916">
        <ele>1075.7</ele>
        <time>2019-05-31T12:39:13Z</time>
      </trkpt>
      <trkpt lat="44.43521" lon="5.49905">
        <ele>1074.5</ele>
        <time>2019-05-31T12:39:21Z</time>
      </trkpt>
      <trkpt lat="44.43524" lon="5.49893">
        <ele>1073.4</ele>
        <time>2019-05-31T12:39:31Z</time>
      </trkpt>
      <trkpt lat="44.43525" lon="5.49879">
        <ele>1073</ele>
        <time>2019-05-31T12:39:39Z</time>
      </trkpt>
      <trkpt lat="44.43525" lon="5.49865">
        <ele>1073.2</ele>
        <time>2019-05-31T12:39:46Z</time>
      </trkpt>
      <trkpt lat="44.43527" lon="5.49853">
        <ele>1073.6</ele>
        <time>2019-05-31T12:39:53Z</time>
      </trkpt>
      <trkpt lat="44.43526" lon="5.49839">
        <ele>1074</ele>
        <time>2019-05-31T12:40:00Z</time>
      </trkpt>
      <trkpt lat="44.43528" lon="5.49826">
        <ele>1074.4</ele>
        <time>2019-05-31T12:40:07Z</time>
      </trkpt>
      <trkpt lat="44.43529" lon="5.49812">
        <ele>1075.4</ele>
        <time>2019-05-31T12:40:14Z</time>
      </trkpt>
      <trkpt lat="44.43531" lon="5.49798">
        <ele>1076.5</ele>
        <time>2019-05-31T12:40:21Z</time>
      </trkpt>
      <trkpt lat="44.43532" lon="5.49784">
        <ele>1077.2</ele>
        <time>2019-05-31T12:40:28Z</time>
      </trkpt>
      <trkpt lat="44.43533" lon="5.4977">
        <ele>1077.8</ele>
        <time>2019-05-31T12:40:35Z</time>
      </trkpt>
      <trkpt lat="44.43534" lon="5.49756">
        <ele>1078.4</ele>
        <time>2019-05-31T12:40:42Z</time>
      </trkpt>
      <trkpt lat="44.43536" lon="5.49744">
        <ele>1078.9</ele>
        <time>2019-05-31T12:40:49Z</time>
      </trkpt>
      <trkpt lat="44.43538" lon="5.49732">
        <ele>1079.5</ele>
        <time>2019-05-31T12:40:56Z</time>
      </trkpt>
      <trkpt lat="44.43539" lon="5.49717">
        <ele>1079.7</ele>
        <time>2019-05-31T12:41:04Z</time>
      </trkpt>
      <trkpt lat="44.43539" lon="5.49704">
        <ele>1079.5</ele>
        <time>2019-05-31T12:41:10Z</time>
      </trkpt>
      <trkpt lat="44.4354" lon="5.4969">
        <ele>1079.4</ele>
        <time>2019-05-31T12:41:16Z</time>
      </trkpt>
      <trkpt lat="44.43541" lon="5.49676">
        <ele>1079.4</ele>
        <time>2019-05-31T12:41:22Z</time>
      </trkpt>
      <trkpt lat="44.43542" lon="5.49663">
        <ele>1079.5</ele>
        <time>2019-05-31T12:41:28Z</time>
      </trkpt>
      <trkpt lat="44.43543" lon="5.49649">
        <ele>1080.1</ele>
        <time>2019-05-31T12:41:35Z</time>
      </trkpt>
      <trkpt lat="44.43543" lon="5.49636">
        <ele>1081</ele>
        <time>2019-05-31T12:41:42Z</time>
      </trkpt>
      <trkpt lat="44.43544" lon="5.49623">
        <ele>1081.8</ele>
        <time>2019-05-31T12:41:48Z</time>
      </trkpt>
      <trkpt lat="44.43546" lon="5.4961">
        <ele>1082.6</ele>
        <time>2019-05-31T12:41:54Z</time>
      </trkpt>
      <trkpt lat="44.43547" lon="5.49596">
        <ele>1083.7</ele>
        <time>2019-05-31T12:42:01Z</time>
      </trkpt>
      <trkpt lat="44.4355" lon="5.49582">
        <ele>1084.6</ele>
        <time>2019-05-31T12:42:07Z</time>
      </trkpt>
      <trkpt lat="44.4355" lon="5.49569">
        <ele>1085.6</ele>
        <time>2019-05-31T12:42:13Z</time>
      </trkpt>
      <trkpt lat="44.43549" lon="5.49556">
        <ele>1086.6</ele>
        <time>2019-05-31T12:42:20Z</time>
      </trkpt>
      <trkpt lat="44.43548" lon="5.49543">
        <ele>1087.4</ele>
        <time>2019-05-31T12:42:27Z</time>
      </trkpt>
      <trkpt lat="44.43548" lon="5.4953">
        <ele>1088.2</ele>
        <time>2019-05-31T12:42:35Z</time>
      </trkpt>
      <trkpt lat="44.43548" lon="5.49515">
        <ele>1089.4</ele>
        <time>2019-05-31T12:42:43Z</time>
      </trkpt>
      <trkpt lat="44.4355" lon="5.49503">
        <ele>1090.3</ele>
        <time>2019-05-31T12:42:49Z</time>
      </trkpt>
      <trkpt lat="44.43552" lon="5.4949">
        <ele>1091.5</ele>
        <time>2019-05-31T12:42:56Z</time>
      </trkpt>
      <trkpt lat="44.43554" lon="5.49476">
        <ele>1092.2</ele>
        <time>2019-05-31T12:43:02Z</time>
      </trkpt>
      <trkpt lat="44.43554" lon="5.49463">
        <ele>1093</ele>
        <time>2019-05-31T12:43:10Z</time>
      </trkpt>
      <trkpt lat="44.43555" lon="5.49449">
        <ele>1093.8</ele>
        <time>2019-05-31T12:43:18Z</time>
      </trkpt>
      <trkpt lat="44.43556" lon="5.49436">
        <ele>1094.9</ele>
        <time>2019-05-31T12:43:26Z</time>
      </trkpt>
      <trkpt lat="44.43556" lon="5.49422">
        <ele>1095.7</ele>
        <time>2019-05-31T12:43:33Z</time>
      </trkpt>
      <trkpt lat="44.43557" lon="5.49408">
        <ele>1096.2</ele>
        <time>2019-05-31T12:43:40Z</time>
      </trkpt>
      <trkpt lat="44.43558" lon="5.49395">
        <ele>1096.7</ele>
        <time>2019-05-31T12:43:46Z</time>
      </trkpt>
      <trkpt lat="44.43561" lon="5.49383">
        <ele>1097.2</ele>
        <time>2019-05-31T12:43:53Z</time>
      </trkpt>
      <trkpt lat="44.43563" lon="5.49371">
        <ele>1097.7</ele>
        <time>2019-05-31T12:43:59Z</time>
      </trkpt>
      <trkpt lat="44.43567" lon="5.49358">
        <ele>1098.5</ele>
        <time>2019-05-31T12:44:05Z</time>
      </trkpt>
      <trkpt lat="44.43574" lon="5.49348">
        <ele>1099.4</ele>
        <time>2019-05-31T12:44:12Z</time>
      </trkpt>
      <trkpt lat="44.43583" lon="5.49342">
        <ele>1100.3</ele>
        <time>2019-05-31T12:44:19Z</time>
      </trkpt>
      <trkpt lat="44.43589" lon="5.49333">
        <ele>1101</ele>
        <time>2019-05-31T12:44:26Z</time>
      </trkpt>
      <trkpt lat="44.43593" lon="5.49319">
        <ele>1101.9</ele>
        <time>2019-05-31T12:44:33Z</time>
      </trkpt>
      <trkpt lat="44.43594" lon="5.49306">
        <ele>1102.5</ele>
        <time>2019-05-31T12:44:39Z</time>
      </trkpt>
      <trkpt lat="44.43594" lon="5.49292">
        <ele>1102.7</ele>
        <time>2019-05-31T12:44:45Z</time>
      </trkpt>
      <trkpt lat="44.43595" lon="5.49278">
        <ele>1102.9</ele>
        <time>2019-05-31T12:44:52Z</time>
      </trkpt>
      <trkpt lat="44.43601" lon="5.49266">
        <ele>1103.1</ele>
        <time>2019-05-31T12:44:59Z</time>
      </trkpt>
      <trkpt lat="44.43603" lon="5.49252">
        <ele>1103.9</ele>
        <time>2019-05-31T12:45:11Z</time>
      </trkpt>
      <trkpt lat="44.43604" lon="5.49239">
        <ele>1104.4</ele>
        <time>2019-05-31T12:45:19Z</time>
      </trkpt>
      <trkpt lat="44.43611" lon="5.4923">
        <ele>1105.1</ele>
        <time>2019-05-31T12:45:27Z</time>
      </trkpt>
      <trkpt lat="44.43614" lon="5.49218">
        <ele>1105.7</ele>
        <time>2019-05-31T12:45:35Z</time>
      </trkpt>
      <trkpt lat="44.43619" lon="5.49206">
        <ele>1106.7</ele>
        <time>2019-05-31T12:45:42Z</time>
      </trkpt>
      <trkpt lat="44.43629" lon="5.49208">
        <ele>1107.7</ele>
        <time>2019-05-31T12:45:54Z</time>
      </trkpt>
      <trkpt lat="44.43637" lon="5.49201">
        <ele>1107.7</ele>
        <time>2019-05-31T12:46:01Z</time>
      </trkpt>
      <trkpt lat="44.43644" lon="5.49191">
        <ele>1107.8</ele>
        <time>2019-05-31T12:46:09Z</time>
      </trkpt>
      <trkpt lat="44.43651" lon="5.49182">
        <ele>1107.8</ele>
        <time>2019-05-31T12:46:16Z</time>
      </trkpt>
      <trkpt lat="44.43658" lon="5.49175">
        <ele>1107.8</ele>
        <time>2019-05-31T12:46:23Z</time>
      </trkpt>
      <trkpt lat="44.43667" lon="5.49168">
        <ele>1108.2</ele>
        <time>2019-05-31T12:46:30Z</time>
      </trkpt>
      <trkpt lat="44.43675" lon="5.49163">
        <ele>1108.9</ele>
        <time>2019-05-31T12:46:37Z</time>
      </trkpt>
      <trkpt lat="44.43684" lon="5.49159">
        <ele>1109.6</ele>
        <time>2019-05-31T12:46:44Z</time>
      </trkpt>
      <trkpt lat="44.43693" lon="5.49153">
        <ele>1110.3</ele>
        <time>2019-05-31T12:46:51Z</time>
      </trkpt>
      <trkpt lat="44.43697" lon="5.49142">
        <ele>1111.5</ele>
        <time>2019-05-31T12:46:58Z</time>
      </trkpt>
      <trkpt lat="44.43697" lon="5.49128">
        <ele>1113.2</ele>
        <time>2019-05-31T12:47:06Z</time>
      </trkpt>
      <trkpt lat="44.43697" lon="5.49114">
        <ele>1114.3</ele>
        <time>2019-05-31T12:47:13Z</time>
      </trkpt>
      <trkpt lat="44.43698" lon="5.49101">
        <ele>1115.2</ele>
        <time>2019-05-31T12:47:20Z</time>
      </trkpt>
      <trkpt lat="44.43696" lon="5.49086">
        <ele>1115.8</ele>
        <time>2019-05-31T12:47:27Z</time>
      </trkpt>
      <trkpt lat="44.43694" lon="5.49074">
        <ele>1116.2</ele>
        <time>2019-05-31T12:47:34Z</time>
      </trkpt>
      <trkpt lat="44.43693" lon="5.4906">
        <ele>1116.4</ele>
        <time>2019-05-31T12:47:41Z</time>
      </trkpt>
      <trkpt lat="44.43695" lon="5.49048">
        <ele>1116.3</ele>
        <time>2019-05-31T12:47:48Z</time>
      </trkpt>
      <trkpt lat="44.43694" lon="5.49034">
        <ele>1114.2</ele>
        <time>2019-05-31T12:49:24Z</time>
      </trkpt>
      <trkpt lat="44.43694" lon="5.49021">
        <ele>1113.9</ele>
        <time>2019-05-31T12:49:31Z</time>
      </trkpt>
      <trkpt lat="44.43693" lon="5.49007">
        <ele>1113.8</ele>
        <time>2019-05-31T12:49:38Z</time>
      </trkpt>
      <trkpt lat="44.43692" lon="5.48993">
        <ele>1112.9</ele>
        <time>2019-05-31T12:49:46Z</time>
      </trkpt>
      <trkpt lat="44.43691" lon="5.4898">
        <ele>1112.4</ele>
        <time>2019-05-31T12:49:53Z</time>
      </trkpt>
      <trkpt lat="44.43693" lon="5.48967">
        <ele>1111.7</ele>
        <time>2019-05-31T12:50:00Z</time>
      </trkpt>
      <trkpt lat="44.43693" lon="5.48953">
        <ele>1110.9</ele>
        <time>2019-05-31T12:50:07Z</time>
      </trkpt>
      <trkpt lat="44.43692" lon="5.48939">
        <ele>1110.4</ele>
        <time>2019-05-31T12:50:14Z</time>
      </trkpt>
      <trkpt lat="44.43688" lon="5.48926">
        <ele>1109.5</ele>
        <time>2019-05-31T12:50:21Z</time>
      </trkpt>
      <trkpt lat="44.4368" lon="5.48918">
        <ele>1107.9</ele>
        <time>2019-05-31T12:50:30Z</time>
      </trkpt>
      <trkpt lat="44.43679" lon="5.48904">
        <ele>1106.2</ele>
        <time>2019-05-31T12:50:39Z</time>
      </trkpt>
      <trkpt lat="44.43688" lon="5.48899">
        <ele>1104.9</ele>
        <time>2019-05-31T12:50:46Z</time>
      </trkpt>
      <trkpt lat="44.43694" lon="5.48889">
        <ele>1103.6</ele>
        <time>2019-05-31T12:50:54Z</time>
      </trkpt>
      <trkpt lat="44.43701" lon="5.4888">
        <ele>1102.3</ele>
        <time>2019-05-31T12:51:02Z</time>
      </trkpt>
      <trkpt lat="44.43703" lon="5.48867">
        <ele>1101.3</ele>
        <time>2019-05-31T12:51:09Z</time>
      </trkpt>
      <trkpt lat="44.437" lon="5.48854">
        <ele>1100</ele>
        <time>2019-05-31T12:51:17Z</time>
      </trkpt>
      <trkpt lat="44.43697" lon="5.4884">
        <ele>1099.1</ele>
        <time>2019-05-31T12:51:24Z</time>
      </trkpt>
      <trkpt lat="44.43694" lon="5.48827">
        <ele>1097.8</ele>
        <time>2019-05-31T12:51:31Z</time>
      </trkpt>
      <trkpt lat="44.43692" lon="5.48814">
        <ele>1096.8</ele>
        <time>2019-05-31T12:51:38Z</time>
      </trkpt>
      <trkpt lat="44.43689" lon="5.488">
        <ele>1096</ele>
        <time>2019-05-31T12:51:45Z</time>
      </trkpt>
      <trkpt lat="44.43686" lon="5.48787">
        <ele>1094.9</ele>
        <time>2019-05-31T12:51:52Z</time>
      </trkpt>
      <trkpt lat="44.43686" lon="5.48774">
        <ele>1093.9</ele>
        <time>2019-05-31T12:51:58Z</time>
      </trkpt>
      <trkpt lat="44.43688" lon="5.48759">
        <ele>1092.9</ele>
        <time>2019-05-31T12:52:05Z</time>
      </trkpt>
      <trkpt lat="44.43691" lon="5.48747">
        <ele>1092</ele>
        <time>2019-05-31T12:52:11Z</time>
      </trkpt>
      <trkpt lat="44.43696" lon="5.48734">
        <ele>1091.1</ele>
        <time>2019-05-31T12:52:18Z</time>
      </trkpt>
      <trkpt lat="44.43702" lon="5.48723">
        <ele>1090.3</ele>
        <time>2019-05-31T12:52:25Z</time>
      </trkpt>
      <trkpt lat="44.43708" lon="5.48713">
        <ele>1089.5</ele>
        <time>2019-05-31T12:52:32Z</time>
      </trkpt>
      <trkpt lat="44.43712" lon="5.487">
        <ele>1088.9</ele>
        <time>2019-05-31T12:52:39Z</time>
      </trkpt>
      <trkpt lat="44.43714" lon="5.48687">
        <ele>1088.1</ele>
        <time>2019-05-31T12:52:46Z</time>
      </trkpt>
      <trkpt lat="44.43715" lon="5.48673">
        <ele>1087</ele>
        <time>2019-05-31T12:52:54Z</time>
      </trkpt>
      <trkpt lat="44.43716" lon="5.4866">
        <ele>1086.3</ele>
        <time>2019-05-31T12:53:02Z</time>
      </trkpt>
      <trkpt lat="44.4372" lon="5.48647">
        <ele>1085.6</ele>
        <time>2019-05-31T12:53:09Z</time>
      </trkpt>
      <trkpt lat="44.43725" lon="5.48636">
        <ele>1084.7</ele>
        <time>2019-05-31T12:53:15Z</time>
      </trkpt>
      <trkpt lat="44.43726" lon="5.48622">
        <ele>1083.9</ele>
        <time>2019-05-31T12:53:22Z</time>
      </trkpt>
      <trkpt lat="44.43728" lon="5.48609">
        <ele>1082.9</ele>
        <time>2019-05-31T12:53:30Z</time>
      </trkpt>
      <trkpt lat="44.4373" lon="5.48595">
        <ele>1082.3</ele>
        <time>2019-05-31T12:53:37Z</time>
      </trkpt>
      <trkpt lat="44.4373" lon="5.48582">
        <ele>1082</ele>
        <time>2019-05-31T12:53:43Z</time>
      </trkpt>
      <trkpt lat="44.43733" lon="5.48566">
        <ele>1082</ele>
        <time>2019-05-31T12:53:49Z</time>
      </trkpt>
      <trkpt lat="44.43736" lon="5.48552">
        <ele>1082</ele>
        <time>2019-05-31T12:53:55Z</time>
      </trkpt>
      <trkpt lat="44.43736" lon="5.48538">
        <ele>1082</ele>
        <time>2019-05-31T12:54:02Z</time>
      </trkpt>
      <trkpt lat="44.43737" lon="5.48524">
        <ele>1082</ele>
        <time>2019-05-31T12:54:10Z</time>
      </trkpt>
      <trkpt lat="44.43739" lon="5.48511">
        <ele>1082</ele>
        <time>2019-05-31T12:54:18Z</time>
      </trkpt>
      <trkpt lat="44.4374" lon="5.48498">
        <ele>1082.1</ele>
        <time>2019-05-31T12:54:25Z</time>
      </trkpt>
      <trkpt lat="44.43741" lon="5.48485">
        <ele>1081.9</ele>
        <time>2019-05-31T12:54:32Z</time>
      </trkpt>
      <trkpt lat="44.43742" lon="5.48471">
        <ele>1081.6</ele>
        <time>2019-05-31T12:54:39Z</time>
      </trkpt>
      <trkpt lat="44.43742" lon="5.48457">
        <ele>1081.4</ele>
        <time>2019-05-31T12:54:46Z</time>
      </trkpt>
      <trkpt lat="44.43742" lon="5.48444">
        <ele>1081.1</ele>
        <time>2019-05-31T12:54:52Z</time>
      </trkpt>
      <trkpt lat="44.43742" lon="5.4843">
        <ele>1080.7</ele>
        <time>2019-05-31T12:54:58Z</time>
      </trkpt>
      <trkpt lat="44.43742" lon="5.48416">
        <ele>1080.2</ele>
        <time>2019-05-31T12:55:04Z</time>
      </trkpt>
      <trkpt lat="44.43742" lon="5.48402">
        <ele>1079.8</ele>
        <time>2019-05-31T12:55:10Z</time>
      </trkpt>
      <trkpt lat="44.43741" lon="5.48389">
        <ele>1079.5</ele>
        <time>2019-05-31T12:55:16Z</time>
      </trkpt>
      <trkpt lat="44.43738" lon="5.48376">
        <ele>1079.3</ele>
        <time>2019-05-31T12:55:23Z</time>
      </trkpt>
      <trkpt lat="44.43735" lon="5.48364">
        <ele>1079</ele>
        <time>2019-05-31T12:55:31Z</time>
      </trkpt>
      <trkpt lat="44.43739" lon="5.48352">
        <ele>1078.7</ele>
        <time>2019-05-31T12:55:38Z</time>
      </trkpt>
      <trkpt lat="44.43746" lon="5.48344">
        <ele>1078.5</ele>
        <time>2019-05-31T12:55:45Z</time>
      </trkpt>
      <trkpt lat="44.43752" lon="5.48334">
        <ele>1078.4</ele>
        <time>2019-05-31T12:55:52Z</time>
      </trkpt>
      <trkpt lat="44.43757" lon="5.48322">
        <ele>1078.3</ele>
        <time>2019-05-31T12:55:59Z</time>
      </trkpt>
      <trkpt lat="44.43759" lon="5.48308">
        <ele>1078</ele>
        <time>2019-05-31T12:56:06Z</time>
      </trkpt>
      <trkpt lat="44.4376" lon="5.48295">
        <ele>1077.5</ele>
        <time>2019-05-31T12:56:12Z</time>
      </trkpt>
      <trkpt lat="44.43759" lon="5.4828">
        <ele>1077.1</ele>
        <time>2019-05-31T12:56:18Z</time>
      </trkpt>
      <trkpt lat="44.43759" lon="5.48267">
        <ele>1076.6</ele>
        <time>2019-05-31T12:56:24Z</time>
      </trkpt>
      <trkpt lat="44.43758" lon="5.48254">
        <ele>1076.3</ele>
        <time>2019-05-31T12:56:30Z</time>
      </trkpt>
      <trkpt lat="44.43757" lon="5.4824">
        <ele>1076.1</ele>
        <time>2019-05-31T12:56:37Z</time>
      </trkpt>
      <trkpt lat="44.43755" lon="5.48227">
        <ele>1076.1</ele>
        <time>2019-05-31T12:56:44Z</time>
      </trkpt>
      <trkpt lat="44.43755" lon="5.48214">
        <ele>1076.1</ele>
        <time>2019-05-31T12:56:51Z</time>
      </trkpt>
      <trkpt lat="44.43756" lon="5.482">
        <ele>1076.4</ele>
        <time>2019-05-31T12:56:58Z</time>
      </trkpt>
      <trkpt lat="44.43758" lon="5.48188">
        <ele>1076.6</ele>
        <time>2019-05-31T12:57:05Z</time>
      </trkpt>
      <trkpt lat="44.43761" lon="5.48175">
        <ele>1076.8</ele>
        <time>2019-05-31T12:57:13Z</time>
      </trkpt>
      <trkpt lat="44.43764" lon="5.48162">
        <ele>1077.3</ele>
        <time>2019-05-31T12:57:21Z</time>
      </trkpt>
      <trkpt lat="44.43769" lon="5.4815">
        <ele>1077.6</ele>
        <time>2019-05-31T12:57:28Z</time>
      </trkpt>
      <trkpt lat="44.43775" lon="5.48141">
        <ele>1077.8</ele>
        <time>2019-05-31T12:57:34Z</time>
      </trkpt>
      <trkpt lat="44.43783" lon="5.48133">
        <ele>1078.1</ele>
        <time>2019-05-31T12:57:40Z</time>
      </trkpt>
      <trkpt lat="44.4379" lon="5.48125">
        <ele>1078.5</ele>
        <time>2019-05-31T12:57:47Z</time>
      </trkpt>
      <trkpt lat="44.43796" lon="5.48114">
        <ele>1078.9</ele>
        <time>2019-05-31T12:57:54Z</time>
      </trkpt>
      <trkpt lat="44.43799" lon="5.48101">
        <ele>1079.1</ele>
        <time>2019-05-31T12:58:00Z</time>
      </trkpt>
      <trkpt lat="44.43804" lon="5.48089">
        <ele>1078.9</ele>
        <time>2019-05-31T12:58:07Z</time>
      </trkpt>
      <trkpt lat="44.43809" lon="5.48076">
        <ele>1079.3</ele>
        <time>2019-05-31T12:58:15Z</time>
      </trkpt>
      <trkpt lat="44.43815" lon="5.48066">
        <ele>1079.5</ele>
        <time>2019-05-31T12:58:22Z</time>
      </trkpt>
      <trkpt lat="44.43821" lon="5.48055">
        <ele>1079.8</ele>
        <time>2019-05-31T12:58:28Z</time>
      </trkpt>
      <trkpt lat="44.43827" lon="5.48045">
        <ele>1080.4</ele>
        <time>2019-05-31T12:58:34Z</time>
      </trkpt>
      <trkpt lat="44.43834" lon="5.48036">
        <ele>1080.8</ele>
        <time>2019-05-31T12:58:40Z</time>
      </trkpt>
      <trkpt lat="44.43841" lon="5.48027">
        <ele>1081.1</ele>
        <time>2019-05-31T12:58:46Z</time>
      </trkpt>
      <trkpt lat="44.43848" lon="5.48018">
        <ele>1081</ele>
        <time>2019-05-31T12:58:52Z</time>
      </trkpt>
      <trkpt lat="44.43856" lon="5.4801">
        <ele>1081</ele>
        <time>2019-05-31T12:58:59Z</time>
      </trkpt>
      <trkpt lat="44.43864" lon="5.48001">
        <ele>1080.9</ele>
        <time>2019-05-31T12:59:06Z</time>
      </trkpt>
      <trkpt lat="44.43871" lon="5.47994">
        <ele>1080.9</ele>
        <time>2019-05-31T12:59:12Z</time>
      </trkpt>
      <trkpt lat="44.4388" lon="5.47986">
        <ele>1081.1</ele>
        <time>2019-05-31T12:59:19Z</time>
      </trkpt>
      <trkpt lat="44.43889" lon="5.47978">
        <ele>1081.2</ele>
        <time>2019-05-31T12:59:26Z</time>
      </trkpt>
      <trkpt lat="44.43897" lon="5.47972">
        <ele>1081.2</ele>
        <time>2019-05-31T12:59:32Z</time>
      </trkpt>
      <trkpt lat="44.43906" lon="5.47968">
        <ele>1081.1</ele>
        <time>2019-05-31T12:59:38Z</time>
      </trkpt>
      <trkpt lat="44.43915" lon="5.47964">
        <ele>1081</ele>
        <time>2019-05-31T12:59:45Z</time>
      </trkpt>
      <trkpt lat="44.43925" lon="5.47965">
        <ele>1081</ele>
        <time>2019-05-31T12:59:52Z</time>
      </trkpt>
      <trkpt lat="44.43934" lon="5.47971">
        <ele>1081.4</ele>
        <time>2019-05-31T13:00:00Z</time>
      </trkpt>
      <trkpt lat="44.43942" lon="5.47979">
        <ele>1082.2</ele>
        <time>2019-05-31T13:00:07Z</time>
      </trkpt>
      <trkpt lat="44.43948" lon="5.47988">
        <ele>1083.3</ele>
        <time>2019-05-31T13:00:14Z</time>
      </trkpt>
      <trkpt lat="44.43955" lon="5.47998">
        <ele>1084.5</ele>
        <time>2019-05-31T13:00:21Z</time>
      </trkpt>
      <trkpt lat="44.43963" lon="5.48007">
        <ele>1086</ele>
        <time>2019-05-31T13:00:28Z</time>
      </trkpt>
      <trkpt lat="44.43973" lon="5.48007">
        <ele>1087.5</ele>
        <time>2019-05-31T13:00:35Z</time>
      </trkpt>
      <trkpt lat="44.43979" lon="5.47997">
        <ele>1088.9</ele>
        <time>2019-05-31T13:00:43Z</time>
      </trkpt>
      <trkpt lat="44.43982" lon="5.47984">
        <ele>1090.4</ele>
        <time>2019-05-31T13:00:51Z</time>
      </trkpt>
      <trkpt lat="44.43985" lon="5.4797">
        <ele>1091.7</ele>
        <time>2019-05-31T13:00:58Z</time>
      </trkpt>
      <trkpt lat="44.43988" lon="5.47957">
        <ele>1092.5</ele>
        <time>2019-05-31T13:01:04Z</time>
      </trkpt>
      <trkpt lat="44.43989" lon="5.47943">
        <ele>1093.4</ele>
        <time>2019-05-31T13:01:11Z</time>
      </trkpt>
      <trkpt lat="44.4399" lon="5.47929">
        <ele>1094.4</ele>
        <time>2019-05-31T13:01:18Z</time>
      </trkpt>
      <trkpt lat="44.4399" lon="5.47916">
        <ele>1095.1</ele>
        <time>2019-05-31T13:01:25Z</time>
      </trkpt>
      <trkpt lat="44.4399" lon="5.47903">
        <ele>1095.9</ele>
        <time>2019-05-31T13:01:32Z</time>
      </trkpt>
      <trkpt lat="44.43989" lon="5.47889">
        <ele>1096.8</ele>
        <time>2019-05-31T13:01:39Z</time>
      </trkpt>
      <trkpt lat="44.43987" lon="5.47876">
        <ele>1097.6</ele>
        <time>2019-05-31T13:01:46Z</time>
      </trkpt>
      <trkpt lat="44.43986" lon="5.47863">
        <ele>1098.4</ele>
        <time>2019-05-31T13:01:52Z</time>
      </trkpt>
      <trkpt lat="44.43984" lon="5.4785">
        <ele>1099.5</ele>
        <time>2019-05-31T13:01:59Z</time>
      </trkpt>
      <trkpt lat="44.43981" lon="5.47837">
        <ele>1101</ele>
        <time>2019-05-31T13:02:11Z</time>
      </trkpt>
      <trkpt lat="44.43977" lon="5.47825">
        <ele>1103.9</ele>
        <time>2019-05-31T13:02:55Z</time>
      </trkpt>
      <trkpt lat="44.43969" lon="5.47817">
        <ele>1104.1</ele>
        <time>2019-05-31T13:03:16Z</time>
      </trkpt>
      <trkpt lat="44.43964" lon="5.47807">
        <ele>1104.1</ele>
        <time>2019-05-31T13:03:23Z</time>
      </trkpt>
      <trkpt lat="44.43956" lon="5.47799">
        <ele>1104.3</ele>
        <time>2019-05-31T13:03:31Z</time>
      </trkpt>
      <trkpt lat="44.43951" lon="5.47788">
        <ele>1104.6</ele>
        <time>2019-05-31T13:05:56Z</time>
      </trkpt>
      <trkpt lat="44.43947" lon="5.47777">
        <ele>1104.5</ele>
        <time>2019-05-31T13:06:04Z</time>
      </trkpt>
      <trkpt lat="44.43942" lon="5.47764">
        <ele>1104.5</ele>
        <time>2019-05-31T13:06:11Z</time>
      </trkpt>
      <trkpt lat="44.43936" lon="5.47753">
        <ele>1104.7</ele>
        <time>2019-05-31T13:06:18Z</time>
      </trkpt>
      <trkpt lat="44.43933" lon="5.4774">
        <ele>1105.4</ele>
        <time>2019-05-31T13:06:25Z</time>
      </trkpt>
      <trkpt lat="44.43929" lon="5.47728">
        <ele>1106.3</ele>
        <time>2019-05-31T13:06:32Z</time>
      </trkpt>
      <trkpt lat="44.43925" lon="5.47716">
        <ele>1106.9</ele>
        <time>2019-05-31T13:06:39Z</time>
      </trkpt>
      <trkpt lat="44.43922" lon="5.47702">
        <ele>1107.5</ele>
        <time>2019-05-31T13:06:46Z</time>
      </trkpt>
      <trkpt lat="44.4392" lon="5.4769">
        <ele>1107.9</ele>
        <time>2019-05-31T13:06:52Z</time>
      </trkpt>
      <trkpt lat="44.43918" lon="5.47677">
        <ele>1108.6</ele>
        <time>2019-05-31T13:06:58Z</time>
      </trkpt>
      <trkpt lat="44.43918" lon="5.47663">
        <ele>1109.4</ele>
        <time>2019-05-31T13:07:05Z</time>
      </trkpt>
      <trkpt lat="44.43918" lon="5.47649">
        <ele>1110.1</ele>
        <time>2019-05-31T13:07:12Z</time>
      </trkpt>
      <trkpt lat="44.43917" lon="5.47636">
        <ele>1110.5</ele>
        <time>2019-05-31T13:07:18Z</time>
      </trkpt>
      <trkpt lat="44.43915" lon="5.47622">
        <ele>1111.2</ele>
        <time>2019-05-31T13:07:25Z</time>
      </trkpt>
      <trkpt lat="44.43911" lon="5.4761">
        <ele>1111.8</ele>
        <time>2019-05-31T13:07:32Z</time>
      </trkpt>
      <trkpt lat="44.43907" lon="5.47599">
        <ele>1112.2</ele>
        <time>2019-05-31T13:07:39Z</time>
      </trkpt>
      <trkpt lat="44.43903" lon="5.47587">
        <ele>1112.4</ele>
        <time>2019-05-31T13:07:46Z</time>
      </trkpt>
      <trkpt lat="44.43898" lon="5.47574">
        <ele>1112.6</ele>
        <time>2019-05-31T13:07:53Z</time>
      </trkpt>
      <trkpt lat="44.43892" lon="5.47565">
        <ele>1113</ele>
        <time>2019-05-31T13:08:00Z</time>
      </trkpt>
      <trkpt lat="44.43884" lon="5.47556">
        <ele>1113.3</ele>
        <time>2019-05-31T13:08:06Z</time>
      </trkpt>
      <trkpt lat="44.43877" lon="5.47548">
        <ele>1113.6</ele>
        <time>2019-05-31T13:08:12Z</time>
      </trkpt>
      <trkpt lat="44.43871" lon="5.47538">
        <ele>1114.3</ele>
        <time>2019-05-31T13:08:19Z</time>
      </trkpt>
      <trkpt lat="44.43866" lon="5.47526">
        <ele>1115.5</ele>
        <time>2019-05-31T13:08:28Z</time>
      </trkpt>
      <trkpt lat="44.43863" lon="5.47512">
        <ele>1116.3</ele>
        <time>2019-05-31T13:08:35Z</time>
      </trkpt>
      <trkpt lat="44.43863" lon="5.47499">
        <ele>1116.9</ele>
        <time>2019-05-31T13:08:42Z</time>
      </trkpt>
      <trkpt lat="44.43863" lon="5.47485">
        <ele>1117.5</ele>
        <time>2019-05-31T13:08:49Z</time>
      </trkpt>
      <trkpt lat="44.43864" lon="5.47472">
        <ele>1118</ele>
        <time>2019-05-31T13:08:55Z</time>
      </trkpt>
      <trkpt lat="44.43864" lon="5.47457">
        <ele>1118.8</ele>
        <time>2019-05-31T13:09:02Z</time>
      </trkpt>
      <trkpt lat="44.43865" lon="5.47444">
        <ele>1120</ele>
        <time>2019-05-31T13:09:09Z</time>
      </trkpt>
      <trkpt lat="44.43865" lon="5.47429">
        <ele>1120.6</ele>
        <time>2019-05-31T13:09:14Z</time>
      </trkpt>
      <trkpt lat="44.43865" lon="5.47415">
        <ele>1121.7</ele>
        <time>2019-05-31T13:09:21Z</time>
      </trkpt>
      <trkpt lat="44.43864" lon="5.474">
        <ele>1122.4</ele>
        <time>2019-05-31T13:09:28Z</time>
      </trkpt>
      <trkpt lat="44.43863" lon="5.47386">
        <ele>1122.8</ele>
        <time>2019-05-31T13:09:35Z</time>
      </trkpt>
      <trkpt lat="44.43854" lon="5.47387">
        <ele>1123.5</ele>
        <time>2019-05-31T13:09:45Z</time>
      </trkpt>
      <trkpt lat="44.43854" lon="5.474">
        <ele>1124.6</ele>
        <time>2019-05-31T13:09:53Z</time>
      </trkpt>
      <trkpt lat="44.43855" lon="5.47413">
        <ele>1125.3</ele>
        <time>2019-05-31T13:10:01Z</time>
      </trkpt>
      <trkpt lat="44.43854" lon="5.47427">
        <ele>1126.3</ele>
        <time>2019-05-31T13:10:09Z</time>
      </trkpt>
      <trkpt lat="44.43851" lon="5.47439">
        <ele>1127.4</ele>
        <time>2019-05-31T13:10:18Z</time>
      </trkpt>
      <trkpt lat="44.43849" lon="5.47452">
        <ele>1128.2</ele>
        <time>2019-05-31T13:10:26Z</time>
      </trkpt>
      <trkpt lat="44.43845" lon="5.47465">
        <ele>1128.7</ele>
        <time>2019-05-31T13:10:34Z</time>
      </trkpt>
      <trkpt lat="44.43841" lon="5.47477">
        <ele>1129</ele>
        <time>2019-05-31T13:10:42Z</time>
      </trkpt>
      <trkpt lat="44.43838" lon="5.4749">
        <ele>1129.8</ele>
        <time>2019-05-31T13:10:50Z</time>
      </trkpt>
      <trkpt lat="44.43835" lon="5.47503">
        <ele>1130.8</ele>
        <time>2019-05-31T13:10:57Z</time>
      </trkpt>
      <trkpt lat="44.43832" lon="5.47515">
        <ele>1131.6</ele>
        <time>2019-05-31T13:11:04Z</time>
      </trkpt>
      <trkpt lat="44.43826" lon="5.47527">
        <ele>1132.6</ele>
        <time>2019-05-31T13:11:12Z</time>
      </trkpt>
      <trkpt lat="44.43821" lon="5.47538">
        <ele>1133.4</ele>
        <time>2019-05-31T13:11:19Z</time>
      </trkpt>
      <trkpt lat="44.43817" lon="5.4755">
        <ele>1134.8</ele>
        <time>2019-05-31T13:11:27Z</time>
      </trkpt>
      <trkpt lat="44.43815" lon="5.47563">
        <ele>1136</ele>
        <time>2019-05-31T13:11:35Z</time>
      </trkpt>
      <trkpt lat="44.43812" lon="5.47576">
        <ele>1136.9</ele>
        <time>2019-05-31T13:11:41Z</time>
      </trkpt>
      <trkpt lat="44.43811" lon="5.47589">
        <ele>1137.5</ele>
        <time>2019-05-31T13:11:47Z</time>
      </trkpt>
      <trkpt lat="44.43809" lon="5.47603">
        <ele>1138.7</ele>
        <time>2019-05-31T13:11:54Z</time>
      </trkpt>
      <trkpt lat="44.43808" lon="5.47618">
        <ele>1139.5</ele>
        <time>2019-05-31T13:12:01Z</time>
      </trkpt>
      <trkpt lat="44.43808" lon="5.47632">
        <ele>1140.4</ele>
        <time>2019-05-31T13:12:08Z</time>
      </trkpt>
      <trkpt lat="44.43809" lon="5.47646">
        <ele>1141.5</ele>
        <time>2019-05-31T13:12:15Z</time>
      </trkpt>
      <trkpt lat="44.4381" lon="5.4766">
        <ele>1142.4</ele>
        <time>2019-05-31T13:12:22Z</time>
      </trkpt>
      <trkpt lat="44.43813" lon="5.47673">
        <ele>1143.3</ele>
        <time>2019-05-31T13:12:29Z</time>
      </trkpt>
      <trkpt lat="44.43816" lon="5.47687">
        <ele>1144.3</ele>
        <time>2019-05-31T13:12:36Z</time>
      </trkpt>
      <trkpt lat="44.43815" lon="5.477">
        <ele>1145.3</ele>
        <time>2019-05-31T13:12:43Z</time>
      </trkpt>
      <trkpt lat="44.43807" lon="5.47709">
        <ele>1146.2</ele>
        <time>2019-05-31T13:12:52Z</time>
      </trkpt>
      <trkpt lat="44.438" lon="5.47716">
        <ele>1147.4</ele>
        <time>2019-05-31T13:13:02Z</time>
      </trkpt>
      <trkpt lat="44.43792" lon="5.47724">
        <ele>1149</ele>
        <time>2019-05-31T13:13:12Z</time>
      </trkpt>
      <trkpt lat="44.43784" lon="5.47731">
        <ele>1150.1</ele>
        <time>2019-05-31T13:13:20Z</time>
      </trkpt>
      <trkpt lat="44.43776" lon="5.4774">
        <ele>1151</ele>
        <time>2019-05-31T13:13:28Z</time>
      </trkpt>
      <trkpt lat="44.4377" lon="5.47749">
        <ele>1151.6</ele>
        <time>2019-05-31T13:13:35Z</time>
      </trkpt>
      <trkpt lat="44.43764" lon="5.47759">
        <ele>1152.5</ele>
        <time>2019-05-31T13:13:42Z</time>
      </trkpt>
      <trkpt lat="44.43756" lon="5.47769">
        <ele>1153.8</ele>
        <time>2019-05-31T13:13:49Z</time>
      </trkpt>
      <trkpt lat="44.43749" lon="5.47779">
        <ele>1154.8</ele>
        <time>2019-05-31T13:13:56Z</time>
      </trkpt>
      <trkpt lat="44.43743" lon="5.4779">
        <ele>1155.7</ele>
        <time>2019-05-31T13:14:03Z</time>
      </trkpt>
      <trkpt lat="44.43736" lon="5.478">
        <ele>1156.9</ele>
        <time>2019-05-31T13:14:10Z</time>
      </trkpt>
      <trkpt lat="44.4373" lon="5.4781">
        <ele>1158.1</ele>
        <time>2019-05-31T13:14:17Z</time>
      </trkpt>
      <trkpt lat="44.43723" lon="5.4782">
        <ele>1159.3</ele>
        <time>2019-05-31T13:14:24Z</time>
      </trkpt>
      <trkpt lat="44.43717" lon="5.47829">
        <ele>1160.2</ele>
        <time>2019-05-31T13:14:31Z</time>
      </trkpt>
      <trkpt lat="44.4371" lon="5.47839">
        <ele>1161.4</ele>
        <time>2019-05-31T13:14:38Z</time>
      </trkpt>
      <trkpt lat="44.43705" lon="5.4785">
        <ele>1162.4</ele>
        <time>2019-05-31T13:14:45Z</time>
      </trkpt>
      <trkpt lat="44.43699" lon="5.47861">
        <ele>1163</ele>
        <time>2019-05-31T13:14:52Z</time>
      </trkpt>
      <trkpt lat="44.43692" lon="5.47871">
        <ele>1163.6</ele>
        <time>2019-05-31T13:14:59Z</time>
      </trkpt>
      <trkpt lat="44.43684" lon="5.4788">
        <ele>1164.5</ele>
        <time>2019-05-31T13:15:06Z</time>
      </trkpt>
      <trkpt lat="44.43675" lon="5.47886">
        <ele>1165.2</ele>
        <time>2019-05-31T13:15:13Z</time>
      </trkpt>
      <trkpt lat="44.43667" lon="5.47893">
        <ele>1166.1</ele>
        <time>2019-05-31T13:15:20Z</time>
      </trkpt>
      <trkpt lat="44.43659" lon="5.47901">
        <ele>1167</ele>
        <time>2019-05-31T13:15:27Z</time>
      </trkpt>
      <trkpt lat="44.43651" lon="5.47909">
        <ele>1167.5</ele>
        <time>2019-05-31T13:15:34Z</time>
      </trkpt>
      <trkpt lat="44.43644" lon="5.47916">
        <ele>1168.2</ele>
        <time>2019-05-31T13:15:41Z</time>
      </trkpt>
      <trkpt lat="44.43636" lon="5.47924">
        <ele>1169.2</ele>
        <time>2019-05-31T13:15:49Z</time>
      </trkpt>
      <trkpt lat="44.43628" lon="5.47931">
        <ele>1170.2</ele>
        <time>2019-05-31T13:15:56Z</time>
      </trkpt>
      <trkpt lat="44.4362" lon="5.47938">
        <ele>1171.3</ele>
        <time>2019-05-31T13:16:03Z</time>
      </trkpt>
      <trkpt lat="44.43611" lon="5.47945">
        <ele>1172.4</ele>
        <time>2019-05-31T13:16:10Z</time>
      </trkpt>
      <trkpt lat="44.43603" lon="5.47952">
        <ele>1173.5</ele>
        <time>2019-05-31T13:16:18Z</time>
      </trkpt>
      <trkpt lat="44.43594" lon="5.47958">
        <ele>1174.4</ele>
        <time>2019-05-31T13:16:26Z</time>
      </trkpt>
      <trkpt lat="44.43585" lon="5.47965">
        <ele>1175.1</ele>
        <time>2019-05-31T13:16:33Z</time>
      </trkpt>
      <trkpt lat="44.43577" lon="5.47971">
        <ele>1176</ele>
        <time>2019-05-31T13:16:40Z</time>
      </trkpt>
      <trkpt lat="44.43568" lon="5.47976">
        <ele>1176.9</ele>
        <time>2019-05-31T13:16:47Z</time>
      </trkpt>
      <trkpt lat="44.43558" lon="5.47979">
        <ele>1177.9</ele>
        <time>2019-05-31T13:16:54Z</time>
      </trkpt>
      <trkpt lat="44.43549" lon="5.47979">
        <ele>1179.3</ele>
        <time>2019-05-31T13:17:01Z</time>
      </trkpt>
      <trkpt lat="44.43539" lon="5.47977">
        <ele>1180.3</ele>
        <time>2019-05-31T13:17:08Z</time>
      </trkpt>
      <trkpt lat="44.43529" lon="5.47976">
        <ele>1181.1</ele>
        <time>2019-05-31T13:17:15Z</time>
      </trkpt>
      <trkpt lat="44.43519" lon="5.47977">
        <ele>1181.7</ele>
        <time>2019-05-31T13:17:22Z</time>
      </trkpt>
      <trkpt lat="44.43509" lon="5.4798">
        <ele>1182.3</ele>
        <time>2019-05-31T13:17:29Z</time>
      </trkpt>
      <trkpt lat="44.435" lon="5.47983">
        <ele>1182.8</ele>
        <time>2019-05-31T13:17:36Z</time>
      </trkpt>
      <trkpt lat="44.43491" lon="5.47985">
        <ele>1183.5</ele>
        <time>2019-05-31T13:17:43Z</time>
      </trkpt>
      <trkpt lat="44.43482" lon="5.47989">
        <ele>1184.4</ele>
        <time>2019-05-31T13:17:51Z</time>
      </trkpt>
      <trkpt lat="44.43473" lon="5.47994">
        <ele>1185.8</ele>
        <time>2019-05-31T13:17:59Z</time>
      </trkpt>
      <trkpt lat="44.43465" lon="5.47999">
        <ele>1187.1</ele>
        <time>2019-05-31T13:18:07Z</time>
      </trkpt>
      <trkpt lat="44.43454" lon="5.48003">
        <ele>1188.8</ele>
        <time>2019-05-31T13:18:15Z</time>
      </trkpt>
      <trkpt lat="44.43445" lon="5.48005">
        <ele>1190.2</ele>
        <time>2019-05-31T13:18:22Z</time>
      </trkpt>
      <trkpt lat="44.43435" lon="5.48006">
        <ele>1191.8</ele>
        <time>2019-05-31T13:18:30Z</time>
      </trkpt>
      <trkpt lat="44.43425" lon="5.48008">
        <ele>1192.9</ele>
        <time>2019-05-31T13:18:37Z</time>
      </trkpt>
      <trkpt lat="44.43416" lon="5.48014">
        <ele>1194.1</ele>
        <time>2019-05-31T13:18:43Z</time>
      </trkpt>
      <trkpt lat="44.4341" lon="5.48023">
        <ele>1195.1</ele>
        <time>2019-05-31T13:18:49Z</time>
      </trkpt>
      <trkpt lat="44.43404" lon="5.48034">
        <ele>1195.9</ele>
        <time>2019-05-31T13:18:57Z</time>
      </trkpt>
      <trkpt lat="44.43397" lon="5.48044">
        <ele>1196.9</ele>
        <time>2019-05-31T13:19:05Z</time>
      </trkpt>
      <trkpt lat="44.43391" lon="5.48055">
        <ele>1200.8</ele>
        <time>2019-05-31T13:19:51Z</time>
      </trkpt>
      <trkpt lat="44.43389" lon="5.48068">
        <ele>1201.1</ele>
        <time>2019-05-31T13:20:00Z</time>
      </trkpt>
      <trkpt lat="44.43388" lon="5.48082">
        <ele>1202.8</ele>
        <time>2019-05-31T13:20:12Z</time>
      </trkpt>
      <trkpt lat="44.43385" lon="5.48095">
        <ele>1204.9</ele>
        <time>2019-05-31T13:20:21Z</time>
      </trkpt>
      <trkpt lat="44.43381" lon="5.48106">
        <ele>1207</ele>
        <time>2019-05-31T13:20:30Z</time>
      </trkpt>
      <trkpt lat="44.43374" lon="5.48117">
        <ele>1209.5</ele>
        <time>2019-05-31T13:20:39Z</time>
      </trkpt>
      <trkpt lat="44.43367" lon="5.48127">
        <ele>1211.9</ele>
        <time>2019-05-31T13:20:47Z</time>
      </trkpt>
      <trkpt lat="44.43361" lon="5.48136">
        <ele>1214</ele>
        <time>2019-05-31T13:20:54Z</time>
      </trkpt>
      <trkpt lat="44.43356" lon="5.48149">
        <ele>1216.6</ele>
        <time>2019-05-31T13:21:03Z</time>
      </trkpt>
      <trkpt lat="44.43352" lon="5.4816">
        <ele>1219.2</ele>
        <time>2019-05-31T13:21:12Z</time>
      </trkpt>
      <trkpt lat="44.43349" lon="5.48172">
        <ele>1221.7</ele>
        <time>2019-05-31T13:21:21Z</time>
      </trkpt>
      <trkpt lat="44.43342" lon="5.48181">
        <ele>1223.7</ele>
        <time>2019-05-31T13:21:30Z</time>
      </trkpt>
      <trkpt lat="44.43336" lon="5.4819">
        <ele>1226.4</ele>
        <time>2019-05-31T13:21:40Z</time>
      </trkpt>
      <trkpt lat="44.43329" lon="5.482">
        <ele>1228.9</ele>
        <time>2019-05-31T13:21:49Z</time>
      </trkpt>
      <trkpt lat="44.43322" lon="5.48208">
        <ele>1231.5</ele>
        <time>2019-05-31T13:21:57Z</time>
      </trkpt>
      <trkpt lat="44.43317" lon="5.48219">
        <ele>1234.4</ele>
        <time>2019-05-31T13:22:06Z</time>
      </trkpt>
      <trkpt lat="44.43311" lon="5.48228">
        <ele>1236.1</ele>
        <time>2019-05-31T13:22:14Z</time>
      </trkpt>
      <trkpt lat="44.43302" lon="5.48237">
        <ele>1237.4</ele>
        <time>2019-05-31T13:22:22Z</time>
      </trkpt>
      <trkpt lat="44.43296" lon="5.48246">
        <ele>1238.6</ele>
        <time>2019-05-31T13:22:30Z</time>
      </trkpt>
      <trkpt lat="44.4329" lon="5.48256">
        <ele>1239.9</ele>
        <time>2019-05-31T13:22:38Z</time>
      </trkpt>
      <trkpt lat="44.43285" lon="5.48268">
        <ele>1241.6</ele>
        <time>2019-05-31T13:22:47Z</time>
      </trkpt>
      <trkpt lat="44.43281" lon="5.48281">
        <ele>1243.8</ele>
        <time>2019-05-31T13:22:56Z</time>
      </trkpt>
      <trkpt lat="44.43279" lon="5.48294">
        <ele>1249.3</ele>
        <time>2019-05-31T13:24:00Z</time>
      </trkpt>
      <trkpt lat="44.43276" lon="5.48306">
        <ele>1249.8</ele>
        <time>2019-05-31T13:24:11Z</time>
      </trkpt>
      <trkpt lat="44.43273" lon="5.4832">
        <ele>1250.2</ele>
        <time>2019-05-31T13:24:22Z</time>
      </trkpt>
      <trkpt lat="44.4327" lon="5.48332">
        <ele>1250.4</ele>
        <time>2019-05-31T13:24:31Z</time>
      </trkpt>
      <trkpt lat="44.43267" lon="5.48346">
        <ele>1251.9</ele>
        <time>2019-05-31T13:24:42Z</time>
      </trkpt>
      <trkpt lat="44.43264" lon="5.4836">
        <ele>1253.1</ele>
        <time>2019-05-31T13:24:50Z</time>
      </trkpt>
      <trkpt lat="44.4326" lon="5.48371">
        <ele>1253.9</ele>
        <time>2019-05-31T13:24:57Z</time>
      </trkpt>
      <trkpt lat="44.43256" lon="5.48384">
        <ele>1254.6</ele>
        <time>2019-05-31T13:25:04Z</time>
      </trkpt>
      <trkpt lat="44.43255" lon="5.48397">
        <ele>1254.9</ele>
        <time>2019-05-31T13:25:10Z</time>
      </trkpt>
      <trkpt lat="44.43253" lon="5.4841">
        <ele>1255.2</ele>
        <time>2019-05-31T13:25:16Z</time>
      </trkpt>
      <trkpt lat="44.43253" lon="5.48423">
        <ele>1255.4</ele>
        <time>2019-05-31T13:25:23Z</time>
      </trkpt>
      <trkpt lat="44.43256" lon="5.48436">
        <ele>1255.5</ele>
        <time>2019-05-31T13:25:31Z</time>
      </trkpt>
      <trkpt lat="44.43256" lon="5.48449">
        <ele>1255.6</ele>
        <time>2019-05-31T13:25:39Z</time>
      </trkpt>
      <trkpt lat="44.43257" lon="5.48462">
        <ele>1255.7</ele>
        <time>2019-05-31T13:25:46Z</time>
      </trkpt>
      <trkpt lat="44.4326" lon="5.48474">
        <ele>1256.3</ele>
        <time>2019-05-31T13:25:53Z</time>
      </trkpt>
      <trkpt lat="44.43261" lon="5.48487">
        <ele>1257.3</ele>
        <time>2019-05-31T13:26:05Z</time>
      </trkpt>
      <trkpt lat="44.43254" lon="5.48498">
        <ele>1258.5</ele>
        <time>2019-05-31T13:26:25Z</time>
      </trkpt>
      <trkpt lat="44.43245" lon="5.48503">
        <ele>1260.1</ele>
        <time>2019-05-31T13:26:36Z</time>
      </trkpt>
      <trkpt lat="44.43236" lon="5.48505">
        <ele>1262.5</ele>
        <time>2019-05-31T13:26:47Z</time>
      </trkpt>
      <trkpt lat="44.43228" lon="5.48499">
        <ele>1265</ele>
        <time>2019-05-31T13:26:58Z</time>
      </trkpt>
      <trkpt lat="44.4322" lon="5.4849">
        <ele>1267.2</ele>
        <time>2019-05-31T13:27:09Z</time>
      </trkpt>
      <trkpt lat="44.43213" lon="5.48482">
        <ele>1269.2</ele>
        <time>2019-05-31T13:27:18Z</time>
      </trkpt>
      <trkpt lat="44.43208" lon="5.48471">
        <ele>1270.8</ele>
        <time>2019-05-31T13:27:26Z</time>
      </trkpt>
      <trkpt lat="44.43202" lon="5.48462">
        <ele>1272.8</ele>
        <time>2019-05-31T13:27:35Z</time>
      </trkpt>
      <trkpt lat="44.43197" lon="5.48449">
        <ele>1274.8</ele>
        <time>2019-05-31T13:27:45Z</time>
      </trkpt>
      <trkpt lat="44.4319" lon="5.4844">
        <ele>1276.1</ele>
        <time>2019-05-31T13:27:53Z</time>
      </trkpt>
      <trkpt lat="44.43185" lon="5.48428">
        <ele>1277</ele>
        <time>2019-05-31T13:28:00Z</time>
      </trkpt>
      <trkpt lat="44.4318" lon="5.48417">
        <ele>1277.7</ele>
        <time>2019-05-31T13:28:07Z</time>
      </trkpt>
      <trkpt lat="44.43174" lon="5.48406">
        <ele>1278.6</ele>
        <time>2019-05-31T13:28:15Z</time>
      </trkpt>
      <trkpt lat="44.43169" lon="5.48394">
        <ele>1279.1</ele>
        <time>2019-05-31T13:28:23Z</time>
      </trkpt>
      <trkpt lat="44.43162" lon="5.48383">
        <ele>1279.3</ele>
        <time>2019-05-31T13:28:31Z</time>
      </trkpt>
      <trkpt lat="44.43156" lon="5.48374">
        <ele>1278.7</ele>
        <time>2019-05-31T13:28:38Z</time>
      </trkpt>
      <trkpt lat="44.43154" lon="5.48361">
        <ele>1278.5</ele>
        <time>2019-05-31T13:28:45Z</time>
      </trkpt>
      <trkpt lat="44.4315" lon="5.48349">
        <ele>1278.1</ele>
        <time>2019-05-31T13:28:52Z</time>
      </trkpt>
      <trkpt lat="44.43146" lon="5.48337">
        <ele>1277.8</ele>
        <time>2019-05-31T13:29:00Z</time>
      </trkpt>
      <trkpt lat="44.4314" lon="5.48326">
        <ele>1277.1</ele>
        <time>2019-05-31T13:29:08Z</time>
      </trkpt>
      <trkpt lat="44.43134" lon="5.48315">
        <ele>1276.3</ele>
        <time>2019-05-31T13:29:16Z</time>
      </trkpt>
      <trkpt lat="44.43132" lon="5.48302">
        <ele>1275.5</ele>
        <time>2019-05-31T13:29:24Z</time>
      </trkpt>
      <trkpt lat="44.43126" lon="5.48292">
        <ele>1275</ele>
        <time>2019-05-31T13:29:31Z</time>
      </trkpt>
      <trkpt lat="44.43121" lon="5.48279">
        <ele>1274.5</ele>
        <time>2019-05-31T13:29:39Z</time>
      </trkpt>
      <trkpt lat="44.43117" lon="5.48266">
        <ele>1274.1</ele>
        <time>2019-05-31T13:29:47Z</time>
      </trkpt>
      <trkpt lat="44.43109" lon="5.4826">
        <ele>1274.7</ele>
        <time>2019-05-31T13:29:56Z</time>
      </trkpt>
      <trkpt lat="44.43099" lon="5.48258">
        <ele>1275.8</ele>
        <time>2019-05-31T13:30:04Z</time>
      </trkpt>
      <trkpt lat="44.4309" lon="5.48255">
        <ele>1277.5</ele>
        <time>2019-05-31T13:30:12Z</time>
      </trkpt>
      <trkpt lat="44.4308" lon="5.48252">
        <ele>1280</ele>
        <time>2019-05-31T13:30:21Z</time>
      </trkpt>
      <trkpt lat="44.43071" lon="5.48248">
        <ele>1281.9</ele>
        <time>2019-05-31T13:30:30Z</time>
      </trkpt>
      <trkpt lat="44.43062" lon="5.48241">
        <ele>1282.4</ele>
        <time>2019-05-31T13:30:39Z</time>
      </trkpt>
      <trkpt lat="44.43054" lon="5.48236">
        <ele>1281.6</ele>
        <time>2019-05-31T13:30:47Z</time>
      </trkpt>
      <trkpt lat="44.43046" lon="5.48227">
        <ele>1280.7</ele>
        <time>2019-05-31T13:30:54Z</time>
      </trkpt>
      <trkpt lat="44.43043" lon="5.48215">
        <ele>1278</ele>
        <time>2019-05-31T13:31:01Z</time>
      </trkpt>
      <trkpt lat="44.43043" lon="5.48202">
        <ele>1276</ele>
        <time>2019-05-31T13:31:09Z</time>
      </trkpt>
      <trkpt lat="44.43048" lon="5.48191">
        <ele>1273.3</ele>
        <time>2019-05-31T13:31:26Z</time>
      </trkpt>
      <trkpt lat="44.43041" lon="5.48181">
        <ele>1271</ele>
        <time>2019-05-31T13:31:36Z</time>
      </trkpt>
      <trkpt lat="44.4304" lon="5.48168">
        <ele>1270.1</ele>
        <time>2019-05-31T13:31:44Z</time>
      </trkpt>
      <trkpt lat="44.43035" lon="5.48157">
        <ele>1269.8</ele>
        <time>2019-05-31T13:31:53Z</time>
      </trkpt>
      <trkpt lat="44.4303" lon="5.48147">
        <ele>1270.3</ele>
        <time>2019-05-31T13:32:03Z</time>
      </trkpt>
      <trkpt lat="44.43022" lon="5.4814">
        <ele>1270.7</ele>
        <time>2019-05-31T13:32:10Z</time>
      </trkpt>
      <trkpt lat="44.43014" lon="5.48132">
        <ele>1271.2</ele>
        <time>2019-05-31T13:32:17Z</time>
      </trkpt>
      <trkpt lat="44.43006" lon="5.48124">
        <ele>1271.9</ele>
        <time>2019-05-31T13:32:24Z</time>
      </trkpt>
      <trkpt lat="44.42997" lon="5.48121">
        <ele>1272.6</ele>
        <time>2019-05-31T13:32:31Z</time>
      </trkpt>
      <trkpt lat="44.42988" lon="5.48119">
        <ele>1274.3</ele>
        <time>2019-05-31T13:32:41Z</time>
      </trkpt>
      <trkpt lat="44.42978" lon="5.48117">
        <ele>1276.6</ele>
        <time>2019-05-31T13:32:54Z</time>
      </trkpt>
      <trkpt lat="44.4297" lon="5.48112">
        <ele>1278.1</ele>
        <time>2019-05-31T13:33:01Z</time>
      </trkpt>
      <trkpt lat="44.42965" lon="5.481">
        <ele>1279.3</ele>
        <time>2019-05-31T13:33:09Z</time>
      </trkpt>
      <trkpt lat="44.42962" lon="5.48087">
        <ele>1279.8</ele>
        <time>2019-05-31T13:33:14Z</time>
      </trkpt>
      <trkpt lat="44.42957" lon="5.48075">
        <ele>1280.4</ele>
        <time>2019-05-31T13:33:20Z</time>
      </trkpt>
      <trkpt lat="44.42953" lon="5.48063">
        <ele>1283.2</ele>
        <time>2019-05-31T13:33:37Z</time>
      </trkpt>
      <trkpt lat="44.42945" lon="5.48059">
        <ele>1285.3</ele>
        <time>2019-05-31T13:33:44Z</time>
      </trkpt>
      <trkpt lat="44.42935" lon="5.48055">
        <ele>1287.5</ele>
        <time>2019-05-31T13:33:53Z</time>
      </trkpt>
      <trkpt lat="44.42926" lon="5.48051">
        <ele>1289.4</ele>
        <time>2019-05-31T13:34:02Z</time>
      </trkpt>
      <trkpt lat="44.42918" lon="5.48044">
        <ele>1291.2</ele>
        <time>2019-05-31T13:34:10Z</time>
      </trkpt>
      <trkpt lat="44.42909" lon="5.48037">
        <ele>1292.6</ele>
        <time>2019-05-31T13:34:17Z</time>
      </trkpt>
      <trkpt lat="44.42902" lon="5.48027">
        <ele>1293.8</ele>
        <time>2019-05-31T13:34:24Z</time>
      </trkpt>
      <trkpt lat="44.42895" lon="5.48019">
        <ele>1294.8</ele>
        <time>2019-05-31T13:34:31Z</time>
      </trkpt>
      <trkpt lat="44.42888" lon="5.48011">
        <ele>1295.9</ele>
        <time>2019-05-31T13:34:38Z</time>
      </trkpt>
      <trkpt lat="44.42879" lon="5.48004">
        <ele>1297.5</ele>
        <time>2019-05-31T13:34:46Z</time>
      </trkpt>
      <trkpt lat="44.42872" lon="5.47995">
        <ele>1298.7</ele>
        <time>2019-05-31T13:34:54Z</time>
      </trkpt>
      <trkpt lat="44.42865" lon="5.47985">
        <ele>1299.5</ele>
        <time>2019-05-31T13:35:02Z</time>
      </trkpt>
      <trkpt lat="44.42858" lon="5.47978">
        <ele>1300.7</ele>
        <time>2019-05-31T13:35:09Z</time>
      </trkpt>
      <trkpt lat="44.42848" lon="5.47972">
        <ele>1301.4</ele>
        <time>2019-05-31T13:35:16Z</time>
      </trkpt>
      <trkpt lat="44.42841" lon="5.47965">
        <ele>1302.1</ele>
        <time>2019-05-31T13:35:24Z</time>
      </trkpt>
      <trkpt lat="44.42832" lon="5.47958">
        <ele>1302.3</ele>
        <time>2019-05-31T13:35:33Z</time>
      </trkpt>
      <trkpt lat="44.42824" lon="5.47952">
        <ele>1301</ele>
        <time>2019-05-31T13:35:42Z</time>
      </trkpt>
      <trkpt lat="44.42816" lon="5.47943">
        <ele>1301</ele>
        <time>2019-05-31T13:35:54Z</time>
      </trkpt>
      <trkpt lat="44.42805" lon="5.47931">
        <ele>1300</ele>
        <time>2019-05-31T13:36:06Z</time>
      </trkpt>
      <trkpt lat="44.42796" lon="5.47925">
        <ele>1300.7</ele>
        <time>2019-05-31T13:36:13Z</time>
      </trkpt>
      <trkpt lat="44.42787" lon="5.47919">
        <ele>1301</ele>
        <time>2019-05-31T13:36:20Z</time>
      </trkpt>
      <trkpt lat="44.42778" lon="5.47914">
        <ele>1301.7</ele>
        <time>2019-05-31T13:36:26Z</time>
      </trkpt>
      <trkpt lat="44.42768" lon="5.47908">
        <ele>1302</ele>
        <time>2019-05-31T13:36:33Z</time>
      </trkpt>
      <trkpt lat="44.42757" lon="5.47903">
        <ele>1301</ele>
        <time>2019-05-31T13:36:45Z</time>
      </trkpt>
      <trkpt lat="44.42748" lon="5.47904">
        <ele>1301</ele>
        <time>2019-05-31T13:36:53Z</time>
      </trkpt>
      <trkpt lat="44.42739" lon="5.47903">
        <ele>1301</ele>
        <time>2019-05-31T13:37:01Z</time>
      </trkpt>
      <trkpt lat="44.42728" lon="5.47903">
        <ele>1300</ele>
        <time>2019-05-31T13:37:09Z</time>
      </trkpt>
      <trkpt lat="44.42717" lon="5.47898">
        <ele>1300</ele>
        <time>2019-05-31T13:37:17Z</time>
      </trkpt>
      <trkpt lat="44.42705" lon="5.47891">
        <ele>1299</ele>
        <time>2019-05-31T13:37:25Z</time>
      </trkpt>
      <trkpt lat="44.42696" lon="5.47878">
        <ele>1298</ele>
        <time>2019-05-31T13:37:33Z</time>
      </trkpt>
      <trkpt lat="44.42688" lon="5.47867">
        <ele>1297</ele>
        <time>2019-05-31T13:37:41Z</time>
      </trkpt>
      <trkpt lat="44.4268" lon="5.47856">
        <ele>1296</ele>
        <time>2019-05-31T13:37:49Z</time>
      </trkpt>
      <trkpt lat="44.42675" lon="5.47844">
        <ele>1296</ele>
        <time>2019-05-31T13:37:57Z</time>
      </trkpt>
      <trkpt lat="44.42671" lon="5.47831">
        <ele>1296</ele>
        <time>2019-05-31T13:38:05Z</time>
      </trkpt>
      <trkpt lat="44.42665" lon="5.47818">
        <ele>1296</ele>
        <time>2019-05-31T13:38:13Z</time>
      </trkpt>
      <trkpt lat="44.42655" lon="5.47811">
        <ele>1297</ele>
        <time>2019-05-31T13:38:21Z</time>
      </trkpt>
      <trkpt lat="44.42644" lon="5.47821">
        <ele>1299</ele>
        <time>2019-05-31T13:38:33Z</time>
      </trkpt>
      <trkpt lat="44.42635" lon="5.47826">
        <ele>1301</ele>
        <time>2019-05-31T13:38:45Z</time>
      </trkpt>
      <trkpt lat="44.42629" lon="5.47814">
        <ele>1303</ele>
        <time>2019-05-31T13:38:57Z</time>
      </trkpt>
      <trkpt lat="44.42626" lon="5.47797">
        <ele>1305</ele>
        <time>2019-05-31T13:39:09Z</time>
      </trkpt>
      <trkpt lat="44.42623" lon="5.47785">
        <ele>1306</ele>
        <time>2019-05-31T13:39:17Z</time>
      </trkpt>
      <trkpt lat="44.42615" lon="5.47778">
        <ele>1308.1</ele>
        <time>2019-05-31T13:39:25Z</time>
      </trkpt>
      <trkpt lat="44.42605" lon="5.47779">
        <ele>1310</ele>
        <time>2019-05-31T13:39:34Z</time>
      </trkpt>
      <trkpt lat="44.42596" lon="5.4778">
        <ele>1311.8</ele>
        <time>2019-05-31T13:39:43Z</time>
      </trkpt>
      <trkpt lat="44.42585" lon="5.47773">
        <ele>1313</ele>
        <time>2019-05-31T13:39:52Z</time>
      </trkpt>
      <trkpt lat="44.42575" lon="5.47765">
        <ele>1315</ele>
        <time>2019-05-31T13:40:00Z</time>
      </trkpt>
      <trkpt lat="44.42568" lon="5.47756">
        <ele>1316</ele>
        <time>2019-05-31T13:40:08Z</time>
      </trkpt>
      <trkpt lat="44.4256" lon="5.47745">
        <ele>1315</ele>
        <time>2019-05-31T13:40:16Z</time>
      </trkpt>
      <trkpt lat="44.42553" lon="5.47735">
        <ele>1315</ele>
        <time>2019-05-31T13:40:24Z</time>
      </trkpt>
      <trkpt lat="44.42547" lon="5.47726">
        <ele>1314</ele>
        <time>2019-05-31T13:40:32Z</time>
      </trkpt>
      <trkpt lat="44.42538" lon="5.47713">
        <ele>1314</ele>
        <time>2019-05-31T13:40:40Z</time>
      </trkpt>
      <trkpt lat="44.4253" lon="5.47702">
        <ele>1313</ele>
        <time>2019-05-31T13:40:48Z</time>
      </trkpt>
      <trkpt lat="44.42521" lon="5.47695">
        <ele>1313</ele>
        <time>2019-05-31T13:40:56Z</time>
      </trkpt>
      <trkpt lat="44.42514" lon="5.47683">
        <ele>1314</ele>
        <time>2019-05-31T13:41:04Z</time>
      </trkpt>
      <trkpt lat="44.42505" lon="5.47671">
        <ele>1315</ele>
        <time>2019-05-31T13:41:12Z</time>
      </trkpt>
      <trkpt lat="44.42499" lon="5.47658">
        <ele>1315</ele>
        <time>2019-05-31T13:41:20Z</time>
      </trkpt>
      <trkpt lat="44.42491" lon="5.4765">
        <ele>1315</ele>
        <time>2019-05-31T13:41:28Z</time>
      </trkpt>
      <trkpt lat="44.42479" lon="5.4764">
        <ele>1315</ele>
        <time>2019-05-31T13:41:40Z</time>
      </trkpt>
      <trkpt lat="44.4247" lon="5.47633">
        <ele>1314</ele>
        <time>2019-05-31T13:41:48Z</time>
      </trkpt>
      <trkpt lat="44.4246" lon="5.47626">
        <ele>1314</ele>
        <time>2019-05-31T13:41:56Z</time>
      </trkpt>
      <trkpt lat="44.42454" lon="5.47617">
        <ele>1313.8</ele>
        <time>2019-05-31T13:42:04Z</time>
      </trkpt>
      <trkpt lat="44.42445" lon="5.47612">
        <ele>1313.2</ele>
        <time>2019-05-31T13:42:16Z</time>
      </trkpt>
      <trkpt lat="44.42435" lon="5.47608">
        <ele>1313</ele>
        <time>2019-05-31T13:42:24Z</time>
      </trkpt>
      <trkpt lat="44.42427" lon="5.476">
        <ele>1312.6</ele>
        <time>2019-05-31T13:42:31Z</time>
      </trkpt>
      <trkpt lat="44.42418" lon="5.47593">
        <ele>1311.7</ele>
        <time>2019-05-31T13:42:39Z</time>
      </trkpt>
      <trkpt lat="44.42411" lon="5.47585">
        <ele>1310.6</ele>
        <time>2019-05-31T13:42:48Z</time>
      </trkpt>
      <trkpt lat="44.42403" lon="5.47577">
        <ele>1309</ele>
        <time>2019-05-31T13:42:56Z</time>
      </trkpt>
      <trkpt lat="44.42396" lon="5.47568">
        <ele>1307.6</ele>
        <time>2019-05-31T13:43:04Z</time>
      </trkpt>
      <trkpt lat="44.42389" lon="5.47559">
        <ele>1305.9</ele>
        <time>2019-05-31T13:43:12Z</time>
      </trkpt>
      <trkpt lat="44.42381" lon="5.47554">
        <ele>1304.3</ele>
        <time>2019-05-31T13:43:19Z</time>
      </trkpt>
      <trkpt lat="44.42372" lon="5.47549">
        <ele>1302.2</ele>
        <time>2019-05-31T13:43:28Z</time>
      </trkpt>
      <trkpt lat="44.42364" lon="5.47542">
        <ele>1301.5</ele>
        <time>2019-05-31T13:43:36Z</time>
      </trkpt>
      <trkpt lat="44.42358" lon="5.4753">
        <ele>1301.3</ele>
        <time>2019-05-31T13:43:42Z</time>
      </trkpt>
      <trkpt lat="44.42351" lon="5.47522">
        <ele>1301.3</ele>
        <time>2019-05-31T13:43:48Z</time>
      </trkpt>
      <trkpt lat="44.42344" lon="5.47513">
        <ele>1302.2</ele>
        <time>2019-05-31T13:43:55Z</time>
      </trkpt>
      <trkpt lat="44.4234" lon="5.475">
        <ele>1302.6</ele>
        <time>2019-05-31T13:44:02Z</time>
      </trkpt>
      <trkpt lat="44.42334" lon="5.4749">
        <ele>1302.9</ele>
        <time>2019-05-31T13:44:10Z</time>
      </trkpt>
      <trkpt lat="44.42327" lon="5.47481">
        <ele>1303.1</ele>
        <time>2019-05-31T13:44:18Z</time>
      </trkpt>
      <trkpt lat="44.4232" lon="5.47472">
        <ele>1303.9</ele>
        <time>2019-05-31T13:44:32Z</time>
      </trkpt>
      <trkpt lat="44.42313" lon="5.47463">
        <ele>1304.5</ele>
        <time>2019-05-31T13:44:52Z</time>
      </trkpt>
      <trkpt lat="44.42306" lon="5.47452">
        <ele>1304.5</ele>
        <time>2019-05-31T13:45:27Z</time>
      </trkpt>
      <trkpt lat="44.42302" lon="5.4744">
        <ele>1304.3</ele>
        <time>2019-05-31T13:45:36Z</time>
      </trkpt>
      <trkpt lat="44.42301" lon="5.47427">
        <ele>1303.4</ele>
        <time>2019-05-31T13:45:50Z</time>
      </trkpt>
      <trkpt lat="44.42294" lon="5.47417">
        <ele>1302</ele>
        <time>2019-05-31T13:46:00Z</time>
      </trkpt>
      <trkpt lat="44.42286" lon="5.4741">
        <ele>1300.7</ele>
        <time>2019-05-31T13:46:10Z</time>
      </trkpt>
      <trkpt lat="44.42277" lon="5.47406">
        <ele>1300</ele>
        <time>2019-05-31T13:46:20Z</time>
      </trkpt>
      <trkpt lat="44.42269" lon="5.47398">
        <ele>1299.7</ele>
        <time>2019-05-31T13:46:30Z</time>
      </trkpt>
      <trkpt lat="44.4226" lon="5.47391">
        <ele>1300</ele>
        <time>2019-05-31T13:46:37Z</time>
      </trkpt>
      <trkpt lat="44.4225" lon="5.47385">
        <ele>1300.5</ele>
        <time>2019-05-31T13:46:44Z</time>
      </trkpt>
      <trkpt lat="44.4224" lon="5.47376">
        <ele>1300</ele>
        <time>2019-05-31T13:46:51Z</time>
      </trkpt>
      <trkpt lat="44.42232" lon="5.47367">
        <ele>1300</ele>
        <time>2019-05-31T13:47:03Z</time>
      </trkpt>
      <trkpt lat="44.42226" lon="5.47356">
        <ele>1300</ele>
        <time>2019-05-31T13:47:23Z</time>
      </trkpt>
      <trkpt lat="44.42218" lon="5.4735">
        <ele>1298</ele>
        <time>2019-05-31T13:48:19Z</time>
      </trkpt>
      <trkpt lat="44.42216" lon="5.47337">
        <ele>1298.2</ele>
        <time>2019-05-31T13:49:03Z</time>
      </trkpt>
      <trkpt lat="44.42211" lon="5.47326">
        <ele>1298.2</ele>
        <time>2019-05-31T13:50:00Z</time>
      </trkpt>
      <trkpt lat="44.42208" lon="5.47314">
        <ele>1295.5</ele>
        <time>2019-05-31T13:52:13Z</time>
      </trkpt>
      <trkpt lat="44.42209" lon="5.473">
        <ele>1295</ele>
        <time>2019-05-31T13:53:18Z</time>
      </trkpt>
      <trkpt lat="44.42211" lon="5.47288">
        <ele>1293</ele>
        <time>2019-05-31T13:53:30Z</time>
      </trkpt>
      <trkpt lat="44.42212" lon="5.47273">
        <ele>1289</ele>
        <time>2019-05-31T13:53:42Z</time>
      </trkpt>
      <trkpt lat="44.42216" lon="5.47261">
        <ele>1286</ele>
        <time>2019-05-31T13:53:54Z</time>
      </trkpt>
      <trkpt lat="44.42223" lon="5.4725">
        <ele>1283</ele>
        <time>2019-05-31T13:54:06Z</time>
      </trkpt>
      <trkpt lat="44.42232" lon="5.4724">
        <ele>1279</ele>
        <time>2019-05-31T13:54:18Z</time>
      </trkpt>
      <trkpt lat="44.42242" lon="5.47241">
        <ele>1275</ele>
        <time>2019-05-31T13:54:30Z</time>
      </trkpt>
      <trkpt lat="44.42253" lon="5.47242">
        <ele>1273.4</ele>
        <time>2019-05-31T13:54:41Z</time>
      </trkpt>
      <trkpt lat="44.42262" lon="5.47237">
        <ele>1270.3</ele>
        <time>2019-05-31T13:54:51Z</time>
      </trkpt>
      <trkpt lat="44.42271" lon="5.47234">
        <ele>1267.1</ele>
        <time>2019-05-31T13:55:01Z</time>
      </trkpt>
      <trkpt lat="44.42281" lon="5.47235">
        <ele>1264.2</ele>
        <time>2019-05-31T13:55:12Z</time>
      </trkpt>
      <trkpt lat="44.42291" lon="5.47235">
        <ele>1261.8</ele>
        <time>2019-05-31T13:55:19Z</time>
      </trkpt>
      <trkpt lat="44.42297" lon="5.47226">
        <ele>1257.5</ele>
        <time>2019-05-31T13:55:39Z</time>
      </trkpt>
      <trkpt lat="44.42306" lon="5.47223">
        <ele>1255.9</ele>
        <time>2019-05-31T13:56:13Z</time>
      </trkpt>
      <trkpt lat="44.42315" lon="5.47228">
        <ele>1255.9</ele>
        <time>2019-05-31T13:57:07Z</time>
      </trkpt>
      <trkpt lat="44.42325" lon="5.47236">
        <ele>1256.1</ele>
        <time>2019-05-31T13:57:16Z</time>
      </trkpt>
      <trkpt lat="44.42334" lon="5.47233">
        <ele>1255.6</ele>
        <time>2019-05-31T13:57:26Z</time>
      </trkpt>
      <trkpt lat="44.42338" lon="5.47222">
        <ele>1253.3</ele>
        <time>2019-05-31T13:57:42Z</time>
      </trkpt>
      <trkpt lat="44.42341" lon="5.47209">
        <ele>1250</ele>
        <time>2019-05-31T13:57:57Z</time>
      </trkpt>
      <trkpt lat="44.4235" lon="5.47204">
        <ele>1247</ele>
        <time>2019-05-31T13:58:09Z</time>
      </trkpt>
      <trkpt lat="44.42359" lon="5.47201">
        <ele>1244.2</ele>
        <time>2019-05-31T13:58:19Z</time>
      </trkpt>
      <trkpt lat="44.42367" lon="5.47194">
        <ele>1241.4</ele>
        <time>2019-05-31T13:58:29Z</time>
      </trkpt>
      <trkpt lat="44.42372" lon="5.47183">
        <ele>1238.7</ele>
        <time>2019-05-31T13:58:38Z</time>
      </trkpt>
      <trkpt lat="44.42378" lon="5.47172">
        <ele>1236.1</ele>
        <time>2019-05-31T13:58:48Z</time>
      </trkpt>
      <trkpt lat="44.42384" lon="5.47161">
        <ele>1233.5</ele>
        <time>2019-05-31T13:58:58Z</time>
      </trkpt>
      <trkpt lat="44.42387" lon="5.47149">
        <ele>1230.9</ele>
        <time>2019-05-31T13:59:08Z</time>
      </trkpt>
      <trkpt lat="44.42389" lon="5.47136">
        <ele>1228.9</ele>
        <time>2019-05-31T13:59:15Z</time>
      </trkpt>
      <trkpt lat="44.42393" lon="5.47124">
        <ele>1226.5</ele>
        <time>2019-05-31T13:59:25Z</time>
      </trkpt>
      <trkpt lat="44.42399" lon="5.47113">
        <ele>1224.4</ele>
        <time>2019-05-31T13:59:35Z</time>
      </trkpt>
      <trkpt lat="44.42406" lon="5.47104">
        <ele>1222.4</ele>
        <time>2019-05-31T13:59:45Z</time>
      </trkpt>
      <trkpt lat="44.42411" lon="5.47092">
        <ele>1220.5</ele>
        <time>2019-05-31T13:59:56Z</time>
      </trkpt>
      <trkpt lat="44.42412" lon="5.4708">
        <ele>1218.9</ele>
        <time>2019-05-31T14:00:04Z</time>
      </trkpt>
      <trkpt lat="44.42415" lon="5.47067">
        <ele>1217.3</ele>
        <time>2019-05-31T14:00:13Z</time>
      </trkpt>
      <trkpt lat="44.42419" lon="5.47054">
        <ele>1215.8</ele>
        <time>2019-05-31T14:00:22Z</time>
      </trkpt>
      <trkpt lat="44.42424" lon="5.47042">
        <ele>1214.8</ele>
        <time>2019-05-31T14:00:30Z</time>
      </trkpt>
      <trkpt lat="44.42428" lon="5.4703">
        <ele>1213.7</ele>
        <time>2019-05-31T14:00:37Z</time>
      </trkpt>
      <trkpt lat="44.42432" lon="5.47018">
        <ele>1212.4</ele>
        <time>2019-05-31T14:00:45Z</time>
      </trkpt>
      <trkpt lat="44.42435" lon="5.47004">
        <ele>1211.3</ele>
        <time>2019-05-31T14:00:53Z</time>
      </trkpt>
      <trkpt lat="44.42438" lon="5.46992">
        <ele>1209.9</ele>
        <time>2019-05-31T14:01:01Z</time>
      </trkpt>
      <trkpt lat="44.42443" lon="5.4698">
        <ele>1208.6</ele>
        <time>2019-05-31T14:01:10Z</time>
      </trkpt>
      <trkpt lat="44.42447" lon="5.46968">
        <ele>1207.3</ele>
        <time>2019-05-31T14:01:18Z</time>
      </trkpt>
      <trkpt lat="44.42451" lon="5.46956">
        <ele>1204.9</ele>
        <time>2019-05-31T14:01:30Z</time>
      </trkpt>
      <trkpt lat="44.42458" lon="5.46947">
        <ele>1203.8</ele>
        <time>2019-05-31T14:01:38Z</time>
      </trkpt>
      <trkpt lat="44.42464" lon="5.46937">
        <ele>1202.4</ele>
        <time>2019-05-31T14:01:46Z</time>
      </trkpt>
      <trkpt lat="44.42467" lon="5.46924">
        <ele>1201.1</ele>
        <time>2019-05-31T14:01:53Z</time>
      </trkpt>
      <trkpt lat="44.42471" lon="5.46913">
        <ele>1200.3</ele>
        <time>2019-05-31T14:02:00Z</time>
      </trkpt>
      <trkpt lat="44.42475" lon="5.469">
        <ele>1199.7</ele>
        <time>2019-05-31T14:02:07Z</time>
      </trkpt>
      <trkpt lat="44.42479" lon="5.46888">
        <ele>1199</ele>
        <time>2019-05-31T14:02:15Z</time>
      </trkpt>
      <trkpt lat="44.42486" lon="5.46878">
        <ele>1198.5</ele>
        <time>2019-05-31T14:02:23Z</time>
      </trkpt>
      <trkpt lat="44.42491" lon="5.46866">
        <ele>1197.7</ele>
        <time>2019-05-31T14:02:31Z</time>
      </trkpt>
      <trkpt lat="44.42496" lon="5.46855">
        <ele>1196.6</ele>
        <time>2019-05-31T14:02:40Z</time>
      </trkpt>
      <trkpt lat="44.42495" lon="5.46842">
        <ele>1194.4</ele>
        <time>2019-05-31T14:02:55Z</time>
      </trkpt>
      <trkpt lat="44.42498" lon="5.46828">
        <ele>1193</ele>
        <time>2019-05-31T14:03:12Z</time>
      </trkpt>
      <trkpt lat="44.42503" lon="5.46817">
        <ele>1191.1</ele>
        <time>2019-05-31T14:03:21Z</time>
      </trkpt>
      <trkpt lat="44.42511" lon="5.46811">
        <ele>1189.5</ele>
        <time>2019-05-31T14:03:28Z</time>
      </trkpt>
      <trkpt lat="44.42518" lon="5.46802">
        <ele>1187.4</ele>
        <time>2019-05-31T14:03:36Z</time>
      </trkpt>
      <trkpt lat="44.42523" lon="5.46791">
        <ele>1185.1</ele>
        <time>2019-05-31T14:03:45Z</time>
      </trkpt>
      <trkpt lat="44.42527" lon="5.46779">
        <ele>1181.9</ele>
        <time>2019-05-31T14:03:57Z</time>
      </trkpt>
      <trkpt lat="44.42536" lon="5.46772">
        <ele>1180.1</ele>
        <time>2019-05-31T14:04:05Z</time>
      </trkpt>
      <trkpt lat="44.42544" lon="5.46764">
        <ele>1177.5</ele>
        <time>2019-05-31T14:04:13Z</time>
      </trkpt>
      <trkpt lat="44.42551" lon="5.46754">
        <ele>1175.5</ele>
        <time>2019-05-31T14:04:21Z</time>
      </trkpt>
      <trkpt lat="44.42557" lon="5.46743">
        <ele>1173.5</ele>
        <time>2019-05-31T14:04:29Z</time>
      </trkpt>
      <trkpt lat="44.42565" lon="5.46735">
        <ele>1171.6</ele>
        <time>2019-05-31T14:04:37Z</time>
      </trkpt>
      <trkpt lat="44.42571" lon="5.46724">
        <ele>1169.8</ele>
        <time>2019-05-31T14:04:44Z</time>
      </trkpt>
      <trkpt lat="44.42576" lon="5.46712">
        <ele>1167.7</ele>
        <time>2019-05-31T14:04:52Z</time>
      </trkpt>
      <trkpt lat="44.42579" lon="5.467">
        <ele>1166.2</ele>
        <time>2019-05-31T14:04:59Z</time>
      </trkpt>
      <trkpt lat="44.42583" lon="5.46688">
        <ele>1164.8</ele>
        <time>2019-05-31T14:05:07Z</time>
      </trkpt>
      <trkpt lat="44.42589" lon="5.46676">
        <ele>1163.4</ele>
        <time>2019-05-31T14:05:15Z</time>
      </trkpt>
      <trkpt lat="44.42595" lon="5.46666">
        <ele>1162</ele>
        <time>2019-05-31T14:05:23Z</time>
      </trkpt>
      <trkpt lat="44.42597" lon="5.46653">
        <ele>1160.2</ele>
        <time>2019-05-31T14:05:31Z</time>
      </trkpt>
      <trkpt lat="44.42599" lon="5.46639">
        <ele>1158.5</ele>
        <time>2019-05-31T14:05:39Z</time>
      </trkpt>
      <trkpt lat="44.42599" lon="5.46626">
        <ele>1156.7</ele>
        <time>2019-05-31T14:05:46Z</time>
      </trkpt>
      <trkpt lat="44.42597" lon="5.46613">
        <ele>1154</ele>
        <time>2019-05-31T14:06:01Z</time>
      </trkpt>
      <trkpt lat="44.42597" lon="5.466">
        <ele>1152.3</ele>
        <time>2019-05-31T14:06:29Z</time>
      </trkpt>
      <trkpt lat="44.42601" lon="5.46589">
        <ele>1151.4</ele>
        <time>2019-05-31T14:06:59Z</time>
      </trkpt>
      <trkpt lat="44.42603" lon="5.46576">
        <ele>1150.2</ele>
        <time>2019-05-31T14:07:11Z</time>
      </trkpt>
      <trkpt lat="44.42606" lon="5.46563">
        <ele>1147.7</ele>
        <time>2019-05-31T14:07:22Z</time>
      </trkpt>
      <trkpt lat="44.42606" lon="5.4655">
        <ele>1145.3</ele>
        <time>2019-05-31T14:07:31Z</time>
      </trkpt>
      <trkpt lat="44.42608" lon="5.46537">
        <ele>1143.1</ele>
        <time>2019-05-31T14:07:39Z</time>
      </trkpt>
      <trkpt lat="44.4261" lon="5.46524">
        <ele>1140.2</ele>
        <time>2019-05-31T14:07:49Z</time>
      </trkpt>
      <trkpt lat="44.42611" lon="5.46511">
        <ele>1138.2</ele>
        <time>2019-05-31T14:07:56Z</time>
      </trkpt>
      <trkpt lat="44.42612" lon="5.46498">
        <ele>1136.1</ele>
        <time>2019-05-31T14:08:03Z</time>
      </trkpt>
      <trkpt lat="44.42611" lon="5.46485">
        <ele>1134.5</ele>
        <time>2019-05-31T14:08:10Z</time>
      </trkpt>
      <trkpt lat="44.4261" lon="5.46472">
        <ele>1133.2</ele>
        <time>2019-05-31T14:08:17Z</time>
      </trkpt>
      <trkpt lat="44.4261" lon="5.46455">
        <ele>1131.8</ele>
        <time>2019-05-31T14:08:25Z</time>
      </trkpt>
      <trkpt lat="44.4261" lon="5.46443">
        <ele>1130.1</ele>
        <time>2019-05-31T14:08:32Z</time>
      </trkpt>
      <trkpt lat="44.42611" lon="5.46429">
        <ele>1128</ele>
        <time>2019-05-31T14:08:40Z</time>
      </trkpt>
      <trkpt lat="44.42614" lon="5.46416">
        <ele>1125.7</ele>
        <time>2019-05-31T14:08:48Z</time>
      </trkpt>
      <trkpt lat="44.42619" lon="5.46405">
        <ele>1123.4</ele>
        <time>2019-05-31T14:08:56Z</time>
      </trkpt>
      <trkpt lat="44.42626" lon="5.46397">
        <ele>1120.4</ele>
        <time>2019-05-31T14:09:07Z</time>
      </trkpt>
      <trkpt lat="44.42634" lon="5.4639">
        <ele>1118.1</ele>
        <time>2019-05-31T14:09:16Z</time>
      </trkpt>
      <trkpt lat="44.42641" lon="5.46381">
        <ele>1115.3</ele>
        <time>2019-05-31T14:09:24Z</time>
      </trkpt>
      <trkpt lat="44.42648" lon="5.46373">
        <ele>1113</ele>
        <time>2019-05-31T14:09:31Z</time>
      </trkpt>
      <trkpt lat="44.42656" lon="5.46363">
        <ele>1110.9</ele>
        <time>2019-05-31T14:09:39Z</time>
      </trkpt>
      <trkpt lat="44.42663" lon="5.46354">
        <ele>1108.7</ele>
        <time>2019-05-31T14:09:47Z</time>
      </trkpt>
      <trkpt lat="44.4267" lon="5.46343">
        <ele>1106.7</ele>
        <time>2019-05-31T14:09:55Z</time>
      </trkpt>
      <trkpt lat="44.42674" lon="5.46332">
        <ele>1104.9</ele>
        <time>2019-05-31T14:10:02Z</time>
      </trkpt>
      <trkpt lat="44.42677" lon="5.4632">
        <ele>1102.7</ele>
        <time>2019-05-31T14:10:10Z</time>
      </trkpt>
      <trkpt lat="44.42679" lon="5.46307">
        <ele>1100.6</ele>
        <time>2019-05-31T14:10:23Z</time>
      </trkpt>
      <trkpt lat="44.4268" lon="5.46294">
        <ele>1099.4</ele>
        <time>2019-05-31T14:10:30Z</time>
      </trkpt>
      <trkpt lat="44.42681" lon="5.46282">
        <ele>1098.3</ele>
        <time>2019-05-31T14:10:36Z</time>
      </trkpt>
      <trkpt lat="44.4268" lon="5.46269">
        <ele>1097</ele>
        <time>2019-05-31T14:10:42Z</time>
      </trkpt>
      <trkpt lat="44.42678" lon="5.46257">
        <ele>1095.8</ele>
        <time>2019-05-31T14:10:49Z</time>
      </trkpt>
      <trkpt lat="44.42673" lon="5.46245">
        <ele>1093.7</ele>
        <time>2019-05-31T14:12:37Z</time>
      </trkpt>
      <trkpt lat="44.42664" lon="5.46246">
        <ele>1093.7</ele>
        <time>2019-05-31T14:12:45Z</time>
      </trkpt>
      <trkpt lat="44.42655" lon="5.46245">
        <ele>1094.1</ele>
        <time>2019-05-31T14:12:53Z</time>
      </trkpt>
      <trkpt lat="44.42645" lon="5.46242">
        <ele>1094.4</ele>
        <time>2019-05-31T14:13:01Z</time>
      </trkpt>
      <trkpt lat="44.42635" lon="5.46247">
        <ele>1094.6</ele>
        <time>2019-05-31T14:13:09Z</time>
      </trkpt>
      <trkpt lat="44.42626" lon="5.46249">
        <ele>1095</ele>
        <time>2019-05-31T14:13:17Z</time>
      </trkpt>
      <trkpt lat="44.42616" lon="5.46253">
        <ele>1095.2</ele>
        <time>2019-05-31T14:13:25Z</time>
      </trkpt>
      <trkpt lat="44.42607" lon="5.46254">
        <ele>1095.2</ele>
        <time>2019-05-31T14:13:32Z</time>
      </trkpt>
      <trkpt lat="44.42598" lon="5.46256">
        <ele>1094.8</ele>
        <time>2019-05-31T14:13:39Z</time>
      </trkpt>
      <trkpt lat="44.42589" lon="5.46257">
        <ele>1094.5</ele>
        <time>2019-05-31T14:13:46Z</time>
      </trkpt>
      <trkpt lat="44.42579" lon="5.46257">
        <ele>1094.1</ele>
        <time>2019-05-31T14:13:53Z</time>
      </trkpt>
      <trkpt lat="44.42569" lon="5.46256">
        <ele>1093.3</ele>
        <time>2019-05-31T14:14:01Z</time>
      </trkpt>
      <trkpt lat="44.42559" lon="5.46253">
        <ele>1092.6</ele>
        <time>2019-05-31T14:14:09Z</time>
      </trkpt>
      <trkpt lat="44.42551" lon="5.46248">
        <ele>1090.7</ele>
        <time>2019-05-31T14:14:40Z</time>
      </trkpt>
      <trkpt lat="44.42542" lon="5.46243">
        <ele>1090.9</ele>
        <time>2019-05-31T14:14:49Z</time>
      </trkpt>
      <trkpt lat="44.42532" lon="5.46239">
        <ele>1091.2</ele>
        <time>2019-05-31T14:14:57Z</time>
      </trkpt>
      <trkpt lat="44.42523" lon="5.46239">
        <ele>1092</ele>
        <time>2019-05-31T14:15:05Z</time>
      </trkpt>
      <trkpt lat="44.42513" lon="5.46238">
        <ele>1092.9</ele>
        <time>2019-05-31T14:15:13Z</time>
      </trkpt>
      <trkpt lat="44.42503" lon="5.46239">
        <ele>1093.8</ele>
        <time>2019-05-31T14:15:20Z</time>
      </trkpt>
      <trkpt lat="44.42494" lon="5.4624">
        <ele>1095</ele>
        <time>2019-05-31T14:15:28Z</time>
      </trkpt>
      <trkpt lat="44.42484" lon="5.4624">
        <ele>1096.1</ele>
        <time>2019-05-31T14:15:36Z</time>
      </trkpt>
      <trkpt lat="44.42475" lon="5.46238">
        <ele>1097</ele>
        <time>2019-05-31T14:15:44Z</time>
      </trkpt>
      <trkpt lat="44.42467" lon="5.46235">
        <ele>1097.6</ele>
        <time>2019-05-31T14:15:52Z</time>
      </trkpt>
      <trkpt lat="44.42458" lon="5.46232">
        <ele>1097.8</ele>
        <time>2019-05-31T14:16:00Z</time>
      </trkpt>
      <trkpt lat="44.42449" lon="5.46229">
        <ele>1098</ele>
        <time>2019-05-31T14:16:07Z</time>
      </trkpt>
      <trkpt lat="44.42439" lon="5.46228">
        <ele>1098.1</ele>
        <time>2019-05-31T14:16:16Z</time>
      </trkpt>
      <trkpt lat="44.4243" lon="5.46227">
        <ele>1098.1</ele>
        <time>2019-05-31T14:16:22Z</time>
      </trkpt>
      <trkpt lat="44.4242" lon="5.46225">
        <ele>1099</ele>
        <time>2019-05-31T14:16:29Z</time>
      </trkpt>
      <trkpt lat="44.42411" lon="5.46221">
        <ele>1099.8</ele>
        <time>2019-05-31T14:16:37Z</time>
      </trkpt>
      <trkpt lat="44.42402" lon="5.46215">
        <ele>1100.5</ele>
        <time>2019-05-31T14:16:43Z</time>
      </trkpt>
      <trkpt lat="44.42393" lon="5.46214">
        <ele>1101.2</ele>
        <time>2019-05-31T14:16:49Z</time>
      </trkpt>
      <trkpt lat="44.42383" lon="5.46215">
        <ele>1102.1</ele>
        <time>2019-05-31T14:16:56Z</time>
      </trkpt>
      <trkpt lat="44.42374" lon="5.46216">
        <ele>1102.8</ele>
        <time>2019-05-31T14:17:03Z</time>
      </trkpt>
      <trkpt lat="44.42365" lon="5.46219">
        <ele>1103.6</ele>
        <time>2019-05-31T14:17:10Z</time>
      </trkpt>
      <trkpt lat="44.42357" lon="5.46224">
        <ele>1104.3</ele>
        <time>2019-05-31T14:17:17Z</time>
      </trkpt>
      <trkpt lat="44.42351" lon="5.46233">
        <ele>1104.9</ele>
        <time>2019-05-31T14:17:25Z</time>
      </trkpt>
      <trkpt lat="44.42349" lon="5.46246">
        <ele>1105.6</ele>
        <time>2019-05-31T14:17:34Z</time>
      </trkpt>
      <trkpt lat="44.42348" lon="5.4626">
        <ele>1106.4</ele>
        <time>2019-05-31T14:18:08Z</time>
      </trkpt>
      <trkpt lat="44.42344" lon="5.46272">
        <ele>1106.2</ele>
        <time>2019-05-31T14:18:16Z</time>
      </trkpt>
      <trkpt lat="44.42339" lon="5.46283">
        <ele>1106</ele>
        <time>2019-05-31T14:18:24Z</time>
      </trkpt>
      <trkpt lat="44.42335" lon="5.46295">
        <ele>1105.4</ele>
        <time>2019-05-31T14:18:32Z</time>
      </trkpt>
      <trkpt lat="44.4233" lon="5.46307">
        <ele>1104.7</ele>
        <time>2019-05-31T14:18:41Z</time>
      </trkpt>
      <trkpt lat="44.42325" lon="5.46317">
        <ele>1103.8</ele>
        <time>2019-05-31T14:18:48Z</time>
      </trkpt>
      <trkpt lat="44.4232" lon="5.46329">
        <ele>1102.9</ele>
        <time>2019-05-31T14:18:56Z</time>
      </trkpt>
      <trkpt lat="44.42314" lon="5.4634">
        <ele>1102</ele>
        <time>2019-05-31T14:19:03Z</time>
      </trkpt>
      <trkpt lat="44.42312" lon="5.46354">
        <ele>1101.5</ele>
        <time>2019-05-31T14:19:11Z</time>
      </trkpt>
      <trkpt lat="44.42311" lon="5.46367">
        <ele>1101.9</ele>
        <time>2019-05-31T14:19:19Z</time>
      </trkpt>
      <trkpt lat="44.42304" lon="5.46378">
        <ele>1103</ele>
        <time>2019-05-31T14:19:27Z</time>
      </trkpt>
      <trkpt lat="44.42297" lon="5.46387">
        <ele>1103.6</ele>
        <time>2019-05-31T14:19:34Z</time>
      </trkpt>
      <trkpt lat="44.4229" lon="5.46397">
        <ele>1104</ele>
        <time>2019-05-31T14:19:42Z</time>
      </trkpt>
      <trkpt lat="44.42283" lon="5.46406">
        <ele>1104</ele>
        <time>2019-05-31T14:19:48Z</time>
      </trkpt>
      <trkpt lat="44.42275" lon="5.46414">
        <ele>1104.2</ele>
        <time>2019-05-31T14:19:56Z</time>
      </trkpt>
      <trkpt lat="44.42267" lon="5.46421">
        <ele>1104.1</ele>
        <time>2019-05-31T14:20:03Z</time>
      </trkpt>
      <trkpt lat="44.42259" lon="5.4643">
        <ele>1103.6</ele>
        <time>2019-05-31T14:20:11Z</time>
      </trkpt>
      <trkpt lat="44.42252" lon="5.4644">
        <ele>1103.2</ele>
        <time>2019-05-31T14:20:19Z</time>
      </trkpt>
      <trkpt lat="44.42243" lon="5.46445">
        <ele>1102.6</ele>
        <time>2019-05-31T14:20:27Z</time>
      </trkpt>
      <trkpt lat="44.42238" lon="5.46455">
        <ele>1101.5</ele>
        <time>2019-05-31T14:20:36Z</time>
      </trkpt>
      <trkpt lat="44.42233" lon="5.46467">
        <ele>1100.8</ele>
        <time>2019-05-31T14:20:45Z</time>
      </trkpt>
      <trkpt lat="44.42227" lon="5.46478">
        <ele>1100.5</ele>
        <time>2019-05-31T14:20:53Z</time>
      </trkpt>
      <trkpt lat="44.42223" lon="5.46491">
        <ele>1100.4</ele>
        <time>2019-05-31T14:21:01Z</time>
      </trkpt>
      <trkpt lat="44.42218" lon="5.46503">
        <ele>1100.7</ele>
        <time>2019-05-31T14:21:09Z</time>
      </trkpt>
      <trkpt lat="44.42214" lon="5.46515">
        <ele>1100.9</ele>
        <time>2019-05-31T14:21:17Z</time>
      </trkpt>
      <trkpt lat="44.42209" lon="5.46526">
        <ele>1101.5</ele>
        <time>2019-05-31T14:21:25Z</time>
      </trkpt>
      <trkpt lat="44.422" lon="5.46529">
        <ele>1102.1</ele>
        <time>2019-05-31T14:21:33Z</time>
      </trkpt>
      <trkpt lat="44.4219" lon="5.46526">
        <ele>1102.7</ele>
        <time>2019-05-31T14:21:41Z</time>
      </trkpt>
      <trkpt lat="44.42181" lon="5.46522">
        <ele>1103</ele>
        <time>2019-05-31T14:21:46Z</time>
      </trkpt>
      <trkpt lat="44.42172" lon="5.46524">
        <ele>1103.7</ele>
        <time>2019-05-31T14:21:52Z</time>
      </trkpt>
      <trkpt lat="44.42166" lon="5.46534">
        <ele>1104.2</ele>
        <time>2019-05-31T14:21:59Z</time>
      </trkpt>
      <trkpt lat="44.42161" lon="5.46545">
        <ele>1104.6</ele>
        <time>2019-05-31T14:22:06Z</time>
      </trkpt>
      <trkpt lat="44.42157" lon="5.46557">
        <ele>1104.7</ele>
        <time>2019-05-31T14:22:14Z</time>
      </trkpt>
      <trkpt lat="44.42151" lon="5.46567">
        <ele>1104.8</ele>
        <time>2019-05-31T14:22:26Z</time>
      </trkpt>
      <trkpt lat="44.42144" lon="5.46577">
        <ele>1104.5</ele>
        <time>2019-05-31T14:22:34Z</time>
      </trkpt>
      <trkpt lat="44.42137" lon="5.46586">
        <ele>1103.9</ele>
        <time>2019-05-31T14:22:41Z</time>
      </trkpt>
      <trkpt lat="44.42128" lon="5.46592">
        <ele>1103.3</ele>
        <time>2019-05-31T14:22:49Z</time>
      </trkpt>
      <trkpt lat="44.42123" lon="5.46603">
        <ele>1102.6</ele>
        <time>2019-05-31T14:22:56Z</time>
      </trkpt>
      <trkpt lat="44.42119" lon="5.46616">
        <ele>1102</ele>
        <time>2019-05-31T14:23:03Z</time>
      </trkpt>
      <trkpt lat="44.42112" lon="5.46626">
        <ele>1101.7</ele>
        <time>2019-05-31T14:23:11Z</time>
      </trkpt>
      <trkpt lat="44.42104" lon="5.46633">
        <ele>1101.5</ele>
        <time>2019-05-31T14:23:19Z</time>
      </trkpt>
      <trkpt lat="44.42095" lon="5.46638">
        <ele>1101.4</ele>
        <time>2019-05-31T14:23:26Z</time>
      </trkpt>
      <trkpt lat="44.42087" lon="5.46647">
        <ele>1100.8</ele>
        <time>2019-05-31T14:23:34Z</time>
      </trkpt>
      <trkpt lat="44.42079" lon="5.46654">
        <ele>1100.3</ele>
        <time>2019-05-31T14:23:41Z</time>
      </trkpt>
      <trkpt lat="44.42071" lon="5.46663">
        <ele>1099.9</ele>
        <time>2019-05-31T14:23:48Z</time>
      </trkpt>
      <trkpt lat="44.42067" lon="5.46675">
        <ele>1099.7</ele>
        <time>2019-05-31T14:23:55Z</time>
      </trkpt>
      <trkpt lat="44.4206" lon="5.46686">
        <ele>1099.6</ele>
        <time>2019-05-31T14:24:02Z</time>
      </trkpt>
      <trkpt lat="44.42054" lon="5.46696">
        <ele>1099.4</ele>
        <time>2019-05-31T14:24:09Z</time>
      </trkpt>
      <trkpt lat="44.42047" lon="5.46705">
        <ele>1099.3</ele>
        <time>2019-05-31T14:24:16Z</time>
      </trkpt>
      <trkpt lat="44.42039" lon="5.46713">
        <ele>1099.3</ele>
        <time>2019-05-31T14:24:23Z</time>
      </trkpt>
      <trkpt lat="44.42031" lon="5.46721">
        <ele>1099.3</ele>
        <time>2019-05-31T14:24:30Z</time>
      </trkpt>
      <trkpt lat="44.42023" lon="5.46728">
        <ele>1099.3</ele>
        <time>2019-05-31T14:24:37Z</time>
      </trkpt>
      <trkpt lat="44.42017" lon="5.46739">
        <ele>1099.6</ele>
        <time>2019-05-31T14:24:45Z</time>
      </trkpt>
      <trkpt lat="44.42007" lon="5.46742">
        <ele>1099.9</ele>
        <time>2019-05-31T14:24:53Z</time>
      </trkpt>
      <trkpt lat="44.41998" lon="5.46746">
        <ele>1100.2</ele>
        <time>2019-05-31T14:24:59Z</time>
      </trkpt>
      <trkpt lat="44.41992" lon="5.46755">
        <ele>1101.1</ele>
        <time>2019-05-31T14:26:04Z</time>
      </trkpt>
      <trkpt lat="44.4199" lon="5.46743">
        <ele>1100.8</ele>
        <time>2019-05-31T14:27:15Z</time>
      </trkpt>
      <trkpt lat="44.41983" lon="5.46735">
        <ele>1100.4</ele>
        <time>2019-05-31T14:27:26Z</time>
      </trkpt>
      <trkpt lat="44.41979" lon="5.46723">
        <ele>1099.7</ele>
        <time>2019-05-31T14:27:40Z</time>
      </trkpt>
      <trkpt lat="44.41971" lon="5.46715">
        <ele>1098.9</ele>
        <time>2019-05-31T14:27:51Z</time>
      </trkpt>
      <trkpt lat="44.41962" lon="5.46711">
        <ele>1098.2</ele>
        <time>2019-05-31T14:28:38Z</time>
      </trkpt>
      <trkpt lat="44.41955" lon="5.46701">
        <ele>1098.5</ele>
        <time>2019-05-31T14:28:46Z</time>
      </trkpt>
      <trkpt lat="44.4195" lon="5.4669">
        <ele>1099</ele>
        <time>2019-05-31T14:28:54Z</time>
      </trkpt>
      <trkpt lat="44.41942" lon="5.46681">
        <ele>1099.7</ele>
        <time>2019-05-31T14:29:03Z</time>
      </trkpt>
      <trkpt lat="44.41936" lon="5.4667">
        <ele>1100.1</ele>
        <time>2019-05-31T14:29:11Z</time>
      </trkpt>
      <trkpt lat="44.4193" lon="5.46659">
        <ele>1100.8</ele>
        <time>2019-05-31T14:29:18Z</time>
      </trkpt>
      <trkpt lat="44.41924" lon="5.46648">
        <ele>1101.4</ele>
        <time>2019-05-31T14:29:27Z</time>
      </trkpt>
      <trkpt lat="44.41917" lon="5.46637">
        <ele>1101.7</ele>
        <time>2019-05-31T14:29:34Z</time>
      </trkpt>
      <trkpt lat="44.41912" lon="5.46626">
        <ele>1102</ele>
        <time>2019-05-31T14:29:40Z</time>
      </trkpt>
      <trkpt lat="44.41906" lon="5.46615">
        <ele>1102.3</ele>
        <time>2019-05-31T14:29:47Z</time>
      </trkpt>
      <trkpt lat="44.419" lon="5.46606">
        <ele>1102.6</ele>
        <time>2019-05-31T14:29:53Z</time>
      </trkpt>
      <trkpt lat="44.41894" lon="5.46594">
        <ele>1102.8</ele>
        <time>2019-05-31T14:30:00Z</time>
      </trkpt>
      <trkpt lat="44.41887" lon="5.46585">
        <ele>1102.9</ele>
        <time>2019-05-31T14:30:08Z</time>
      </trkpt>
      <trkpt lat="44.41878" lon="5.46577">
        <ele>1103.1</ele>
        <time>2019-05-31T14:30:15Z</time>
      </trkpt>
      <trkpt lat="44.41871" lon="5.46568">
        <ele>1103.4</ele>
        <time>2019-05-31T14:30:21Z</time>
      </trkpt>
      <trkpt lat="44.41865" lon="5.46557">
        <ele>1103.9</ele>
        <time>2019-05-31T14:30:28Z</time>
      </trkpt>
      <trkpt lat="44.41859" lon="5.46546">
        <ele>1104.2</ele>
        <time>2019-05-31T14:30:36Z</time>
      </trkpt>
      <trkpt lat="44.41854" lon="5.46534">
        <ele>1104.2</ele>
        <time>2019-05-31T14:30:44Z</time>
      </trkpt>
      <trkpt lat="44.41848" lon="5.46523">
        <ele>1104</ele>
        <time>2019-05-31T14:30:51Z</time>
      </trkpt>
      <trkpt lat="44.41842" lon="5.46512">
        <ele>1103.8</ele>
        <time>2019-05-31T14:30:59Z</time>
      </trkpt>
      <trkpt lat="44.41836" lon="5.46501">
        <ele>1103.8</ele>
        <time>2019-05-31T14:31:06Z</time>
      </trkpt>
      <trkpt lat="44.4183" lon="5.4649">
        <ele>1103.9</ele>
        <time>2019-05-31T14:31:12Z</time>
      </trkpt>
      <trkpt lat="44.41825" lon="5.4648">
        <ele>1104.1</ele>
        <time>2019-05-31T14:31:18Z</time>
      </trkpt>
      <trkpt lat="44.4182" lon="5.46468">
        <ele>1104.4</ele>
        <time>2019-05-31T14:31:24Z</time>
      </trkpt>
      <trkpt lat="44.41815" lon="5.46457">
        <ele>1104.5</ele>
        <time>2019-05-31T14:31:30Z</time>
      </trkpt>
      <trkpt lat="44.41811" lon="5.46446">
        <ele>1104.6</ele>
        <time>2019-05-31T14:31:36Z</time>
      </trkpt>
      <trkpt lat="44.41807" lon="5.46434">
        <ele>1104.7</ele>
        <time>2019-05-31T14:31:43Z</time>
      </trkpt>
      <trkpt lat="44.41801" lon="5.46421">
        <ele>1104.7</ele>
        <time>2019-05-31T14:31:50Z</time>
      </trkpt>
      <trkpt lat="44.41797" lon="5.4641">
        <ele>1104.6</ele>
        <time>2019-05-31T14:31:56Z</time>
      </trkpt>
      <trkpt lat="44.41793" lon="5.46398">
        <ele>1104.6</ele>
        <time>2019-05-31T14:32:03Z</time>
      </trkpt>
      <trkpt lat="44.41788" lon="5.46387">
        <ele>1104.6</ele>
        <time>2019-05-31T14:32:09Z</time>
      </trkpt>
      <trkpt lat="44.41783" lon="5.46376">
        <ele>1104.6</ele>
        <time>2019-05-31T14:32:15Z</time>
      </trkpt>
      <trkpt lat="44.41778" lon="5.46364">
        <ele>1104.7</ele>
        <time>2019-05-31T14:32:21Z</time>
      </trkpt>
      <trkpt lat="44.41775" lon="5.46352">
        <ele>1105</ele>
        <time>2019-05-31T14:32:27Z</time>
      </trkpt>
      <trkpt lat="44.41771" lon="5.46338">
        <ele>1105.4</ele>
        <time>2019-05-31T14:32:34Z</time>
      </trkpt>
      <trkpt lat="44.41769" lon="5.46326">
        <ele>1105.7</ele>
        <time>2019-05-31T14:32:41Z</time>
      </trkpt>
      <trkpt lat="44.41765" lon="5.46314">
        <ele>1106.1</ele>
        <time>2019-05-31T14:32:48Z</time>
      </trkpt>
      <trkpt lat="44.41761" lon="5.46302">
        <ele>1106.6</ele>
        <time>2019-05-31T14:32:55Z</time>
      </trkpt>
      <trkpt lat="44.41758" lon="5.4629">
        <ele>1107.1</ele>
        <time>2019-05-31T14:33:01Z</time>
      </trkpt>
      <trkpt lat="44.41753" lon="5.46279">
        <ele>1107.9</ele>
        <time>2019-05-31T14:33:07Z</time>
      </trkpt>
      <trkpt lat="44.41749" lon="5.46266">
        <ele>1108.9</ele>
        <time>2019-05-31T14:33:14Z</time>
      </trkpt>
      <trkpt lat="44.41745" lon="5.46255">
        <ele>1109.7</ele>
        <time>2019-05-31T14:33:21Z</time>
      </trkpt>
      <trkpt lat="44.4174" lon="5.46243">
        <ele>1110.8</ele>
        <time>2019-05-31T14:33:28Z</time>
      </trkpt>
      <trkpt lat="44.41735" lon="5.46231">
        <ele>1112.3</ele>
        <time>2019-05-31T14:33:36Z</time>
      </trkpt>
      <trkpt lat="44.4173" lon="5.46219">
        <ele>1113.4</ele>
        <time>2019-05-31T14:33:43Z</time>
      </trkpt>
      <trkpt lat="44.41726" lon="5.46206">
        <ele>1114.7</ele>
        <time>2019-05-31T14:33:51Z</time>
      </trkpt>
      <trkpt lat="44.41722" lon="5.46193">
        <ele>1116.1</ele>
        <time>2019-05-31T14:34:00Z</time>
      </trkpt>
      <trkpt lat="44.41718" lon="5.4618">
        <ele>1117.2</ele>
        <time>2019-05-31T14:34:07Z</time>
      </trkpt>
      <trkpt lat="44.41714" lon="5.46168">
        <ele>1118.2</ele>
        <time>2019-05-31T14:34:14Z</time>
      </trkpt>
      <trkpt lat="44.4171" lon="5.46155">
        <ele>1119.1</ele>
        <time>2019-05-31T14:34:22Z</time>
      </trkpt>
      <trkpt lat="44.41704" lon="5.46143">
        <ele>1119.8</ele>
        <time>2019-05-31T14:34:29Z</time>
      </trkpt>
      <trkpt lat="44.41698" lon="5.46133">
        <ele>1120.3</ele>
        <time>2019-05-31T14:34:36Z</time>
      </trkpt>
      <trkpt lat="44.41692" lon="5.46123">
        <ele>1121.2</ele>
        <time>2019-05-31T14:34:43Z</time>
      </trkpt>
      <trkpt lat="44.41683" lon="5.46116">
        <ele>1121.8</ele>
        <time>2019-05-31T14:34:50Z</time>
      </trkpt>
      <trkpt lat="44.41674" lon="5.46113">
        <ele>1122.3</ele>
        <time>2019-05-31T14:34:58Z</time>
      </trkpt>
      <trkpt lat="44.41665" lon="5.46116">
        <ele>1121.9</ele>
        <time>2019-05-31T14:35:09Z</time>
      </trkpt>
      <trkpt lat="44.41656" lon="5.46116">
        <ele>1121.1</ele>
        <time>2019-05-31T14:35:20Z</time>
      </trkpt>
      <trkpt lat="44.41647" lon="5.46117">
        <ele>1118.6</ele>
        <time>2019-05-31T14:35:41Z</time>
      </trkpt>
      <trkpt lat="44.41638" lon="5.46123">
        <ele>1117</ele>
        <time>2019-05-31T14:38:46Z</time>
      </trkpt>
      <trkpt lat="44.41629" lon="5.46122">
        <ele>1115.7</ele>
        <time>2019-05-31T14:38:55Z</time>
      </trkpt>
      <trkpt lat="44.4162" lon="5.46124">
        <ele>1113.5</ele>
        <time>2019-05-31T14:39:06Z</time>
      </trkpt>
      <trkpt lat="44.41611" lon="5.46124">
        <ele>1111.5</ele>
        <time>2019-05-31T14:39:15Z</time>
      </trkpt>
      <trkpt lat="44.41603" lon="5.46131">
        <ele>1108.5</ele>
        <time>2019-05-31T14:39:27Z</time>
      </trkpt>
      <trkpt lat="44.41593" lon="5.46133">
        <ele>1106.5</ele>
        <time>2019-05-31T14:39:37Z</time>
      </trkpt>
      <trkpt lat="44.41584" lon="5.46126">
        <ele>1101.4</ele>
        <time>2019-05-31T14:40:23Z</time>
      </trkpt>
      <trkpt lat="44.41576" lon="5.4612">
        <ele>1100.1</ele>
        <time>2019-05-31T14:40:43Z</time>
      </trkpt>
      <trkpt lat="44.41567" lon="5.46126">
        <ele>1094.4</ele>
        <time>2019-05-31T14:41:54Z</time>
      </trkpt>
      <trkpt lat="44.41561" lon="5.46136">
        <ele>1091.6</ele>
        <time>2019-05-31T14:42:10Z</time>
      </trkpt>
      <trkpt lat="44.41554" lon="5.46143">
        <ele>1089.1</ele>
        <time>2019-05-31T14:42:28Z</time>
      </trkpt>
      <trkpt lat="44.41545" lon="5.46148">
        <ele>1086.2</ele>
        <time>2019-05-31T14:42:43Z</time>
      </trkpt>
      <trkpt lat="44.41536" lon="5.46153">
        <ele>1083.6</ele>
        <time>2019-05-31T14:42:59Z</time>
      </trkpt>
      <trkpt lat="44.41526" lon="5.46156">
        <ele>1081.3</ele>
        <time>2019-05-31T14:43:13Z</time>
      </trkpt>
      <trkpt lat="44.41518" lon="5.46159">
        <ele>1078.4</ele>
        <time>2019-05-31T14:43:30Z</time>
      </trkpt>
      <trkpt lat="44.41508" lon="5.46161">
        <ele>1075.3</ele>
        <time>2019-05-31T14:43:50Z</time>
      </trkpt>
      <trkpt lat="44.415" lon="5.46166">
        <ele>1072.4</ele>
        <time>2019-05-31T14:44:06Z</time>
      </trkpt>
      <trkpt lat="44.41491" lon="5.46171">
        <ele>1069.9</ele>
        <time>2019-05-31T14:44:22Z</time>
      </trkpt>
      <trkpt lat="44.41482" lon="5.46174">
        <ele>1067.9</ele>
        <time>2019-05-31T14:44:35Z</time>
      </trkpt>
      <trkpt lat="44.41473" lon="5.4618">
        <ele>1065.6</ele>
        <time>2019-05-31T14:44:51Z</time>
      </trkpt>
      <trkpt lat="44.41466" lon="5.46189">
        <ele>1063.7</ele>
        <time>2019-05-31T14:45:05Z</time>
      </trkpt>
      <trkpt lat="44.41459" lon="5.46197">
        <ele>1060.6</ele>
        <time>2019-05-31T14:45:20Z</time>
      </trkpt>
      <trkpt lat="44.41449" lon="5.46202">
        <ele>1057.6</ele>
        <time>2019-05-31T14:45:40Z</time>
      </trkpt>
      <trkpt lat="44.41441" lon="5.46206">
        <ele>1056.1</ele>
        <time>2019-05-31T14:45:52Z</time>
      </trkpt>
      <trkpt lat="44.41432" lon="5.46211">
        <ele>1054.2</ele>
        <time>2019-05-31T14:46:07Z</time>
      </trkpt>
      <trkpt lat="44.41423" lon="5.46213">
        <ele>1052.1</ele>
        <time>2019-05-31T14:46:20Z</time>
      </trkpt>
      <trkpt lat="44.41414" lon="5.46215">
        <ele>1050.5</ele>
        <time>2019-05-31T14:46:30Z</time>
      </trkpt>
      <trkpt lat="44.41404" lon="5.46217">
        <ele>1049</ele>
        <time>2019-05-31T14:46:41Z</time>
      </trkpt>
      <trkpt lat="44.41395" lon="5.4622">
        <ele>1048.1</ele>
        <time>2019-05-31T14:46:50Z</time>
      </trkpt>
      <trkpt lat="44.41388" lon="5.46212">
        <ele>1046.5</ele>
        <time>2019-05-31T14:47:09Z</time>
      </trkpt>
      <trkpt lat="44.41379" lon="5.46205">
        <ele>1045.6</ele>
        <time>2019-05-31T14:47:18Z</time>
      </trkpt>
      <trkpt lat="44.41371" lon="5.46199">
        <ele>1044.8</ele>
        <time>2019-05-31T14:47:27Z</time>
      </trkpt>
      <trkpt lat="44.41361" lon="5.46194">
        <ele>1044.2</ele>
        <time>2019-05-31T14:47:33Z</time>
      </trkpt>
      <trkpt lat="44.41351" lon="5.46191">
        <ele>1043.5</ele>
        <time>2019-05-31T14:47:40Z</time>
      </trkpt>
      <trkpt lat="44.41342" lon="5.46187">
        <ele>1042.6</ele>
        <time>2019-05-31T14:47:46Z</time>
      </trkpt>
      <trkpt lat="44.41334" lon="5.46184">
        <ele>1041.8</ele>
        <time>2019-05-31T14:47:53Z</time>
      </trkpt>
      <trkpt lat="44.41324" lon="5.46181">
        <ele>1040.3</ele>
        <time>2019-05-31T14:48:01Z</time>
      </trkpt>
      <trkpt lat="44.41316" lon="5.46175">
        <ele>1039</ele>
        <time>2019-05-31T14:48:09Z</time>
      </trkpt>
      <trkpt lat="44.41307" lon="5.46168">
        <ele>1037.9</ele>
        <time>2019-05-31T14:48:17Z</time>
      </trkpt>
      <trkpt lat="44.41298" lon="5.46162">
        <ele>1036.4</ele>
        <time>2019-05-31T14:48:26Z</time>
      </trkpt>
      <trkpt lat="44.41289" lon="5.46158">
        <ele>1034.7</ele>
        <time>2019-05-31T14:48:36Z</time>
      </trkpt>
      <trkpt lat="44.4128" lon="5.46153">
        <ele>1032.5</ele>
        <time>2019-05-31T14:48:49Z</time>
      </trkpt>
      <trkpt lat="44.41271" lon="5.46151">
        <ele>1030.5</ele>
        <time>2019-05-31T14:48:58Z</time>
      </trkpt>
      <trkpt lat="44.41262" lon="5.46148">
        <ele>1028.4</ele>
        <time>2019-05-31T14:49:08Z</time>
      </trkpt>
      <trkpt lat="44.41252" lon="5.46146">
        <ele>1026.9</ele>
        <time>2019-05-31T14:49:16Z</time>
      </trkpt>
      <trkpt lat="44.41243" lon="5.46147">
        <ele>1025.7</ele>
        <time>2019-05-31T14:49:23Z</time>
      </trkpt>
      <trkpt lat="44.41234" lon="5.46149">
        <ele>1024</ele>
        <time>2019-05-31T14:49:31Z</time>
      </trkpt>
      <trkpt lat="44.41224" lon="5.4615">
        <ele>1022.6</ele>
        <time>2019-05-31T14:49:39Z</time>
      </trkpt>
      <trkpt lat="44.41215" lon="5.4615">
        <ele>1021.4</ele>
        <time>2019-05-31T14:49:47Z</time>
      </trkpt>
      <trkpt lat="44.41205" lon="5.46152">
        <ele>1019.8</ele>
        <time>2019-05-31T14:49:55Z</time>
      </trkpt>
      <trkpt lat="44.41196" lon="5.46153">
        <ele>1018.4</ele>
        <time>2019-05-31T14:50:04Z</time>
      </trkpt>
      <trkpt lat="44.41187" lon="5.46156">
        <ele>1017.1</ele>
        <time>2019-05-31T14:50:13Z</time>
      </trkpt>
      <trkpt lat="44.41177" lon="5.46159">
        <ele>1015.3</ele>
        <time>2019-05-31T14:50:23Z</time>
      </trkpt>
      <trkpt lat="44.41168" lon="5.46161">
        <ele>1013.8</ele>
        <time>2019-05-31T14:50:31Z</time>
      </trkpt>
      <trkpt lat="44.41159" lon="5.46158">
        <ele>1012.2</ele>
        <time>2019-05-31T14:50:40Z</time>
      </trkpt>
      <trkpt lat="44.4115" lon="5.46156">
        <ele>1010.6</ele>
        <time>2019-05-31T14:50:48Z</time>
      </trkpt>
      <trkpt lat="44.41141" lon="5.46158">
        <ele>1008.8</ele>
        <time>2019-05-31T14:50:57Z</time>
      </trkpt>
      <trkpt lat="44.41132" lon="5.46162">
        <ele>1007.1</ele>
        <time>2019-05-31T14:51:10Z</time>
      </trkpt>
      <trkpt lat="44.41123" lon="5.46166">
        <ele>1005.6</ele>
        <time>2019-05-31T14:51:18Z</time>
      </trkpt>
      <trkpt lat="44.41114" lon="5.46167">
        <ele>1003.9</ele>
        <time>2019-05-31T14:51:26Z</time>
      </trkpt>
      <trkpt lat="44.41104" lon="5.46168">
        <ele>1002.7</ele>
        <time>2019-05-31T14:51:36Z</time>
      </trkpt>
      <trkpt lat="44.41096" lon="5.46172">
        <ele>1000</ele>
        <time>2019-05-31T14:51:50Z</time>
      </trkpt>
      <trkpt lat="44.41087" lon="5.46172">
        <ele>998.8</ele>
        <time>2019-05-31T14:51:58Z</time>
      </trkpt>
      <trkpt lat="44.41077" lon="5.46174">
        <ele>997.2</ele>
        <time>2019-05-31T14:52:09Z</time>
      </trkpt>
      <trkpt lat="44.41068" lon="5.46178">
        <ele>995.3</ele>
        <time>2019-05-31T14:52:17Z</time>
      </trkpt>
      <trkpt lat="44.41058" lon="5.4618">
        <ele>994.1</ele>
        <time>2019-05-31T14:52:25Z</time>
      </trkpt>
      <trkpt lat="44.41049" lon="5.46184">
        <ele>992.8</ele>
        <time>2019-05-31T14:52:34Z</time>
      </trkpt>
      <trkpt lat="44.41041" lon="5.46189">
        <ele>991.3</ele>
        <time>2019-05-31T14:52:42Z</time>
      </trkpt>
      <trkpt lat="44.41031" lon="5.46194">
        <ele>989.9</ele>
        <time>2019-05-31T14:52:50Z</time>
      </trkpt>
      <trkpt lat="44.41023" lon="5.462">
        <ele>988.4</ele>
        <time>2019-05-31T14:52:58Z</time>
      </trkpt>
      <trkpt lat="44.41015" lon="5.46208">
        <ele>987.4</ele>
        <time>2019-05-31T14:53:06Z</time>
      </trkpt>
      <trkpt lat="44.41009" lon="5.46219">
        <ele>986.5</ele>
        <time>2019-05-31T14:53:16Z</time>
      </trkpt>
      <trkpt lat="44.41005" lon="5.46231">
        <ele>985.2</ele>
        <time>2019-05-31T14:53:26Z</time>
      </trkpt>
      <trkpt lat="44.41003" lon="5.46244">
        <ele>983.9</ele>
        <time>2019-05-31T14:53:35Z</time>
      </trkpt>
      <trkpt lat="44.41006" lon="5.46257">
        <ele>983</ele>
        <time>2019-05-31T14:53:43Z</time>
      </trkpt>
      <trkpt lat="44.41008" lon="5.4627">
        <ele>981.3</ele>
        <time>2019-05-31T14:53:53Z</time>
      </trkpt>
      <trkpt lat="44.41013" lon="5.46281">
        <ele>979.2</ele>
        <time>2019-05-31T14:54:11Z</time>
      </trkpt>
      <trkpt lat="44.41019" lon="5.46291">
        <ele>976.4</ele>
        <time>2019-05-31T14:54:44Z</time>
      </trkpt>
      <trkpt lat="44.4102" lon="5.46304">
        <ele>975</ele>
        <time>2019-05-31T14:54:57Z</time>
      </trkpt>
      <trkpt lat="44.41022" lon="5.46316">
        <ele>972.5</ele>
        <time>2019-05-31T14:55:16Z</time>
      </trkpt>
      <trkpt lat="44.41024" lon="5.46328">
        <ele>970.3</ele>
        <time>2019-05-31T14:55:32Z</time>
      </trkpt>
      <trkpt lat="44.41019" lon="5.46339">
        <ele>969</ele>
        <time>2019-05-31T14:55:41Z</time>
      </trkpt>
      <trkpt lat="44.41013" lon="5.46349">
        <ele>967.3</ele>
        <time>2019-05-31T14:55:56Z</time>
      </trkpt>
      <trkpt lat="44.41007" lon="5.46359">
        <ele>965.7</ele>
        <time>2019-05-31T14:56:09Z</time>
      </trkpt>
      <trkpt lat="44.41001" lon="5.46368">
        <ele>963.6</ele>
        <time>2019-05-31T14:56:22Z</time>
      </trkpt>
      <trkpt lat="44.40995" lon="5.46379">
        <ele>962.1</ele>
        <time>2019-05-31T14:56:33Z</time>
      </trkpt>
      <trkpt lat="44.40988" lon="5.46389">
        <ele>960.3</ele>
        <time>2019-05-31T14:56:44Z</time>
      </trkpt>
      <trkpt lat="44.40982" lon="5.464">
        <ele>959.1</ele>
        <time>2019-05-31T14:56:55Z</time>
      </trkpt>
      <trkpt lat="44.40977" lon="5.4641">
        <ele>958.4</ele>
        <time>2019-05-31T14:57:04Z</time>
      </trkpt>
      <trkpt lat="44.40974" lon="5.46422">
        <ele>957.5</ele>
        <time>2019-05-31T14:57:14Z</time>
      </trkpt>
      <trkpt lat="44.40973" lon="5.46435">
        <ele>956.7</ele>
        <time>2019-05-31T14:57:23Z</time>
      </trkpt>
      <trkpt lat="44.40972" lon="5.46448">
        <ele>955.9</ele>
        <time>2019-05-31T14:57:31Z</time>
      </trkpt>
      <trkpt lat="44.40972" lon="5.46461">
        <ele>955.5</ele>
        <time>2019-05-31T14:57:39Z</time>
      </trkpt>
      <trkpt lat="44.40972" lon="5.46474">
        <ele>955.1</ele>
        <time>2019-05-31T14:57:48Z</time>
      </trkpt>
      <trkpt lat="44.4097" lon="5.46487">
        <ele>954.5</ele>
        <time>2019-05-31T14:57:57Z</time>
      </trkpt>
      <trkpt lat="44.40968" lon="5.46501">
        <ele>953.7</ele>
        <time>2019-05-31T14:58:06Z</time>
      </trkpt>
      <trkpt lat="44.40966" lon="5.46513">
        <ele>953</ele>
        <time>2019-05-31T14:58:14Z</time>
      </trkpt>
      <trkpt lat="44.40967" lon="5.46526">
        <ele>952.5</ele>
        <time>2019-05-31T14:58:22Z</time>
      </trkpt>
      <trkpt lat="44.40969" lon="5.46539">
        <ele>950.8</ele>
        <time>2019-05-31T14:58:44Z</time>
      </trkpt>
      <trkpt lat="44.4097" lon="5.46552">
        <ele>949.5</ele>
        <time>2019-05-31T14:59:16Z</time>
      </trkpt>
      <trkpt lat="44.40971" lon="5.46564">
        <ele>949.6</ele>
        <time>2019-05-31T14:59:47Z</time>
      </trkpt>
      <trkpt lat="44.40964" lon="5.46575">
        <ele>949.8</ele>
        <time>2019-05-31T15:00:38Z</time>
      </trkpt>
      <trkpt lat="44.40955" lon="5.46579">
        <ele>950</ele>
        <time>2019-05-31T15:00:49Z</time>
      </trkpt>
      <trkpt lat="44.40946" lon="5.46581">
        <ele>950.2</ele>
        <time>2019-05-31T15:00:57Z</time>
      </trkpt>
      <trkpt lat="44.40936" lon="5.46583">
        <ele>950.6</ele>
        <time>2019-05-31T15:01:05Z</time>
      </trkpt>
      <trkpt lat="44.40927" lon="5.46584">
        <ele>951.2</ele>
        <time>2019-05-31T15:01:12Z</time>
      </trkpt>
      <trkpt lat="44.40918" lon="5.46587">
        <ele>951.7</ele>
        <time>2019-05-31T15:01:19Z</time>
      </trkpt>
      <trkpt lat="44.40908" lon="5.46589">
        <ele>952.1</ele>
        <time>2019-05-31T15:01:26Z</time>
      </trkpt>
      <trkpt lat="44.40899" lon="5.46588">
        <ele>952.7</ele>
        <time>2019-05-31T15:01:33Z</time>
      </trkpt>
      <trkpt lat="44.40889" lon="5.46587">
        <ele>953.3</ele>
        <time>2019-05-31T15:01:40Z</time>
      </trkpt>
      <trkpt lat="44.40879" lon="5.46588">
        <ele>954</ele>
        <time>2019-05-31T15:01:47Z</time>
      </trkpt>
      <trkpt lat="44.40869" lon="5.46588">
        <ele>954.8</ele>
        <time>2019-05-31T15:01:54Z</time>
      </trkpt>
      <trkpt lat="44.4086" lon="5.4659">
        <ele>955.2</ele>
        <time>2019-05-31T15:02:01Z</time>
      </trkpt>
      <trkpt lat="44.40851" lon="5.46588">
        <ele>955.7</ele>
        <time>2019-05-31T15:02:09Z</time>
      </trkpt>
      <trkpt lat="44.40842" lon="5.4658">
        <ele>956.2</ele>
        <time>2019-05-31T15:02:16Z</time>
      </trkpt>
      <trkpt lat="44.40833" lon="5.46575">
        <ele>956.8</ele>
        <time>2019-05-31T15:02:24Z</time>
      </trkpt>
      <trkpt lat="44.40825" lon="5.46566">
        <ele>957.2</ele>
        <time>2019-05-31T15:02:31Z</time>
      </trkpt>
      <trkpt lat="44.40816" lon="5.46559">
        <ele>957.8</ele>
        <time>2019-05-31T15:02:38Z</time>
      </trkpt>
      <trkpt lat="44.40807" lon="5.46561">
        <ele>958.3</ele>
        <time>2019-05-31T15:02:46Z</time>
      </trkpt>
      <trkpt lat="44.40798" lon="5.46568">
        <ele>958.2</ele>
        <time>2019-05-31T15:02:55Z</time>
      </trkpt>
      <trkpt lat="44.40791" lon="5.46575">
        <ele>958.1</ele>
        <time>2019-05-31T15:03:02Z</time>
      </trkpt>
      <trkpt lat="44.40781" lon="5.46579">
        <ele>958.2</ele>
        <time>2019-05-31T15:03:09Z</time>
      </trkpt>
      <trkpt lat="44.40773" lon="5.46584">
        <ele>959.3</ele>
        <time>2019-05-31T15:03:16Z</time>
      </trkpt>
      <trkpt lat="44.40763" lon="5.46585">
        <ele>960</ele>
        <time>2019-05-31T15:03:24Z</time>
      </trkpt>
      <trkpt lat="44.40753" lon="5.4658">
        <ele>961.1</ele>
        <time>2019-05-31T15:03:33Z</time>
      </trkpt>
      <trkpt lat="44.40745" lon="5.46572">
        <ele>962.3</ele>
        <time>2019-05-31T15:03:41Z</time>
      </trkpt>
      <trkpt lat="44.40739" lon="5.46563">
        <ele>963.5</ele>
        <time>2019-05-31T15:03:49Z</time>
      </trkpt>
      <trkpt lat="44.40732" lon="5.46553">
        <ele>964.6</ele>
        <time>2019-05-31T15:03:57Z</time>
      </trkpt>
      <trkpt lat="44.40725" lon="5.46544">
        <ele>965.7</ele>
        <time>2019-05-31T15:04:04Z</time>
      </trkpt>
      <trkpt lat="44.40718" lon="5.46536">
        <ele>966.8</ele>
        <time>2019-05-31T15:04:10Z</time>
      </trkpt>
      <trkpt lat="44.40708" lon="5.4653">
        <ele>967.6</ele>
        <time>2019-05-31T15:04:17Z</time>
      </trkpt>
      <trkpt lat="44.40701" lon="5.46521">
        <ele>967.9</ele>
        <time>2019-05-31T15:04:23Z</time>
      </trkpt>
      <trkpt lat="44.40693" lon="5.46513">
        <ele>968</ele>
        <time>2019-05-31T15:04:30Z</time>
      </trkpt>
      <trkpt lat="44.40683" lon="5.4651">
        <ele>967.8</ele>
        <time>2019-05-31T15:04:38Z</time>
      </trkpt>
      <trkpt lat="44.40674" lon="5.46509">
        <ele>967</ele>
        <time>2019-05-31T15:04:46Z</time>
      </trkpt>
      <trkpt lat="44.40664" lon="5.46507">
        <ele>965.5</ele>
        <time>2019-05-31T15:04:54Z</time>
      </trkpt>
      <trkpt lat="44.40655" lon="5.46505">
        <ele>964.2</ele>
        <time>2019-05-31T15:05:01Z</time>
      </trkpt>
      <trkpt lat="44.40645" lon="5.46505">
        <ele>962.5</ele>
        <time>2019-05-31T15:05:09Z</time>
      </trkpt>
      <trkpt lat="44.40636" lon="5.46505">
        <ele>960.9</ele>
        <time>2019-05-31T15:05:17Z</time>
      </trkpt>
      <trkpt lat="44.40626" lon="5.46506">
        <ele>959.1</ele>
        <time>2019-05-31T15:05:26Z</time>
      </trkpt>
      <trkpt lat="44.40617" lon="5.46504">
        <ele>957.5</ele>
        <time>2019-05-31T15:05:34Z</time>
      </trkpt>
      <trkpt lat="44.40607" lon="5.46501">
        <ele>956.1</ele>
        <time>2019-05-31T15:05:42Z</time>
      </trkpt>
      <trkpt lat="44.40598" lon="5.46496">
        <ele>954.6</ele>
        <time>2019-05-31T15:05:52Z</time>
      </trkpt>
      <trkpt lat="44.4059" lon="5.46492">
        <ele>953.4</ele>
        <time>2019-05-31T15:06:00Z</time>
      </trkpt>
      <trkpt lat="44.40581" lon="5.46487">
        <ele>952.2</ele>
        <time>2019-05-31T15:06:09Z</time>
      </trkpt>
      <trkpt lat="44.40572" lon="5.46482">
        <ele>951</ele>
        <time>2019-05-31T15:06:17Z</time>
      </trkpt>
      <trkpt lat="44.40563" lon="5.46475">
        <ele>949.9</ele>
        <time>2019-05-31T15:06:24Z</time>
      </trkpt>
      <trkpt lat="44.40555" lon="5.46468">
        <ele>948.3</ele>
        <time>2019-05-31T15:06:32Z</time>
      </trkpt>
      <trkpt lat="44.40548" lon="5.46461">
        <ele>946.7</ele>
        <time>2019-05-31T15:06:41Z</time>
      </trkpt>
      <trkpt lat="44.40539" lon="5.46455">
        <ele>945.3</ele>
        <time>2019-05-31T15:06:49Z</time>
      </trkpt>
      <trkpt lat="44.4053" lon="5.46448">
        <ele>944</ele>
        <time>2019-05-31T15:06:56Z</time>
      </trkpt>
      <trkpt lat="44.40522" lon="5.46441">
        <ele>942.5</ele>
        <time>2019-05-31T15:07:05Z</time>
      </trkpt>
      <trkpt lat="44.40515" lon="5.46432">
        <ele>940.9</ele>
        <time>2019-05-31T15:07:13Z</time>
      </trkpt>
      <trkpt lat="44.40508" lon="5.46424">
        <ele>939.6</ele>
        <time>2019-05-31T15:07:21Z</time>
      </trkpt>
      <trkpt lat="44.405" lon="5.46416">
        <ele>938.3</ele>
        <time>2019-05-31T15:07:29Z</time>
      </trkpt>
      <trkpt lat="44.40492" lon="5.46406">
        <ele>937.1</ele>
        <time>2019-05-31T15:07:36Z</time>
      </trkpt>
      <trkpt lat="44.40484" lon="5.46396">
        <ele>936.1</ele>
        <time>2019-05-31T15:07:42Z</time>
      </trkpt>
      <trkpt lat="44.40478" lon="5.46385">
        <ele>934.3</ele>
        <time>2019-05-31T15:07:49Z</time>
      </trkpt>
      <trkpt lat="44.40471" lon="5.46376">
        <ele>932.9</ele>
        <time>2019-05-31T15:07:55Z</time>
      </trkpt>
      <trkpt lat="44.40464" lon="5.46366">
        <ele>931.5</ele>
        <time>2019-05-31T15:08:04Z</time>
      </trkpt>
      <trkpt lat="44.40456" lon="5.46358">
        <ele>930.5</ele>
        <time>2019-05-31T15:08:11Z</time>
      </trkpt>
      <trkpt lat="44.40447" lon="5.46351">
        <ele>929</ele>
        <time>2019-05-31T15:08:19Z</time>
      </trkpt>
      <trkpt lat="44.4044" lon="5.46342">
        <ele>927.5</ele>
        <time>2019-05-31T15:08:27Z</time>
      </trkpt>
      <trkpt lat="44.40433" lon="5.46334">
        <ele>925.9</ele>
        <time>2019-05-31T15:08:35Z</time>
      </trkpt>
      <trkpt lat="44.40423" lon="5.4633">
        <ele>924.1</ele>
        <time>2019-05-31T15:08:43Z</time>
      </trkpt>
      <trkpt lat="44.40415" lon="5.46323">
        <ele>922.4</ele>
        <time>2019-05-31T15:08:50Z</time>
      </trkpt>
      <trkpt lat="44.40406" lon="5.46324">
        <ele>920.8</ele>
        <time>2019-05-31T15:08:59Z</time>
      </trkpt>
      <trkpt lat="44.40398" lon="5.46332">
        <ele>919.7</ele>
        <time>2019-05-31T15:09:07Z</time>
      </trkpt>
      <trkpt lat="44.40393" lon="5.46344">
        <ele>917.9</ele>
        <time>2019-05-31T15:09:17Z</time>
      </trkpt>
      <trkpt lat="44.40391" lon="5.46356">
        <ele>916.3</ele>
        <time>2019-05-31T15:09:25Z</time>
      </trkpt>
      <trkpt lat="44.40394" lon="5.46368">
        <ele>915.3</ele>
        <time>2019-05-31T15:09:33Z</time>
      </trkpt>
      <trkpt lat="44.40398" lon="5.4638">
        <ele>914.2</ele>
        <time>2019-05-31T15:09:41Z</time>
      </trkpt>
      <trkpt lat="44.40405" lon="5.46391">
        <ele>913.2</ele>
        <time>2019-05-31T15:09:49Z</time>
      </trkpt>
      <trkpt lat="44.40412" lon="5.464">
        <ele>911.9</ele>
        <time>2019-05-31T15:09:58Z</time>
      </trkpt>
      <trkpt lat="44.4042" lon="5.46409">
        <ele>910.8</ele>
        <time>2019-05-31T15:10:06Z</time>
      </trkpt>
      <trkpt lat="44.40426" lon="5.4642">
        <ele>909.9</ele>
        <time>2019-05-31T15:10:14Z</time>
      </trkpt>
      <trkpt lat="44.4043" lon="5.46432">
        <ele>908.9</ele>
        <time>2019-05-31T15:10:20Z</time>
      </trkpt>
      <trkpt lat="44.40432" lon="5.46445">
        <ele>908</ele>
        <time>2019-05-31T15:10:26Z</time>
      </trkpt>
      <trkpt lat="44.40434" lon="5.46458">
        <ele>907.5</ele>
        <time>2019-05-31T15:10:32Z</time>
      </trkpt>
      <trkpt lat="44.40434" lon="5.46472">
        <ele>906.8</ele>
        <time>2019-05-31T15:10:39Z</time>
      </trkpt>
      <trkpt lat="44.40427" lon="5.46481">
        <ele>906.4</ele>
        <time>2019-05-31T15:10:45Z</time>
      </trkpt>
      <trkpt lat="44.40422" lon="5.46492">
        <ele>905.9</ele>
        <time>2019-05-31T15:10:51Z</time>
      </trkpt>
      <trkpt lat="44.40418" lon="5.46505">
        <ele>905.1</ele>
        <time>2019-05-31T15:10:58Z</time>
      </trkpt>
      <trkpt lat="44.40413" lon="5.46518">
        <ele>904.3</ele>
        <time>2019-05-31T15:11:05Z</time>
      </trkpt>
      <trkpt lat="44.4041" lon="5.4653">
        <ele>903.2</ele>
        <time>2019-05-31T15:11:11Z</time>
      </trkpt>
      <trkpt lat="44.40403" lon="5.46539">
        <ele>902.2</ele>
        <time>2019-05-31T15:11:17Z</time>
      </trkpt>
      <trkpt lat="44.40395" lon="5.46545">
        <ele>901.5</ele>
        <time>2019-05-31T15:11:23Z</time>
      </trkpt>
      <trkpt lat="44.40387" lon="5.46552">
        <ele>900.8</ele>
        <time>2019-05-31T15:11:30Z</time>
      </trkpt>
      <trkpt lat="44.40379" lon="5.46559">
        <ele>899.9</ele>
        <time>2019-05-31T15:11:37Z</time>
      </trkpt>
      <trkpt lat="44.40371" lon="5.46565">
        <ele>898.9</ele>
        <time>2019-05-31T15:11:44Z</time>
      </trkpt>
      <trkpt lat="44.40362" lon="5.46571">
        <ele>898</ele>
        <time>2019-05-31T15:11:51Z</time>
      </trkpt>
      <trkpt lat="44.40354" lon="5.46579">
        <ele>896.9</ele>
        <time>2019-05-31T15:11:59Z</time>
      </trkpt>
      <trkpt lat="44.40345" lon="5.46583">
        <ele>895.7</ele>
        <time>2019-05-31T15:12:07Z</time>
      </trkpt>
      <trkpt lat="44.40335" lon="5.46583">
        <ele>894.4</ele>
        <time>2019-05-31T15:12:15Z</time>
      </trkpt>
      <trkpt lat="44.40326" lon="5.46585">
        <ele>893.5</ele>
        <time>2019-05-31T15:12:22Z</time>
      </trkpt>
      <trkpt lat="44.40316" lon="5.46585">
        <ele>892.7</ele>
        <time>2019-05-31T15:12:29Z</time>
      </trkpt>
      <trkpt lat="44.40306" lon="5.46586">
        <ele>891.1</ele>
        <time>2019-05-31T15:12:37Z</time>
      </trkpt>
      <trkpt lat="44.40296" lon="5.46589">
        <ele>889.9</ele>
        <time>2019-05-31T15:12:45Z</time>
      </trkpt>
      <trkpt lat="44.40287" lon="5.46595">
        <ele>888.4</ele>
        <time>2019-05-31T15:12:52Z</time>
      </trkpt>
      <trkpt lat="44.4028" lon="5.46604">
        <ele>887</ele>
        <time>2019-05-31T15:13:00Z</time>
      </trkpt>
      <trkpt lat="44.4027" lon="5.46607">
        <ele>886</ele>
        <time>2019-05-31T15:13:08Z</time>
      </trkpt>
      <trkpt lat="44.4026" lon="5.4661">
        <ele>885.2</ele>
        <time>2019-05-31T15:13:15Z</time>
      </trkpt>
      <trkpt lat="44.40252" lon="5.46615">
        <ele>884.1</ele>
        <time>2019-05-31T15:13:21Z</time>
      </trkpt>
      <trkpt lat="44.40244" lon="5.46623">
        <ele>883.2</ele>
        <time>2019-05-31T15:13:28Z</time>
      </trkpt>
      <trkpt lat="44.40236" lon="5.46629">
        <ele>882.5</ele>
        <time>2019-05-31T15:13:35Z</time>
      </trkpt>
      <trkpt lat="44.40226" lon="5.46632">
        <ele>882</ele>
        <time>2019-05-31T15:13:43Z</time>
      </trkpt>
      <trkpt lat="44.40217" lon="5.46636">
        <ele>881.6</ele>
        <time>2019-05-31T15:13:51Z</time>
      </trkpt>
      <trkpt lat="44.40209" lon="5.4664">
        <ele>880.7</ele>
        <time>2019-05-31T15:13:58Z</time>
      </trkpt>
      <trkpt lat="44.40199" lon="5.46645">
        <ele>879.8</ele>
        <time>2019-05-31T15:14:05Z</time>
      </trkpt>
      <trkpt lat="44.40191" lon="5.4665">
        <ele>879.3</ele>
        <time>2019-05-31T15:14:11Z</time>
      </trkpt>
      <trkpt lat="44.40182" lon="5.46655">
        <ele>878.9</ele>
        <time>2019-05-31T15:14:18Z</time>
      </trkpt>
      <trkpt lat="44.40173" lon="5.46659">
        <ele>878.2</ele>
        <time>2019-05-31T15:14:25Z</time>
      </trkpt>
      <trkpt lat="44.40163" lon="5.46662">
        <ele>877.3</ele>
        <time>2019-05-31T15:14:33Z</time>
      </trkpt>
      <trkpt lat="44.40154" lon="5.46664">
        <ele>876.1</ele>
        <time>2019-05-31T15:14:41Z</time>
      </trkpt>
      <trkpt lat="44.40146" lon="5.46669">
        <ele>875.1</ele>
        <time>2019-05-31T15:14:49Z</time>
      </trkpt>
      <trkpt lat="44.40138" lon="5.46675">
        <ele>873.7</ele>
        <time>2019-05-31T15:14:57Z</time>
      </trkpt>
      <trkpt lat="44.40128" lon="5.4668">
        <ele>872.4</ele>
        <time>2019-05-31T15:15:05Z</time>
      </trkpt>
      <trkpt lat="44.40119" lon="5.46684">
        <ele>871</ele>
        <time>2019-05-31T15:15:13Z</time>
      </trkpt>
      <trkpt lat="44.4011" lon="5.46685">
        <ele>869.9</ele>
        <time>2019-05-31T15:15:20Z</time>
      </trkpt>
      <trkpt lat="44.401" lon="5.46686">
        <ele>868.7</ele>
        <time>2019-05-31T15:15:28Z</time>
      </trkpt>
      <trkpt lat="44.4009" lon="5.46688">
        <ele>867.5</ele>
        <time>2019-05-31T15:15:36Z</time>
      </trkpt>
      <trkpt lat="44.40081" lon="5.46689">
        <ele>866.9</ele>
        <time>2019-05-31T15:15:43Z</time>
      </trkpt>
      <trkpt lat="44.40071" lon="5.46692">
        <ele>866.1</ele>
        <time>2019-05-31T15:15:50Z</time>
      </trkpt>
      <trkpt lat="44.40061" lon="5.46696">
        <ele>865.4</ele>
        <time>2019-05-31T15:15:57Z</time>
      </trkpt>
      <trkpt lat="44.40052" lon="5.46699">
        <ele>864.3</ele>
        <time>2019-05-31T15:16:03Z</time>
      </trkpt>
      <trkpt lat="44.40043" lon="5.467">
        <ele>863.4</ele>
        <time>2019-05-31T15:16:10Z</time>
      </trkpt>
      <trkpt lat="44.40034" lon="5.46701">
        <ele>862.7</ele>
        <time>2019-05-31T15:16:17Z</time>
      </trkpt>
      <trkpt lat="44.40024" lon="5.46703">
        <ele>861.7</ele>
        <time>2019-05-31T15:16:25Z</time>
      </trkpt>
      <trkpt lat="44.40014" lon="5.46703">
        <ele>860.9</ele>
        <time>2019-05-31T15:16:33Z</time>
      </trkpt>
      <trkpt lat="44.40004" lon="5.46703">
        <ele>859.8</ele>
        <time>2019-05-31T15:16:41Z</time>
      </trkpt>
      <trkpt lat="44.39995" lon="5.46701">
        <ele>858.3</ele>
        <time>2019-05-31T15:16:49Z</time>
      </trkpt>
      <trkpt lat="44.39986" lon="5.46701">
        <ele>857.5</ele>
        <time>2019-05-31T15:16:56Z</time>
      </trkpt>
      <trkpt lat="44.39976" lon="5.46702">
        <ele>856.8</ele>
        <time>2019-05-31T15:17:03Z</time>
      </trkpt>
      <trkpt lat="44.39966" lon="5.46705">
        <ele>855.8</ele>
        <time>2019-05-31T15:17:10Z</time>
      </trkpt>
      <trkpt lat="44.39958" lon="5.46709">
        <ele>854.7</ele>
        <time>2019-05-31T15:17:17Z</time>
      </trkpt>
      <trkpt lat="44.39949" lon="5.46713">
        <ele>853.5</ele>
        <time>2019-05-31T15:17:24Z</time>
      </trkpt>
      <trkpt lat="44.3994" lon="5.46719">
        <ele>852.3</ele>
        <time>2019-05-31T15:17:31Z</time>
      </trkpt>
      <trkpt lat="44.39932" lon="5.46725">
        <ele>851.4</ele>
        <time>2019-05-31T15:17:38Z</time>
      </trkpt>
      <trkpt lat="44.39924" lon="5.46732">
        <ele>850.8</ele>
        <time>2019-05-31T15:17:45Z</time>
      </trkpt>
      <trkpt lat="44.39916" lon="5.46738">
        <ele>850</ele>
        <time>2019-05-31T15:17:52Z</time>
      </trkpt>
      <trkpt lat="44.39908" lon="5.46746">
        <ele>848.9</ele>
        <time>2019-05-31T15:18:00Z</time>
      </trkpt>
      <trkpt lat="44.39899" lon="5.46753">
        <ele>848</ele>
        <time>2019-05-31T15:18:08Z</time>
      </trkpt>
      <trkpt lat="44.39891" lon="5.46758">
        <ele>846.5</ele>
        <time>2019-05-31T15:18:17Z</time>
      </trkpt>
      <trkpt lat="44.39881" lon="5.4676">
        <ele>845.1</ele>
        <time>2019-05-31T15:18:26Z</time>
      </trkpt>
      <trkpt lat="44.39873" lon="5.46767">
        <ele>843.4</ele>
        <time>2019-05-31T15:18:36Z</time>
      </trkpt>
      <trkpt lat="44.39864" lon="5.4677">
        <ele>842.3</ele>
        <time>2019-05-31T15:18:44Z</time>
      </trkpt>
      <trkpt lat="44.39855" lon="5.46774">
        <ele>841.3</ele>
        <time>2019-05-31T15:18:52Z</time>
      </trkpt>
      <trkpt lat="44.39847" lon="5.46779">
        <ele>839.7</ele>
        <time>2019-05-31T15:19:00Z</time>
      </trkpt>
      <trkpt lat="44.39841" lon="5.4679">
        <ele>837.9</ele>
        <time>2019-05-31T15:19:12Z</time>
      </trkpt>
      <trkpt lat="44.39834" lon="5.46799">
        <ele>836.5</ele>
        <time>2019-05-31T15:19:22Z</time>
      </trkpt>
      <trkpt lat="44.39825" lon="5.46801">
        <ele>834.9</ele>
        <time>2019-05-31T15:19:30Z</time>
      </trkpt>
      <trkpt lat="44.39815" lon="5.46804">
        <ele>833.7</ele>
        <time>2019-05-31T15:19:39Z</time>
      </trkpt>
      <trkpt lat="44.39806" lon="5.4681">
        <ele>832.1</ele>
        <time>2019-05-31T15:19:50Z</time>
      </trkpt>
      <trkpt lat="44.39799" lon="5.46817">
        <ele>830.2</ele>
        <time>2019-05-31T15:19:58Z</time>
      </trkpt>
      <trkpt lat="44.39792" lon="5.46825">
        <ele>828.9</ele>
        <time>2019-05-31T15:20:05Z</time>
      </trkpt>
      <trkpt lat="44.39784" lon="5.46832">
        <ele>828</ele>
        <time>2019-05-31T15:20:12Z</time>
      </trkpt>
      <trkpt lat="44.39776" lon="5.4684">
        <ele>827</ele>
        <time>2019-05-31T15:20:20Z</time>
      </trkpt>
      <trkpt lat="44.39768" lon="5.46849">
        <ele>826.2</ele>
        <time>2019-05-31T15:20:28Z</time>
      </trkpt>
      <trkpt lat="44.39759" lon="5.46854">
        <ele>824.9</ele>
        <time>2019-05-31T15:20:35Z</time>
      </trkpt>
      <trkpt lat="44.3975" lon="5.4686">
        <ele>823.7</ele>
        <time>2019-05-31T15:20:42Z</time>
      </trkpt>
      <trkpt lat="44.39741" lon="5.46867">
        <ele>822.5</ele>
        <time>2019-05-31T15:20:49Z</time>
      </trkpt>
      <trkpt lat="44.39732" lon="5.46872">
        <ele>821.5</ele>
        <time>2019-05-31T15:20:56Z</time>
      </trkpt>
      <trkpt lat="44.39724" lon="5.46877">
        <ele>820.5</ele>
        <time>2019-05-31T15:21:04Z</time>
      </trkpt>
      <trkpt lat="44.39715" lon="5.46884">
        <ele>819.9</ele>
        <time>2019-05-31T15:21:12Z</time>
      </trkpt>
      <trkpt lat="44.39706" lon="5.46889">
        <ele>819</ele>
        <time>2019-05-31T15:21:20Z</time>
      </trkpt>
      <trkpt lat="44.39697" lon="5.46892">
        <ele>817.7</ele>
        <time>2019-05-31T15:21:29Z</time>
      </trkpt>
      <trkpt lat="44.39687" lon="5.46894">
        <ele>816.4</ele>
        <time>2019-05-31T15:21:37Z</time>
      </trkpt>
      <trkpt lat="44.39679" lon="5.469">
        <ele>814.8</ele>
        <time>2019-05-31T15:21:46Z</time>
      </trkpt>
      <trkpt lat="44.3967" lon="5.46905">
        <ele>813.2</ele>
        <time>2019-05-31T15:21:55Z</time>
      </trkpt>
      <trkpt lat="44.39661" lon="5.46909">
        <ele>811.8</ele>
        <time>2019-05-31T15:22:04Z</time>
      </trkpt>
      <trkpt lat="44.39652" lon="5.46913">
        <ele>810.2</ele>
        <time>2019-05-31T15:22:14Z</time>
      </trkpt>
      <trkpt lat="44.39643" lon="5.46918">
        <ele>808.5</ele>
        <time>2019-05-31T15:22:23Z</time>
      </trkpt>
      <trkpt lat="44.39633" lon="5.46923">
        <ele>806.8</ele>
        <time>2019-05-31T15:22:31Z</time>
      </trkpt>
      <trkpt lat="44.39625" lon="5.46928">
        <ele>805.5</ele>
        <time>2019-05-31T15:22:39Z</time>
      </trkpt>
      <trkpt lat="44.39616" lon="5.46934">
        <ele>804.4</ele>
        <time>2019-05-31T15:22:46Z</time>
      </trkpt>
      <trkpt lat="44.39608" lon="5.46941">
        <ele>803.2</ele>
        <time>2019-05-31T15:22:54Z</time>
      </trkpt>
      <trkpt lat="44.39601" lon="5.46949">
        <ele>802.8</ele>
        <time>2019-05-31T15:23:01Z</time>
      </trkpt>
      <trkpt lat="44.39593" lon="5.46957">
        <ele>802.2</ele>
        <time>2019-05-31T15:23:09Z</time>
      </trkpt>
      <trkpt lat="44.39586" lon="5.46965">
        <ele>801.4</ele>
        <time>2019-05-31T15:23:17Z</time>
      </trkpt>
      <trkpt lat="44.39579" lon="5.46974">
        <ele>800.7</ele>
        <time>2019-05-31T15:23:25Z</time>
      </trkpt>
      <trkpt lat="44.39571" lon="5.46982">
        <ele>800.3</ele>
        <time>2019-05-31T15:23:33Z</time>
      </trkpt>
      <trkpt lat="44.39562" lon="5.4699">
        <ele>799.3</ele>
        <time>2019-05-31T15:23:41Z</time>
      </trkpt>
      <trkpt lat="44.39554" lon="5.46997">
        <ele>798.2</ele>
        <time>2019-05-31T15:23:48Z</time>
      </trkpt>
      <trkpt lat="44.39546" lon="5.47004">
        <ele>797.2</ele>
        <time>2019-05-31T15:23:55Z</time>
      </trkpt>
      <trkpt lat="44.39539" lon="5.47011">
        <ele>795.8</ele>
        <time>2019-05-31T15:24:02Z</time>
      </trkpt>
      <trkpt lat="44.3953" lon="5.47018">
        <ele>794.6</ele>
        <time>2019-05-31T15:24:10Z</time>
      </trkpt>
      <trkpt lat="44.39522" lon="5.47025">
        <ele>793.8</ele>
        <time>2019-05-31T15:24:17Z</time>
      </trkpt>
      <trkpt lat="44.39513" lon="5.47033">
        <ele>792.5</ele>
        <time>2019-05-31T15:24:24Z</time>
      </trkpt>
      <trkpt lat="44.39505" lon="5.47041">
        <ele>791.7</ele>
        <time>2019-05-31T15:24:31Z</time>
      </trkpt>
      <trkpt lat="44.39497" lon="5.47048">
        <ele>790.3</ele>
        <time>2019-05-31T15:24:38Z</time>
      </trkpt>
      <trkpt lat="44.39489" lon="5.47055">
        <ele>789</ele>
        <time>2019-05-31T15:24:46Z</time>
      </trkpt>
      <trkpt lat="44.3948" lon="5.47061">
        <ele>787.5</ele>
        <time>2019-05-31T15:24:54Z</time>
      </trkpt>
      <trkpt lat="44.39471" lon="5.47067">
        <ele>786.5</ele>
        <time>2019-05-31T15:25:01Z</time>
      </trkpt>
      <trkpt lat="44.39463" lon="5.47073">
        <ele>785.4</ele>
        <time>2019-05-31T15:25:09Z</time>
      </trkpt>
      <trkpt lat="44.39454" lon="5.47077">
        <ele>782.1</ele>
        <time>2019-05-31T15:25:46Z</time>
      </trkpt>
      <trkpt lat="44.39445" lon="5.47081">
        <ele>781.2</ele>
        <time>2019-05-31T15:25:58Z</time>
      </trkpt>
      <trkpt lat="44.39435" lon="5.47085">
        <ele>780.1</ele>
        <time>2019-05-31T15:26:12Z</time>
      </trkpt>
      <trkpt lat="44.39426" lon="5.47089">
        <ele>778.2</ele>
        <time>2019-05-31T15:26:25Z</time>
      </trkpt>
      <trkpt lat="44.39417" lon="5.47093">
        <ele>776.4</ele>
        <time>2019-05-31T15:26:36Z</time>
      </trkpt>
      <trkpt lat="44.39408" lon="5.47098">
        <ele>774.6</ele>
        <time>2019-05-31T15:26:47Z</time>
      </trkpt>
      <trkpt lat="44.39399" lon="5.471">
        <ele>773.3</ele>
        <time>2019-05-31T15:26:57Z</time>
      </trkpt>
      <trkpt lat="44.3939" lon="5.47094">
        <ele>771.6</ele>
        <time>2019-05-31T15:27:09Z</time>
      </trkpt>
      <trkpt lat="44.39381" lon="5.47093">
        <ele>769.8</ele>
        <time>2019-05-31T15:27:18Z</time>
      </trkpt>
      <trkpt lat="44.39372" lon="5.47096">
        <ele>767.9</ele>
        <time>2019-05-31T15:27:29Z</time>
      </trkpt>
      <trkpt lat="44.39363" lon="5.47099">
        <ele>766.1</ele>
        <time>2019-05-31T15:27:39Z</time>
      </trkpt>
      <trkpt lat="44.39354" lon="5.47101">
        <ele>764</ele>
        <time>2019-05-31T15:27:50Z</time>
      </trkpt>
      <trkpt lat="44.39345" lon="5.47103">
        <ele>762.6</ele>
        <time>2019-05-31T15:27:59Z</time>
      </trkpt>
      <trkpt lat="44.39336" lon="5.47104">
        <ele>761</ele>
        <time>2019-05-31T15:28:08Z</time>
      </trkpt>
      <trkpt lat="44.39326" lon="5.47099">
        <ele>759.2</ele>
        <time>2019-05-31T15:28:18Z</time>
      </trkpt>
      <trkpt lat="44.39319" lon="5.4709">
        <ele>757.5</ele>
        <time>2019-05-31T15:28:28Z</time>
      </trkpt>
      <trkpt lat="44.3932" lon="5.47076">
        <ele>755.8</ele>
        <time>2019-05-31T15:28:38Z</time>
      </trkpt>
      <trkpt lat="44.39325" lon="5.47065">
        <ele>755</ele>
        <time>2019-05-31T15:28:45Z</time>
      </trkpt>
      <trkpt lat="44.39328" lon="5.47052">
        <ele>753.8</ele>
        <time>2019-05-31T15:28:53Z</time>
      </trkpt>
      <trkpt lat="44.39321" lon="5.47043">
        <ele>752.6</ele>
        <time>2019-05-31T15:29:03Z</time>
      </trkpt>
      <trkpt lat="44.39311" lon="5.47042">
        <ele>751</ele>
        <time>2019-05-31T15:29:11Z</time>
      </trkpt>
      <trkpt lat="44.39302" lon="5.47046">
        <ele>749.9</ele>
        <time>2019-05-31T15:29:19Z</time>
      </trkpt>
      <trkpt lat="44.39294" lon="5.47054">
        <ele>749.2</ele>
        <time>2019-05-31T15:29:26Z</time>
      </trkpt>
      <trkpt lat="44.39286" lon="5.47061">
        <ele>748.4</ele>
        <time>2019-05-31T15:29:34Z</time>
      </trkpt>
      <trkpt lat="44.3928" lon="5.4707">
        <ele>747.4</ele>
        <time>2019-05-31T15:29:41Z</time>
      </trkpt>
      <trkpt lat="44.39273" lon="5.47079">
        <ele>746.7</ele>
        <time>2019-05-31T15:29:49Z</time>
      </trkpt>
      <trkpt lat="44.39265" lon="5.47088">
        <ele>746.2</ele>
        <time>2019-05-31T15:29:57Z</time>
      </trkpt>
      <trkpt lat="44.39258" lon="5.47095">
        <ele>745.5</ele>
        <time>2019-05-31T15:30:04Z</time>
      </trkpt>
      <trkpt lat="44.3925" lon="5.47088">
        <ele>743.5</ele>
        <time>2019-05-31T15:33:53Z</time>
      </trkpt>
      <trkpt lat="44.39241" lon="5.4709">
        <ele>743.4</ele>
        <time>2019-05-31T15:34:03Z</time>
      </trkpt>
      <trkpt lat="44.39233" lon="5.47095">
        <ele>743.6</ele>
        <time>2019-05-31T15:34:19Z</time>
      </trkpt>
      <trkpt lat="44.39224" lon="5.47101">
        <ele>743.7</ele>
        <time>2019-05-31T15:34:33Z</time>
      </trkpt>
      <trkpt lat="44.39217" lon="5.47109">
        <ele>743.7</ele>
        <time>2019-05-31T15:34:49Z</time>
      </trkpt>
      <trkpt lat="44.39209" lon="5.47117">
        <ele>743.6</ele>
        <time>2019-05-31T15:35:00Z</time>
      </trkpt>
      <trkpt lat="44.392" lon="5.47122">
        <ele>743.5</ele>
        <time>2019-05-31T15:35:07Z</time>
      </trkpt>
      <trkpt lat="44.3919" lon="5.47122">
        <ele>743.4</ele>
        <time>2019-05-31T15:35:13Z</time>
      </trkpt>
      <trkpt lat="44.39181" lon="5.47121">
        <ele>743.1</ele>
        <time>2019-05-31T15:35:19Z</time>
      </trkpt>
      <trkpt lat="44.39171" lon="5.47121">
        <ele>742.9</ele>
        <time>2019-05-31T15:35:26Z</time>
      </trkpt>
      <trkpt lat="44.39162" lon="5.4712">
        <ele>742.8</ele>
        <time>2019-05-31T15:35:33Z</time>
      </trkpt>
      <trkpt lat="44.39152" lon="5.47118">
        <ele>743</ele>
        <time>2019-05-31T15:35:41Z</time>
      </trkpt>
      <trkpt lat="44.39143" lon="5.47115">
        <ele>743</ele>
        <time>2019-05-31T15:35:49Z</time>
      </trkpt>
      <trkpt lat="44.39134" lon="5.47111">
        <ele>743</ele>
        <time>2019-05-31T15:35:57Z</time>
      </trkpt>
      <trkpt lat="44.39131" lon="5.47098">
        <ele>742.7</ele>
        <time>2019-05-31T15:36:08Z</time>
      </trkpt>
      <trkpt lat="44.39133" lon="5.47085">
        <ele>742.9</ele>
        <time>2019-05-31T15:36:25Z</time>
      </trkpt>
      <trkpt lat="44.39132" lon="5.47073">
        <ele>742.5</ele>
        <time>2019-05-31T15:36:35Z</time>
      </trkpt>
      <trkpt lat="44.39135" lon="5.4706">
        <ele>741.6</ele>
        <time>2019-05-31T15:36:57Z</time>
      </trkpt>
      <trkpt lat="44.39134" lon="5.47047">
        <ele>740.8</ele>
        <time>2019-05-31T15:37:05Z</time>
      </trkpt>
      <trkpt lat="44.39124" lon="5.47044">
        <ele>739.7</ele>
        <time>2019-05-31T15:37:14Z</time>
      </trkpt>
      <trkpt lat="44.39115" lon="5.47044">
        <ele>739</ele>
        <time>2019-05-31T15:37:22Z</time>
      </trkpt>
      <trkpt lat="44.39105" lon="5.47046">
        <ele>738.2</ele>
        <time>2019-05-31T15:37:31Z</time>
      </trkpt>
      <trkpt lat="44.39097" lon="5.47052">
        <ele>736.7</ele>
        <time>2019-05-31T15:37:40Z</time>
      </trkpt>
      <trkpt lat="44.39089" lon="5.47059">
        <ele>735.7</ele>
        <time>2019-05-31T15:37:49Z</time>
      </trkpt>
      <trkpt lat="44.39082" lon="5.47068">
        <ele>734.4</ele>
        <time>2019-05-31T15:37:59Z</time>
      </trkpt>
      <trkpt lat="44.39073" lon="5.47072">
        <ele>733.1</ele>
        <time>2019-05-31T15:38:09Z</time>
      </trkpt>
      <trkpt lat="44.39065" lon="5.47066">
        <ele>731.4</ele>
        <time>2019-05-31T15:38:18Z</time>
      </trkpt>
      <trkpt lat="44.3906" lon="5.47054">
        <ele>730</ele>
        <time>2019-05-31T15:38:29Z</time>
      </trkpt>
      <trkpt lat="44.3905" lon="5.47055">
        <ele>728.5</ele>
        <time>2019-05-31T15:38:42Z</time>
      </trkpt>
      <trkpt lat="44.3904" lon="5.47059">
        <ele>727.2</ele>
        <time>2019-05-31T15:38:53Z</time>
      </trkpt>
      <trkpt lat="44.39031" lon="5.47064">
        <ele>725.9</ele>
        <time>2019-05-31T15:39:01Z</time>
      </trkpt>
      <trkpt lat="44.39022" lon="5.47068">
        <ele>724.2</ele>
        <time>2019-05-31T15:39:11Z</time>
      </trkpt>
      <trkpt lat="44.39014" lon="5.47073">
        <ele>721.8</ele>
        <time>2019-05-31T15:39:20Z</time>
      </trkpt>
      <trkpt lat="44.39005" lon="5.47076">
        <ele>719.5</ele>
        <time>2019-05-31T15:39:29Z</time>
      </trkpt>
      <trkpt lat="44.38999" lon="5.47087">
        <ele>716.8</ele>
        <time>2019-05-31T15:39:39Z</time>
      </trkpt>
      <trkpt lat="44.3899" lon="5.47087">
        <ele>711.5</ele>
        <time>2019-05-31T15:41:08Z</time>
      </trkpt>
      <trkpt lat="44.3898" lon="5.47087">
        <ele>711.3</ele>
        <time>2019-05-31T15:41:16Z</time>
      </trkpt>
      <trkpt lat="44.38971" lon="5.47091">
        <ele>710.8</ele>
        <time>2019-05-31T15:41:24Z</time>
      </trkpt>
      <trkpt lat="44.38964" lon="5.47099">
        <ele>710.5</ele>
        <time>2019-05-31T15:41:31Z</time>
      </trkpt>
      <trkpt lat="44.38954" lon="5.47101">
        <ele>709.3</ele>
        <time>2019-05-31T15:41:39Z</time>
      </trkpt>
      <trkpt lat="44.38948" lon="5.4709">
        <ele>708.2</ele>
        <time>2019-05-31T15:41:46Z</time>
      </trkpt>
      <trkpt lat="44.38943" lon="5.47078">
        <ele>707.3</ele>
        <time>2019-05-31T15:41:54Z</time>
      </trkpt>
      <trkpt lat="44.3894" lon="5.47065">
        <ele>706.8</ele>
        <time>2019-05-31T15:42:01Z</time>
      </trkpt>
      <trkpt lat="44.38937" lon="5.47052">
        <ele>706.2</ele>
        <time>2019-05-31T15:42:09Z</time>
      </trkpt>
      <trkpt lat="44.38935" lon="5.4704">
        <ele>705.7</ele>
        <time>2019-05-31T15:42:16Z</time>
      </trkpt>
      <trkpt lat="44.3893" lon="5.47028">
        <ele>705.3</ele>
        <time>2019-05-31T15:42:23Z</time>
      </trkpt>
      <trkpt lat="44.38927" lon="5.47015">
        <ele>704.7</ele>
        <time>2019-05-31T15:42:30Z</time>
      </trkpt>
      <trkpt lat="44.38924" lon="5.47002">
        <ele>704.1</ele>
        <time>2019-05-31T15:42:37Z</time>
      </trkpt>
      <trkpt lat="44.38921" lon="5.46988">
        <ele>703.7</ele>
        <time>2019-05-31T15:42:44Z</time>
      </trkpt>
      <trkpt lat="44.38917" lon="5.46976">
        <ele>703.3</ele>
        <time>2019-05-31T15:42:51Z</time>
      </trkpt>
      <trkpt lat="44.38914" lon="5.46963">
        <ele>702.2</ele>
        <time>2019-05-31T15:42:59Z</time>
      </trkpt>
      <trkpt lat="44.38913" lon="5.46949">
        <ele>700.8</ele>
        <time>2019-05-31T15:43:07Z</time>
      </trkpt>
      <trkpt lat="44.38913" lon="5.46936">
        <ele>700</ele>
        <time>2019-05-31T15:43:14Z</time>
      </trkpt>
      <trkpt lat="44.38914" lon="5.46922">
        <ele>698.7</ele>
        <time>2019-05-31T15:43:23Z</time>
      </trkpt>
      <trkpt lat="44.38906" lon="5.46913">
        <ele>696.8</ele>
        <time>2019-05-31T15:43:35Z</time>
      </trkpt>
      <trkpt lat="44.38897" lon="5.46907">
        <ele>694.7</ele>
        <time>2019-05-31T15:43:44Z</time>
      </trkpt>
      <trkpt lat="44.3889" lon="5.46898">
        <ele>692.1</ele>
        <time>2019-05-31T15:43:53Z</time>
      </trkpt>
      <trkpt lat="44.38883" lon="5.46888">
        <ele>690.1</ele>
        <time>2019-05-31T15:44:02Z</time>
      </trkpt>
      <trkpt lat="44.38876" lon="5.46879">
        <ele>688</ele>
        <time>2019-05-31T15:44:11Z</time>
      </trkpt>
      <trkpt lat="44.38868" lon="5.46871">
        <ele>686</ele>
        <time>2019-05-31T15:44:19Z</time>
      </trkpt>
      <trkpt lat="44.3886" lon="5.46861">
        <ele>684</ele>
        <time>2019-05-31T15:44:27Z</time>
      </trkpt>
      <trkpt lat="44.38852" lon="5.46854">
        <ele>682.4</ele>
        <time>2019-05-31T15:44:34Z</time>
      </trkpt>
      <trkpt lat="44.38845" lon="5.46846">
        <ele>680.9</ele>
        <time>2019-05-31T15:44:41Z</time>
      </trkpt>
      <trkpt lat="44.38837" lon="5.46838">
        <ele>679.5</ele>
        <time>2019-05-31T15:44:48Z</time>
      </trkpt>
      <trkpt lat="44.38829" lon="5.46831">
        <ele>678</ele>
        <time>2019-05-31T15:44:55Z</time>
      </trkpt>
      <trkpt lat="44.38821" lon="5.46824">
        <ele>676.4</ele>
        <time>2019-05-31T15:45:03Z</time>
      </trkpt>
      <trkpt lat="44.38814" lon="5.46815">
        <ele>674.8</ele>
        <time>2019-05-31T15:45:12Z</time>
      </trkpt>
      <trkpt lat="44.38806" lon="5.46808">
        <ele>673.5</ele>
        <time>2019-05-31T15:45:21Z</time>
      </trkpt>
      <trkpt lat="44.38798" lon="5.468">
        <ele>671.6</ele>
        <time>2019-05-31T15:45:29Z</time>
      </trkpt>
      <trkpt lat="44.3879" lon="5.46793">
        <ele>669.9</ele>
        <time>2019-05-31T15:45:39Z</time>
      </trkpt>
      <trkpt lat="44.38783" lon="5.46784">
        <ele>668</ele>
        <time>2019-05-31T15:45:48Z</time>
      </trkpt>
      <trkpt lat="44.38776" lon="5.46774">
        <ele>665.6</ele>
        <time>2019-05-31T15:45:58Z</time>
      </trkpt>
      <trkpt lat="44.38768" lon="5.46765">
        <ele>663.9</ele>
        <time>2019-05-31T15:46:08Z</time>
      </trkpt>
      <trkpt lat="44.3876" lon="5.46758">
        <ele>662.7</ele>
        <time>2019-05-31T15:46:15Z</time>
      </trkpt>
      <trkpt lat="44.38754" lon="5.46748">
        <ele>658.3</ele>
        <time>2019-05-31T15:46:48Z</time>
      </trkpt>
      <trkpt lat="44.38746" lon="5.46741">
        <ele>657.8</ele>
        <time>2019-05-31T15:47:02Z</time>
      </trkpt>
      <trkpt lat="44.38738" lon="5.46735">
        <ele>657.5</ele>
        <time>2019-05-31T15:47:09Z</time>
      </trkpt>
      <trkpt lat="44.38729" lon="5.46729">
        <ele>656.8</ele>
        <time>2019-05-31T15:47:16Z</time>
      </trkpt>
      <trkpt lat="44.3872" lon="5.46722">
        <ele>656.1</ele>
        <time>2019-05-31T15:47:22Z</time>
      </trkpt>
      <trkpt lat="44.38711" lon="5.46717">
        <ele>655</ele>
        <time>2019-05-31T15:47:30Z</time>
      </trkpt>
      <trkpt lat="44.38702" lon="5.46712">
        <ele>654.3</ele>
        <time>2019-05-31T15:47:36Z</time>
      </trkpt>
      <trkpt lat="44.38694" lon="5.46706">
        <ele>653.8</ele>
        <time>2019-05-31T15:47:42Z</time>
      </trkpt>
      <trkpt lat="44.38685" lon="5.467">
        <ele>653.2</ele>
        <time>2019-05-31T15:47:49Z</time>
      </trkpt>
      <trkpt lat="44.38677" lon="5.46693">
        <ele>652.7</ele>
        <time>2019-05-31T15:47:56Z</time>
      </trkpt>
      <trkpt lat="44.38671" lon="5.46683">
        <ele>652.1</ele>
        <time>2019-05-31T15:48:03Z</time>
      </trkpt>
      <trkpt lat="44.38666" lon="5.46672">
        <ele>651.6</ele>
        <time>2019-05-31T15:48:12Z</time>
      </trkpt>
      <trkpt lat="44.38661" lon="5.46661">
        <ele>651.4</ele>
        <time>2019-05-31T15:48:19Z</time>
      </trkpt>
      <trkpt lat="44.38656" lon="5.4665">
        <ele>651</ele>
        <time>2019-05-31T15:48:26Z</time>
      </trkpt>
      <trkpt lat="44.38647" lon="5.46647">
        <ele>650.5</ele>
        <time>2019-05-31T15:48:32Z</time>
      </trkpt>
      <trkpt lat="44.38638" lon="5.46649">
        <ele>650</ele>
        <time>2019-05-31T15:48:38Z</time>
      </trkpt>
      <trkpt lat="44.38628" lon="5.46651">
        <ele>649.6</ele>
        <time>2019-05-31T15:48:44Z</time>
      </trkpt>
      <trkpt lat="44.38618" lon="5.4665">
        <ele>649.3</ele>
        <time>2019-05-31T15:48:51Z</time>
      </trkpt>
      <trkpt lat="44.38612" lon="5.46642">
        <ele>649.1</ele>
        <time>2019-05-31T15:48:58Z</time>
      </trkpt>
      <trkpt lat="44.38605" lon="5.46633">
        <ele>648.6</ele>
        <time>2019-05-31T15:49:06Z</time>
      </trkpt>
      <trkpt lat="44.38597" lon="5.46624">
        <ele>648.3</ele>
        <time>2019-05-31T15:49:13Z</time>
      </trkpt>
      <trkpt lat="44.3859" lon="5.46616">
        <ele>648.3</ele>
        <time>2019-05-31T15:49:19Z</time>
      </trkpt>
      <trkpt lat="44.38583" lon="5.46606">
        <ele>648.2</ele>
        <time>2019-05-31T15:49:25Z</time>
      </trkpt>
      <trkpt lat="44.38575" lon="5.46598">
        <ele>648</ele>
        <time>2019-05-31T15:49:31Z</time>
      </trkpt>
      <trkpt lat="44.38567" lon="5.46591">
        <ele>647.6</ele>
        <time>2019-05-31T15:49:38Z</time>
      </trkpt>
      <trkpt lat="44.38557" lon="5.46587">
        <ele>647.1</ele>
        <time>2019-05-31T15:49:45Z</time>
      </trkpt>
      <trkpt lat="44.38548" lon="5.46583">
        <ele>646.6</ele>
        <time>2019-05-31T15:49:52Z</time>
      </trkpt>
      <trkpt lat="44.38539" lon="5.46578">
        <ele>646.2</ele>
        <time>2019-05-31T15:49:59Z</time>
      </trkpt>
      <trkpt lat="44.38531" lon="5.46572">
        <ele>645.7</ele>
        <time>2019-05-31T15:50:06Z</time>
      </trkpt>
      <trkpt lat="44.38523" lon="5.46564">
        <ele>644.6</ele>
        <time>2019-05-31T15:50:13Z</time>
      </trkpt>
      <trkpt lat="44.38515" lon="5.46556">
        <ele>643.8</ele>
        <time>2019-05-31T15:50:21Z</time>
      </trkpt>
      <trkpt lat="44.38505" lon="5.46556">
        <ele>643.6</ele>
        <time>2019-05-31T15:50:27Z</time>
      </trkpt>
      <trkpt lat="44.38495" lon="5.46555">
        <ele>643.2</ele>
        <time>2019-05-31T15:50:33Z</time>
      </trkpt>
      <trkpt lat="44.38486" lon="5.4655">
        <ele>642.4</ele>
        <time>2019-05-31T15:50:40Z</time>
      </trkpt>
      <trkpt lat="44.38478" lon="5.46545">
        <ele>641.9</ele>
        <time>2019-05-31T15:50:46Z</time>
      </trkpt>
      <trkpt lat="44.38468" lon="5.46541">
        <ele>641.5</ele>
        <time>2019-05-31T15:50:52Z</time>
      </trkpt>
      <trkpt lat="44.38458" lon="5.46538">
        <ele>641.1</ele>
        <time>2019-05-31T15:50:58Z</time>
      </trkpt>
      <trkpt lat="44.38448" lon="5.46537">
        <ele>640.7</ele>
        <time>2019-05-31T15:51:04Z</time>
      </trkpt>
      <trkpt lat="44.38438" lon="5.46536">
        <ele>640.2</ele>
        <time>2019-05-31T15:51:10Z</time>
      </trkpt>
      <trkpt lat="44.38428" lon="5.46534">
        <ele>639.7</ele>
        <time>2019-05-31T15:51:16Z</time>
      </trkpt>
      <trkpt lat="44.38417" lon="5.46534">
        <ele>639.3</ele>
        <time>2019-05-31T15:51:22Z</time>
      </trkpt>
      <trkpt lat="44.38407" lon="5.46534">
        <ele>638.9</ele>
        <time>2019-05-31T15:51:28Z</time>
      </trkpt>
      <trkpt lat="44.38397" lon="5.46533">
        <ele>638.4</ele>
        <time>2019-05-31T15:51:34Z</time>
      </trkpt>
      <trkpt lat="44.38388" lon="5.46532">
        <ele>637.5</ele>
        <time>2019-05-31T15:51:40Z</time>
      </trkpt>
      <trkpt lat="44.38378" lon="5.4653">
        <ele>636.7</ele>
        <time>2019-05-31T15:51:46Z</time>
      </trkpt>
      <trkpt lat="44.38369" lon="5.46526">
        <ele>636.1</ele>
        <time>2019-05-31T15:51:52Z</time>
      </trkpt>
      <trkpt lat="44.3836" lon="5.46522">
        <ele>635.6</ele>
        <time>2019-05-31T15:51:59Z</time>
      </trkpt>
      <trkpt lat="44.38351" lon="5.46516">
        <ele>635</ele>
        <time>2019-05-31T15:52:06Z</time>
      </trkpt>
      <trkpt lat="44.38343" lon="5.46509">
        <ele>634.2</ele>
        <time>2019-05-31T15:52:14Z</time>
      </trkpt>
      <trkpt lat="44.38333" lon="5.46505">
        <ele>633.5</ele>
        <time>2019-05-31T15:52:22Z</time>
      </trkpt>
      <trkpt lat="44.38324" lon="5.46501">
        <ele>633</ele>
        <time>2019-05-31T15:52:29Z</time>
      </trkpt>
      <trkpt lat="44.38315" lon="5.46495">
        <ele>632.4</ele>
        <time>2019-05-31T15:52:36Z</time>
      </trkpt>
      <trkpt lat="44.38306" lon="5.46491">
        <ele>631.7</ele>
        <time>2019-05-31T15:52:42Z</time>
      </trkpt>
      <trkpt lat="44.38297" lon="5.46487">
        <ele>631</ele>
        <time>2019-05-31T15:52:48Z</time>
      </trkpt>
      <trkpt lat="44.38289" lon="5.46482">
        <ele>630.5</ele>
        <time>2019-05-31T15:52:53Z</time>
      </trkpt>
      <trkpt lat="44.3828" lon="5.46477">
        <ele>630.1</ele>
        <time>2019-05-31T15:52:59Z</time>
      </trkpt>
      <trkpt lat="44.3827" lon="5.46472">
        <ele>629.7</ele>
        <time>2019-05-31T15:53:05Z</time>
      </trkpt>
      <trkpt lat="44.3826" lon="5.46467">
        <ele>629.1</ele>
        <time>2019-05-31T15:53:11Z</time>
      </trkpt>
      <trkpt lat="44.38251" lon="5.46463">
        <ele>628.8</ele>
        <time>2019-05-31T15:53:17Z</time>
      </trkpt>
      <trkpt lat="44.38242" lon="5.46457">
        <ele>628.5</ele>
        <time>2019-05-31T15:53:23Z</time>
      </trkpt>
      <trkpt lat="44.38233" lon="5.46452">
        <ele>628.2</ele>
        <time>2019-05-31T15:53:30Z</time>
      </trkpt>
      <trkpt lat="44.38224" lon="5.46448">
        <ele>627.8</ele>
        <time>2019-05-31T15:53:37Z</time>
      </trkpt>
      <trkpt lat="44.38215" lon="5.46443">
        <ele>626.7</ele>
        <time>2019-05-31T15:53:45Z</time>
      </trkpt>
      <trkpt lat="44.38206" lon="5.46438">
        <ele>626.2</ele>
        <time>2019-05-31T15:53:51Z</time>
      </trkpt>
      <trkpt lat="44.38197" lon="5.46432">
        <ele>625.8</ele>
        <time>2019-05-31T15:53:57Z</time>
      </trkpt>
      <trkpt lat="44.38188" lon="5.46425">
        <ele>625.5</ele>
        <time>2019-05-31T15:54:03Z</time>
      </trkpt>
      <trkpt lat="44.38185" lon="5.46413">
        <ele>625.2</ele>
        <time>2019-05-31T15:54:09Z</time>
      </trkpt>
      <trkpt lat="44.38183" lon="5.464">
        <ele>624.6</ele>
        <time>2019-05-31T15:54:15Z</time>
      </trkpt>
      <trkpt lat="44.38182" lon="5.46387">
        <ele>624</ele>
        <time>2019-05-31T15:54:21Z</time>
      </trkpt>
      <trkpt lat="44.3818" lon="5.46373">
        <ele>623.5</ele>
        <time>2019-05-31T15:54:28Z</time>
      </trkpt>
      <trkpt lat="44.38178" lon="5.4636">
        <ele>623.2</ele>
        <time>2019-05-31T15:54:35Z</time>
      </trkpt>
      <trkpt lat="44.38176" lon="5.46346">
        <ele>622.9</ele>
        <time>2019-05-31T15:54:42Z</time>
      </trkpt>
      <trkpt lat="44.38176" lon="5.46333">
        <ele>622.6</ele>
        <time>2019-05-31T15:54:48Z</time>
      </trkpt>
      <trkpt lat="44.38177" lon="5.46319">
        <ele>621.3</ele>
        <time>2019-05-31T15:55:16Z</time>
      </trkpt>
      <trkpt lat="44.3818" lon="5.46307">
        <ele>621</ele>
        <time>2019-05-31T15:55:26Z</time>
      </trkpt>
      <trkpt lat="44.38185" lon="5.46296">
        <ele>620.9</ele>
        <time>2019-05-31T15:55:37Z</time>
      </trkpt>
      <trkpt lat="44.38192" lon="5.46287">
        <ele>620.4</ele>
        <time>2019-05-31T15:55:45Z</time>
      </trkpt>
      <trkpt lat="44.38201" lon="5.4628">
        <ele>619.8</ele>
        <time>2019-05-31T15:55:55Z</time>
      </trkpt>
      <trkpt lat="44.3821" lon="5.46275">
        <ele>619.4</ele>
        <time>2019-05-31T15:56:07Z</time>
      </trkpt>
      <trkpt lat="44.38216" lon="5.46265">
        <ele>618.9</ele>
        <time>2019-05-31T15:56:31Z</time>
      </trkpt>
      <trkpt lat="44.38224" lon="5.46261">
        <ele>617.9</ele>
        <time>2019-05-31T15:57:10Z</time>
      </trkpt>
      <trkpt lat="44.3823" lon="5.46251">
        <ele>613.9</ele>
        <time>2019-05-31T16:00:05Z</time>
      </trkpt>
      <trkpt lat="44.38235" lon="5.46239">
        <ele>609.9</ele>
        <time>2019-05-31T16:02:42Z</time>
      </trkpt>
      <trkpt lat="44.38241" lon="5.46229">
        <ele>609.8</ele>
        <time>2019-05-31T16:02:49Z</time>
      </trkpt>
      <trkpt lat="44.38246" lon="5.46218">
        <ele>609.6</ele>
        <time>2019-05-31T16:02:58Z</time>
      </trkpt>
      <trkpt lat="44.38249" lon="5.46205">
        <ele>609.4</ele>
        <time>2019-05-31T16:03:05Z</time>
      </trkpt>
      <trkpt lat="44.38251" lon="5.46191">
        <ele>609.3</ele>
        <time>2019-05-31T16:03:13Z</time>
      </trkpt>
      <trkpt lat="44.38253" lon="5.46178">
        <ele>609.4</ele>
        <time>2019-05-31T16:03:20Z</time>
      </trkpt>
      <trkpt lat="44.38255" lon="5.46165">
        <ele>609</ele>
        <time>2019-05-31T16:03:27Z</time>
      </trkpt>
      <trkpt lat="44.38256" lon="5.46153">
        <ele>608.7</ele>
        <time>2019-05-31T16:03:33Z</time>
      </trkpt>
      <trkpt lat="44.38256" lon="5.46139">
        <ele>608.4</ele>
        <time>2019-05-31T16:03:40Z</time>
      </trkpt>
      <trkpt lat="44.38256" lon="5.46125">
        <ele>608.2</ele>
        <time>2019-05-31T16:03:47Z</time>
      </trkpt>
      <trkpt lat="44.38259" lon="5.46112">
        <ele>608.2</ele>
        <time>2019-05-31T16:03:55Z</time>
      </trkpt>
      <trkpt lat="44.38265" lon="5.46101">
        <ele>608.5</ele>
        <time>2019-05-31T16:04:03Z</time>
      </trkpt>
      <trkpt lat="44.38271" lon="5.46091">
        <ele>608.8</ele>
        <time>2019-05-31T16:04:11Z</time>
      </trkpt>
      <trkpt lat="44.38277" lon="5.46079">
        <ele>609.7</ele>
        <time>2019-05-31T16:04:20Z</time>
      </trkpt>
      <trkpt lat="44.38282" lon="5.46069">
        <ele>610.4</ele>
        <time>2019-05-31T16:04:28Z</time>
      </trkpt>
      <trkpt lat="44.38288" lon="5.46058">
        <ele>610.9</ele>
        <time>2019-05-31T16:04:36Z</time>
      </trkpt>
      <trkpt lat="44.38292" lon="5.46047">
        <ele>611.5</ele>
        <time>2019-05-31T16:04:44Z</time>
      </trkpt>
      <trkpt lat="44.38296" lon="5.46035">
        <ele>612</ele>
        <time>2019-05-31T16:04:51Z</time>
      </trkpt>
      <trkpt lat="44.383" lon="5.46022">
        <ele>612.7</ele>
        <time>2019-05-31T16:04:59Z</time>
      </trkpt>
      <trkpt lat="44.38304" lon="5.46009">
        <ele>613.2</ele>
        <time>2019-05-31T16:05:07Z</time>
      </trkpt>
      <trkpt lat="44.38308" lon="5.45996">
        <ele>613.7</ele>
        <time>2019-05-31T16:05:15Z</time>
      </trkpt>
      <trkpt lat="44.38311" lon="5.45984">
        <ele>614.5</ele>
        <time>2019-05-31T16:05:22Z</time>
      </trkpt>
      <trkpt lat="44.38315" lon="5.45972">
        <ele>615.2</ele>
        <time>2019-05-31T16:05:29Z</time>
      </trkpt>
      <trkpt lat="44.38319" lon="5.4596">
        <ele>615.9</ele>
        <time>2019-05-31T16:05:36Z</time>
      </trkpt>
      <trkpt lat="44.38322" lon="5.45949">
        <ele>616.2</ele>
        <time>2019-05-31T16:05:43Z</time>
      </trkpt>
      <trkpt lat="44.38327" lon="5.45937">
        <ele>616.5</ele>
        <time>2019-05-31T16:05:52Z</time>
      </trkpt>
      <trkpt lat="44.38328" lon="5.45923">
        <ele>616.8</ele>
        <time>2019-05-31T16:06:02Z</time>
      </trkpt>
      <trkpt lat="44.3832" lon="5.45917">
        <ele>617</ele>
        <time>2019-05-31T16:06:11Z</time>
      </trkpt>
      <trkpt lat="44.38316" lon="5.45909">
        <ele>611.4</ele>
        <time>2019-05-31T16:09:16Z</time>
      </trkpt>
    </trkseg>
  </trk>
</gpx>